<?xml version="1.0" encoding="UTF-8" standalone="no" ?>
<gpx xmlns="http://www.topografix.com/GPX/1/1" xmlns:xsi="http://www.w3.org/2001/XMLSchema-instance" xsi:schemaLocation="http://www.topografix.com/GPX/1/1 http://www.topografix.com/GPX/1/1/gpx.xsd" version="1.1" creator="VisuGPX - https://www.visugpx.com">
  <metadata>
    <name>RANDO 24 KM ST JULIEN CHAPTEUIL</name>
    <desc><![CDATA[DEPART ARRIVEE MAISON DE RETRAITE DE ST JULIEN.MONTCHANIS.MONTROUGE.QUEYRIERES TABLE DE PICNIC.RAFFY .LE VILLARET.PEYRE DE BARD.]]></desc>
  </metadata>
  <trk>
    <name><![CDATA[RANDO 24 KM ST JULIEN CHAPTEUIL_1]]></name>
    <trkseg>
      <trkpt lat="45.07599" lon="4.09379">
        <ele>1117</ele>
        <time>2016-07-24T10:38:34Z</time>
      </trkpt>
      <trkpt lat="45.07639" lon="4.09384">
        <ele>1118</ele>
        <time>2016-07-24T10:38:46Z</time>
      </trkpt>
      <trkpt lat="45.07659" lon="4.09405">
        <ele>1120</ele>
        <time>2016-07-24T10:38:59Z</time>
      </trkpt>
      <trkpt lat="45.07685" lon="4.09427">
        <ele>1125</ele>
        <time>2016-07-24T10:39:02Z</time>
      </trkpt>
      <trkpt lat="45.07705" lon="4.09451">
        <ele>1127</ele>
        <time>2016-07-24T10:39:19Z</time>
      </trkpt>
      <trkpt lat="45.07715" lon="4.09461">
        <ele>1128</ele>
        <time>2016-07-24T10:39:35Z</time>
      </trkpt>
      <trkpt lat="45.07693" lon="4.09504">
        <ele>1128</ele>
        <time>2016-07-24T10:39:50Z</time>
      </trkpt>
      <trkpt lat="45.07663" lon="4.0956">
        <ele>1125</ele>
        <time>2016-07-24T10:40:05Z</time>
      </trkpt>
      <trkpt lat="45.07649" lon="4.09591">
        <ele>1129</ele>
        <time>2016-07-24T10:40:07Z</time>
      </trkpt>
      <trkpt lat="45.07633" lon="4.09637">
        <ele>1130</ele>
        <time>2016-07-24T10:40:22Z</time>
      </trkpt>
      <trkpt lat="45.07629" lon="4.09663">
        <ele>1131</ele>
        <time>2016-07-24T10:40:39Z</time>
      </trkpt>
      <trkpt lat="45.07625" lon="4.09691">
        <ele>1137</ele>
        <time>2016-07-24T10:40:56Z</time>
      </trkpt>
      <trkpt lat="45.07624" lon="4.09699">
        <ele>1138</ele>
        <time>2016-07-24T10:41:15Z</time>
      </trkpt>
      <trkpt lat="45.07622" lon="4.09712">
        <ele>1139</ele>
        <time>2016-07-24T10:41:34Z</time>
      </trkpt>
      <trkpt lat="45.07622" lon="4.09711">
        <ele>1139</ele>
        <time>2016-07-24T10:41:51Z</time>
      </trkpt>
      <trkpt lat="45.07616" lon="4.09732">
        <ele>1140</ele>
        <time>2016-07-24T10:42:11Z</time>
      </trkpt>
      <trkpt lat="45.07611" lon="4.09748">
        <ele>1140</ele>
        <time>2016-07-24T10:42:17Z</time>
      </trkpt>
      <trkpt lat="45.0761" lon="4.09753">
        <ele>1146</ele>
        <time>2016-07-24T10:42:36Z</time>
      </trkpt>
      <trkpt lat="45.07608" lon="4.09753">
        <ele>1146</ele>
        <time>2016-07-24T10:42:55Z</time>
      </trkpt>
      <trkpt lat="45.07591" lon="4.09765">
        <ele>1146</ele>
        <time>2016-07-24T10:43:17Z</time>
      </trkpt>
      <trkpt lat="45.07572" lon="4.09776">
        <ele>1145</ele>
        <time>2016-07-24T10:43:36Z</time>
      </trkpt>
      <trkpt lat="45.07555" lon="4.0979">
        <ele>1146</ele>
        <time>2016-07-24T10:43:47Z</time>
      </trkpt>
      <trkpt lat="45.07539" lon="4.09805">
        <ele>1147</ele>
        <time>2016-07-24T10:43:51Z</time>
      </trkpt>
      <trkpt lat="45.07537" lon="4.09807">
        <ele>1147</ele>
        <time>2016-07-24T10:44:08Z</time>
      </trkpt>
      <trkpt lat="45.07518" lon="4.09816">
        <ele>1147</ele>
        <time>2016-07-24T10:44:13Z</time>
      </trkpt>
      <trkpt lat="45.07498" lon="4.09824">
        <ele>1148</ele>
        <time>2016-07-24T10:44:17Z</time>
      </trkpt>
      <trkpt lat="45.07478" lon="4.09833">
        <ele>1147</ele>
        <time>2016-07-24T10:44:32Z</time>
      </trkpt>
      <trkpt lat="45.07452" lon="4.09847">
        <ele>1151</ele>
        <time>2016-07-24T10:44:46Z</time>
      </trkpt>
      <trkpt lat="45.07427" lon="4.09863">
        <ele>1152</ele>
        <time>2016-07-24T10:44:47Z</time>
      </trkpt>
      <trkpt lat="45.07407" lon="4.09879">
        <ele>1152</ele>
        <time>2016-07-24T10:44:57Z</time>
      </trkpt>
      <trkpt lat="45.07382" lon="4.09898">
        <ele>1152</ele>
        <time>2016-07-24T10:45:09Z</time>
      </trkpt>
      <trkpt lat="45.07377" lon="4.09903">
        <ele>1152</ele>
        <time>2016-07-24T10:45:21Z</time>
      </trkpt>
      <trkpt lat="45.07361" lon="4.0993">
        <ele>1154</ele>
        <time>2016-07-24T10:45:44Z</time>
      </trkpt>
      <trkpt lat="45.0735" lon="4.09963">
        <ele>1154</ele>
        <time>2016-07-24T10:46:04Z</time>
      </trkpt>
      <trkpt lat="45.07334" lon="4.09998">
        <ele>1152</ele>
        <time>2016-07-24T10:46:26Z</time>
      </trkpt>
      <trkpt lat="45.07317" lon="4.10024">
        <ele>1150</ele>
        <time>2016-07-24T10:46:53Z</time>
      </trkpt>
      <trkpt lat="45.0731" lon="4.10039">
        <ele>1150</ele>
        <time>2016-07-24T10:47:21Z</time>
      </trkpt>
      <trkpt lat="45.07307" lon="4.10044">
        <ele>1149</ele>
        <time>2016-07-24T10:47:56Z</time>
      </trkpt>
      <trkpt lat="45.07291" lon="4.10062">
        <ele>1149</ele>
        <time>2016-07-24T10:48:16Z</time>
      </trkpt>
      <trkpt lat="45.07285" lon="4.10066">
        <ele>1149</ele>
        <time>2016-07-24T10:48:39Z</time>
      </trkpt>
      <trkpt lat="45.07285" lon="4.10072">
        <ele>1149</ele>
        <time>2016-07-24T10:49:03Z</time>
      </trkpt>
      <trkpt lat="45.07274" lon="4.10085">
        <ele>1150</ele>
        <time>2016-07-24T10:49:28Z</time>
      </trkpt>
      <trkpt lat="45.07266" lon="4.1008">
        <ele>1148</ele>
        <time>2016-07-24T10:49:51Z</time>
      </trkpt>
      <trkpt lat="45.07265" lon="4.10081">
        <ele>1148</ele>
        <time>2016-07-24T10:50:21Z</time>
      </trkpt>
      <trkpt lat="45.07253" lon="4.10086">
        <ele>1148</ele>
        <time>2016-07-24T10:50:51Z</time>
      </trkpt>
      <trkpt lat="45.07254" lon="4.10089">
        <ele>1148</ele>
        <time>2016-07-24T10:51:16Z</time>
      </trkpt>
      <trkpt lat="45.07254" lon="4.1009">
        <ele>1148</ele>
        <time>2016-07-24T10:51:37Z</time>
      </trkpt>
      <trkpt lat="45.07254" lon="4.10089">
        <ele>1148</ele>
        <time>2016-07-24T10:52:11Z</time>
      </trkpt>
      <trkpt lat="45.07254" lon="4.10088">
        <ele>1148</ele>
        <time>2016-07-24T10:52:43Z</time>
      </trkpt>
      <trkpt lat="45.07254" lon="4.10089">
        <ele>1148</ele>
        <time>2016-07-24T10:53:11Z</time>
      </trkpt>
      <trkpt lat="45.07255" lon="4.10087">
        <ele>1148</ele>
        <time>2016-07-24T10:53:38Z</time>
      </trkpt>
      <trkpt lat="45.07255" lon="4.10088">
        <ele>1148</ele>
        <time>2016-07-24T10:53:54Z</time>
      </trkpt>
      <trkpt lat="45.07255" lon="4.10088">
        <ele>1148</ele>
        <time>2016-07-24T10:54:27Z</time>
      </trkpt>
      <trkpt lat="45.07256" lon="4.10088">
        <ele>1148</ele>
        <time>2016-07-24T10:54:47Z</time>
      </trkpt>
      <trkpt lat="45.07256" lon="4.10088">
        <ele>1148</ele>
        <time>2016-07-24T10:55:10Z</time>
      </trkpt>
      <trkpt lat="45.07257" lon="4.10088">
        <ele>1148</ele>
        <time>2016-07-24T10:55:38Z</time>
      </trkpt>
      <trkpt lat="45.07257" lon="4.10087">
        <ele>1148</ele>
        <time>2016-07-24T10:55:59Z</time>
      </trkpt>
      <trkpt lat="45.07258" lon="4.10087">
        <ele>1148</ele>
        <time>2016-07-24T10:56:29Z</time>
      </trkpt>
      <trkpt lat="45.07257" lon="4.10087">
        <ele>1148</ele>
        <time>2016-07-24T10:57:02Z</time>
      </trkpt>
      <trkpt lat="45.07257" lon="4.10088">
        <ele>1148</ele>
        <time>2016-07-24T10:57:33Z</time>
      </trkpt>
      <trkpt lat="45.07257" lon="4.10088">
        <ele>1148</ele>
        <time>2016-07-24T10:58:01Z</time>
      </trkpt>
      <trkpt lat="45.07256" lon="4.10088">
        <ele>1148</ele>
        <time>2016-07-24T10:58:25Z</time>
      </trkpt>
      <trkpt lat="45.07258" lon="4.10087">
        <ele>1148</ele>
        <time>2016-07-24T10:58:48Z</time>
      </trkpt>
      <trkpt lat="45.07259" lon="4.10087">
        <ele>1149</ele>
        <time>2016-07-24T10:59:18Z</time>
      </trkpt>
      <trkpt lat="45.0726" lon="4.10087">
        <ele>1149</ele>
        <time>2016-07-24T10:59:39Z</time>
      </trkpt>
      <trkpt lat="45.07259" lon="4.10086">
        <ele>1149</ele>
        <time>2016-07-24T11:00:01Z</time>
      </trkpt>
      <trkpt lat="45.07259" lon="4.10087">
        <ele>1149</ele>
        <time>2016-07-24T11:00:27Z</time>
      </trkpt>
      <trkpt lat="45.07259" lon="4.10084">
        <ele>1149</ele>
        <time>2016-07-24T11:01:00Z</time>
      </trkpt>
      <trkpt lat="45.07258" lon="4.10085">
        <ele>1148</ele>
        <time>2016-07-24T11:01:32Z</time>
      </trkpt>
      <trkpt lat="45.07258" lon="4.10086">
        <ele>1148</ele>
        <time>2016-07-24T11:01:55Z</time>
      </trkpt>
      <trkpt lat="45.07257" lon="4.10086">
        <ele>1148</ele>
        <time>2016-07-24T11:02:21Z</time>
      </trkpt>
      <trkpt lat="45.07256" lon="4.10088">
        <ele>1148</ele>
        <time>2016-07-24T11:02:48Z</time>
      </trkpt>
      <trkpt lat="45.07256" lon="4.10087">
        <ele>1148</ele>
        <time>2016-07-24T11:03:15Z</time>
      </trkpt>
      <trkpt lat="45.07256" lon="4.10088">
        <ele>1148</ele>
        <time>2016-07-24T11:03:44Z</time>
      </trkpt>
      <trkpt lat="45.07256" lon="4.10087">
        <ele>1148</ele>
        <time>2016-07-24T11:04:09Z</time>
      </trkpt>
      <trkpt lat="45.07257" lon="4.10088">
        <ele>1148</ele>
        <time>2016-07-24T11:04:32Z</time>
      </trkpt>
      <trkpt lat="45.07257" lon="4.10088">
        <ele>1148</ele>
        <time>2016-07-24T11:04:58Z</time>
      </trkpt>
      <trkpt lat="45.07256" lon="4.10087">
        <ele>1148</ele>
        <time>2016-07-24T11:05:18Z</time>
      </trkpt>
      <trkpt lat="45.07257" lon="4.10087">
        <ele>1148</ele>
        <time>2016-07-24T11:05:51Z</time>
      </trkpt>
      <trkpt lat="45.07256" lon="4.10087">
        <ele>1148</ele>
        <time>2016-07-24T11:06:13Z</time>
      </trkpt>
      <trkpt lat="45.07256" lon="4.10086">
        <ele>1148</ele>
        <time>2016-07-24T11:06:42Z</time>
      </trkpt>
      <trkpt lat="45.07255" lon="4.10087">
        <ele>1148</ele>
        <time>2016-07-24T11:07:16Z</time>
      </trkpt>
      <trkpt lat="45.07255" lon="4.10087">
        <ele>1148</ele>
        <time>2016-07-24T11:07:53Z</time>
      </trkpt>
      <trkpt lat="45.07256" lon="4.10087">
        <ele>1148</ele>
        <time>2016-07-24T11:08:31Z</time>
      </trkpt>
      <trkpt lat="45.07256" lon="4.10088">
        <ele>1148</ele>
        <time>2016-07-24T11:09:09Z</time>
      </trkpt>
      <trkpt lat="45.07256" lon="4.10088">
        <ele>1148</ele>
        <time>2016-07-24T11:09:41Z</time>
      </trkpt>
      <trkpt lat="45.07256" lon="4.10088">
        <ele>1148</ele>
        <time>2016-07-24T11:10:02Z</time>
      </trkpt>
      <trkpt lat="45.07256" lon="4.1009">
        <ele>1148</ele>
        <time>2016-07-24T11:10:31Z</time>
      </trkpt>
      <trkpt lat="45.07256" lon="4.10089">
        <ele>1148</ele>
        <time>2016-07-24T11:10:58Z</time>
      </trkpt>
      <trkpt lat="45.07256" lon="4.1009">
        <ele>1148</ele>
        <time>2016-07-24T11:11:04Z</time>
      </trkpt>
      <trkpt lat="45.07256" lon="4.10089">
        <ele>1148</ele>
        <time>2016-07-24T11:11:16Z</time>
      </trkpt>
      <trkpt lat="45.07255" lon="4.1009">
        <ele>1148</ele>
        <time>2016-07-24T11:11:22Z</time>
      </trkpt>
      <trkpt lat="45.07255" lon="4.1009">
        <ele>1148</ele>
        <time>2016-07-24T11:11:26Z</time>
      </trkpt>
      <trkpt lat="45.07255" lon="4.1009">
        <ele>1148</ele>
        <time>2016-07-24T11:11:38Z</time>
      </trkpt>
      <trkpt lat="45.07255" lon="4.1009">
        <ele>1148</ele>
        <time>2016-07-24T11:11:48Z</time>
      </trkpt>
      <trkpt lat="45.07255" lon="4.10091">
        <ele>1148</ele>
        <time>2016-07-24T11:11:51Z</time>
      </trkpt>
      <trkpt lat="45.07254" lon="4.10092">
        <ele>1149</ele>
        <time>2016-07-24T11:12:04Z</time>
      </trkpt>
      <trkpt lat="45.07255" lon="4.10092">
        <ele>1149</ele>
        <time>2016-07-24T11:12:17Z</time>
      </trkpt>
      <trkpt lat="45.07255" lon="4.10092">
        <ele>1149</ele>
        <time>2016-07-24T11:12:31Z</time>
      </trkpt>
      <trkpt lat="45.07255" lon="4.10092">
        <ele>1149</ele>
        <time>2016-07-24T11:12:33Z</time>
      </trkpt>
      <trkpt lat="45.07255" lon="4.10092">
        <ele>1149</ele>
        <time>2016-07-24T11:12:43Z</time>
      </trkpt>
      <trkpt lat="45.07256" lon="4.10092">
        <ele>1149</ele>
        <time>2016-07-24T11:12:57Z</time>
      </trkpt>
      <trkpt lat="45.07256" lon="4.10092">
        <ele>1149</ele>
        <time>2016-07-24T11:13:17Z</time>
      </trkpt>
      <trkpt lat="45.07256" lon="4.10092">
        <ele>1149</ele>
        <time>2016-07-24T11:13:18Z</time>
      </trkpt>
      <trkpt lat="45.07256" lon="4.10091">
        <ele>1149</ele>
        <time>2016-07-24T11:13:27Z</time>
      </trkpt>
      <trkpt lat="45.07255" lon="4.10092">
        <ele>1149</ele>
        <time>2016-07-24T11:13:37Z</time>
      </trkpt>
      <trkpt lat="45.07258" lon="4.10094">
        <ele>1149</ele>
        <time>2016-07-24T11:13:39Z</time>
      </trkpt>
      <trkpt lat="45.07261" lon="4.10096">
        <ele>1149</ele>
        <time>2016-07-24T11:13:56Z</time>
      </trkpt>
      <trkpt lat="45.07265" lon="4.10096">
        <ele>1150</ele>
        <time>2016-07-24T11:14:07Z</time>
      </trkpt>
      <trkpt lat="45.07267" lon="4.10091">
        <ele>1150</ele>
        <time>2016-07-24T11:14:25Z</time>
      </trkpt>
      <trkpt lat="45.07269" lon="4.10091">
        <ele>1150</ele>
        <time>2016-07-24T11:14:28Z</time>
      </trkpt>
      <trkpt lat="45.07261" lon="4.10094">
        <ele>1149</ele>
        <time>2016-07-24T11:14:41Z</time>
      </trkpt>
      <trkpt lat="45.07256" lon="4.10099">
        <ele>1149</ele>
        <time>2016-07-24T11:14:57Z</time>
      </trkpt>
      <trkpt lat="45.07261" lon="4.10107">
        <ele>1150</ele>
        <time>2016-07-24T11:15:15Z</time>
      </trkpt>
      <trkpt lat="45.07262" lon="4.10108">
        <ele>1150</ele>
        <time>2016-07-24T11:15:24Z</time>
      </trkpt>
      <trkpt lat="45.0726" lon="4.1012">
        <ele>1151</ele>
        <time>2016-07-24T11:15:29Z</time>
      </trkpt>
      <trkpt lat="45.07254" lon="4.10136">
        <ele>1151</ele>
        <time>2016-07-24T11:15:48Z</time>
      </trkpt>
      <trkpt lat="45.07237" lon="4.10156">
        <ele>1148</ele>
        <time>2016-07-24T11:16:08Z</time>
      </trkpt>
      <trkpt lat="45.07236" lon="4.10157">
        <ele>1148</ele>
        <time>2016-07-24T11:16:23Z</time>
      </trkpt>
      <trkpt lat="45.07228" lon="4.10167">
        <ele>1150</ele>
        <time>2016-07-24T11:16:39Z</time>
      </trkpt>
      <trkpt lat="45.07221" lon="4.10179">
        <ele>1150</ele>
        <time>2016-07-24T11:16:59Z</time>
      </trkpt>
      <trkpt lat="45.0722" lon="4.10182">
        <ele>1150</ele>
        <time>2016-07-24T11:17:17Z</time>
      </trkpt>
      <trkpt lat="45.07211" lon="4.10196">
        <ele>1150</ele>
        <time>2016-07-24T11:17:42Z</time>
      </trkpt>
      <trkpt lat="45.07204" lon="4.1021">
        <ele>1150</ele>
        <time>2016-07-24T11:18:00Z</time>
      </trkpt>
      <trkpt lat="45.07188" lon="4.10245">
        <ele>1151</ele>
        <time>2016-07-24T11:18:15Z</time>
      </trkpt>
      <trkpt lat="45.07187" lon="4.10249">
        <ele>1151</ele>
        <time>2016-07-24T11:18:29Z</time>
      </trkpt>
      <trkpt lat="45.07178" lon="4.10272">
        <ele>1154</ele>
        <time>2016-07-24T11:18:44Z</time>
      </trkpt>
      <trkpt lat="45.07169" lon="4.10297">
        <ele>1154</ele>
        <time>2016-07-24T11:18:57Z</time>
      </trkpt>
      <trkpt lat="45.07158" lon="4.10325">
        <ele>1152</ele>
        <time>2016-07-24T11:19:12Z</time>
      </trkpt>
      <trkpt lat="45.07155" lon="4.10338">
        <ele>1154</ele>
        <time>2016-07-24T11:19:20Z</time>
      </trkpt>
      <trkpt lat="45.07152" lon="4.10345">
        <ele>1154</ele>
        <time>2016-07-24T11:19:31Z</time>
      </trkpt>
      <trkpt lat="45.07132" lon="4.10372">
        <ele>1155</ele>
        <time>2016-07-24T11:19:43Z</time>
      </trkpt>
      <trkpt lat="45.07113" lon="4.104">
        <ele>1156</ele>
        <time>2016-07-24T11:19:57Z</time>
      </trkpt>
      <trkpt lat="45.07109" lon="4.10403">
        <ele>1156</ele>
        <time>2016-07-24T11:20:12Z</time>
      </trkpt>
      <trkpt lat="45.07108" lon="4.10403">
        <ele>1156</ele>
        <time>2016-07-24T11:20:16Z</time>
      </trkpt>
      <trkpt lat="45.07107" lon="4.10403">
        <ele>1156</ele>
        <time>2016-07-24T11:20:26Z</time>
      </trkpt>
      <trkpt lat="45.07105" lon="4.10404">
        <ele>1156</ele>
        <time>2016-07-24T11:20:45Z</time>
      </trkpt>
      <trkpt lat="45.07105" lon="4.10405">
        <ele>1156</ele>
        <time>2016-07-24T11:21:01Z</time>
      </trkpt>
      <trkpt lat="45.07101" lon="4.10409">
        <ele>1156</ele>
        <time>2016-07-24T11:21:18Z</time>
      </trkpt>
      <trkpt lat="45.071" lon="4.10428">
        <ele>1159</ele>
        <time>2016-07-24T11:21:33Z</time>
      </trkpt>
      <trkpt lat="45.07099" lon="4.10444">
        <ele>1160</ele>
        <time>2016-07-24T11:21:35Z</time>
      </trkpt>
      <trkpt lat="45.07094" lon="4.10462">
        <ele>1161</ele>
        <time>2016-07-24T11:21:43Z</time>
      </trkpt>
      <trkpt lat="45.0709" lon="4.10483">
        <ele>1162</ele>
        <time>2016-07-24T11:21:58Z</time>
      </trkpt>
      <trkpt lat="45.07078" lon="4.10503">
        <ele>1164</ele>
        <time>2016-07-24T11:21:59Z</time>
      </trkpt>
      <trkpt lat="45.07071" lon="4.10513">
        <ele>1165</ele>
        <time>2016-07-24T11:22:12Z</time>
      </trkpt>
      <trkpt lat="45.0706" lon="4.10525">
        <ele>1166</ele>
        <time>2016-07-24T11:22:27Z</time>
      </trkpt>
      <trkpt lat="45.0705" lon="4.10538">
        <ele>1167</ele>
        <time>2016-07-24T11:22:42Z</time>
      </trkpt>
      <trkpt lat="45.07039" lon="4.10553">
        <ele>1167</ele>
        <time>2016-07-24T11:22:57Z</time>
      </trkpt>
      <trkpt lat="45.0703" lon="4.10572">
        <ele>1168</ele>
        <time>2016-07-24T11:23:15Z</time>
      </trkpt>
      <trkpt lat="45.07026" lon="4.10575">
        <ele>1168</ele>
        <time>2016-07-24T11:23:22Z</time>
      </trkpt>
      <trkpt lat="45.07019" lon="4.10591">
        <ele>1173</ele>
        <time>2016-07-24T11:23:39Z</time>
      </trkpt>
      <trkpt lat="45.06998" lon="4.10603">
        <ele>1172</ele>
        <time>2016-07-24T11:23:55Z</time>
      </trkpt>
      <trkpt lat="45.06977" lon="4.10617">
        <ele>1173</ele>
        <time>2016-07-24T11:24:10Z</time>
      </trkpt>
      <trkpt lat="45.06955" lon="4.10629">
        <ele>1173</ele>
        <time>2016-07-24T11:24:24Z</time>
      </trkpt>
      <trkpt lat="45.06955" lon="4.10634">
        <ele>1174</ele>
        <time>2016-07-24T11:24:39Z</time>
      </trkpt>
      <trkpt lat="45.06954" lon="4.10636">
        <ele>1174</ele>
        <time>2016-07-24T11:24:55Z</time>
      </trkpt>
      <trkpt lat="45.0695" lon="4.10645">
        <ele>1174</ele>
        <time>2016-07-24T11:25:10Z</time>
      </trkpt>
      <trkpt lat="45.06939" lon="4.10665">
        <ele>1174</ele>
        <time>2016-07-24T11:25:23Z</time>
      </trkpt>
      <trkpt lat="45.06939" lon="4.10667">
        <ele>1174</ele>
        <time>2016-07-24T11:25:33Z</time>
      </trkpt>
      <trkpt lat="45.06935" lon="4.1069">
        <ele>1180</ele>
        <time>2016-07-24T11:25:46Z</time>
      </trkpt>
      <trkpt lat="45.0693" lon="4.10716">
        <ele>1182</ele>
        <time>2016-07-24T11:25:49Z</time>
      </trkpt>
      <trkpt lat="45.06926" lon="4.10738">
        <ele>1184</ele>
        <time>2016-07-24T11:25:51Z</time>
      </trkpt>
      <trkpt lat="45.06926" lon="4.10748">
        <ele>1185</ele>
        <time>2016-07-24T11:25:54Z</time>
      </trkpt>
      <trkpt lat="45.06921" lon="4.10771">
        <ele>1188</ele>
        <time>2016-07-24T11:26:09Z</time>
      </trkpt>
      <trkpt lat="45.06919" lon="4.10791">
        <ele>1190</ele>
        <time>2016-07-24T11:26:25Z</time>
      </trkpt>
      <trkpt lat="45.06912" lon="4.10825">
        <ele>1191</ele>
        <time>2016-07-24T11:26:34Z</time>
      </trkpt>
      <trkpt lat="45.06912" lon="4.10855">
        <ele>1195</ele>
        <time>2016-07-24T11:26:46Z</time>
      </trkpt>
      <trkpt lat="45.06907" lon="4.10878">
        <ele>1196</ele>
        <time>2016-07-24T11:27:00Z</time>
      </trkpt>
      <trkpt lat="45.06894" lon="4.10894">
        <ele>1197</ele>
        <time>2016-07-24T11:27:03Z</time>
      </trkpt>
      <trkpt lat="45.069" lon="4.10916">
        <ele>1199</ele>
        <time>2016-07-24T11:27:18Z</time>
      </trkpt>
      <trkpt lat="45.06909" lon="4.10939">
        <ele>1205</ele>
        <time>2016-07-24T11:27:33Z</time>
      </trkpt>
      <trkpt lat="45.06917" lon="4.10968">
        <ele>1208</ele>
        <time>2016-07-24T11:27:37Z</time>
      </trkpt>
      <trkpt lat="45.06927" lon="4.10992">
        <ele>1211</ele>
        <time>2016-07-24T11:27:51Z</time>
      </trkpt>
      <trkpt lat="45.06933" lon="4.11006">
        <ele>1215</ele>
        <time>2016-07-24T11:28:07Z</time>
      </trkpt>
      <trkpt lat="45.06935" lon="4.11015">
        <ele>1215</ele>
        <time>2016-07-24T11:28:22Z</time>
      </trkpt>
      <trkpt lat="45.06938" lon="4.11015">
        <ele>1215</ele>
        <time>2016-07-24T11:28:36Z</time>
      </trkpt>
      <trkpt lat="45.06941" lon="4.11017">
        <ele>1215</ele>
        <time>2016-07-24T11:28:51Z</time>
      </trkpt>
      <trkpt lat="45.06945" lon="4.1102">
        <ele>1215</ele>
        <time>2016-07-24T11:29:03Z</time>
      </trkpt>
      <trkpt lat="45.0696" lon="4.11023">
        <ele>1215</ele>
        <time>2016-07-24T11:29:19Z</time>
      </trkpt>
      <trkpt lat="45.06961" lon="4.11024">
        <ele>1215</ele>
        <time>2016-07-24T11:29:35Z</time>
      </trkpt>
      <trkpt lat="45.06964" lon="4.11026">
        <ele>1215</ele>
        <time>2016-07-24T11:29:51Z</time>
      </trkpt>
      <trkpt lat="45.06963" lon="4.11026">
        <ele>1215</ele>
        <time>2016-07-24T11:30:02Z</time>
      </trkpt>
      <trkpt lat="45.06963" lon="4.11027">
        <ele>1215</ele>
        <time>2016-07-24T11:30:06Z</time>
      </trkpt>
      <trkpt lat="45.06963" lon="4.11027">
        <ele>1215</ele>
        <time>2016-07-24T11:30:20Z</time>
      </trkpt>
      <trkpt lat="45.06951" lon="4.11048">
        <ele>1216</ele>
        <time>2016-07-24T11:30:37Z</time>
      </trkpt>
      <trkpt lat="45.06943" lon="4.11071">
        <ele>1216</ele>
        <time>2016-07-24T11:30:54Z</time>
      </trkpt>
      <trkpt lat="45.06942" lon="4.11078">
        <ele>1216</ele>
        <time>2016-07-24T11:31:13Z</time>
      </trkpt>
      <trkpt lat="45.06941" lon="4.11101">
        <ele>1220</ele>
        <time>2016-07-24T11:31:25Z</time>
      </trkpt>
      <trkpt lat="45.06945" lon="4.11132">
        <ele>1222</ele>
        <time>2016-07-24T11:31:46Z</time>
      </trkpt>
      <trkpt lat="45.06948" lon="4.1116">
        <ele>1222</ele>
        <time>2016-07-24T11:31:52Z</time>
      </trkpt>
      <trkpt lat="45.0695" lon="4.11186">
        <ele>1227</ele>
        <time>2016-07-24T11:32:04Z</time>
      </trkpt>
      <trkpt lat="45.06951" lon="4.11214">
        <ele>1228</ele>
        <time>2016-07-24T11:32:19Z</time>
      </trkpt>
      <trkpt lat="45.06949" lon="4.11235">
        <ele>1228</ele>
        <time>2016-07-24T11:32:32Z</time>
      </trkpt>
      <trkpt lat="45.06945" lon="4.11264">
        <ele>1234</ele>
        <time>2016-07-24T11:32:45Z</time>
      </trkpt>
      <trkpt lat="45.06939" lon="4.11291">
        <ele>1235</ele>
        <time>2016-07-24T11:32:59Z</time>
      </trkpt>
      <trkpt lat="45.06932" lon="4.11323">
        <ele>1234</ele>
        <time>2016-07-24T11:33:03Z</time>
      </trkpt>
      <trkpt lat="45.06925" lon="4.11342">
        <ele>1238</ele>
        <time>2016-07-24T11:33:17Z</time>
      </trkpt>
      <trkpt lat="45.06922" lon="4.11349">
        <ele>1239</ele>
        <time>2016-07-24T11:33:29Z</time>
      </trkpt>
      <trkpt lat="45.06914" lon="4.11371">
        <ele>1226</ele>
        <time>2016-07-24T11:33:36Z</time>
      </trkpt>
      <trkpt lat="45.06909" lon="4.11393">
        <ele>1229</ele>
        <time>2016-07-24T11:33:48Z</time>
      </trkpt>
      <trkpt lat="45.06909" lon="4.11395">
        <ele>1230</ele>
        <time>2016-07-24T11:33:59Z</time>
      </trkpt>
      <trkpt lat="45.0691" lon="4.11398">
        <ele>1231</ele>
        <time>2016-07-24T11:34:11Z</time>
      </trkpt>
      <trkpt lat="45.06911" lon="4.114">
        <ele>1232</ele>
        <time>2016-07-24T11:34:22Z</time>
      </trkpt>
      <trkpt lat="45.06911" lon="4.11402">
        <ele>1233</ele>
        <time>2016-07-24T11:34:35Z</time>
      </trkpt>
      <trkpt lat="45.06911" lon="4.1141">
        <ele>1236</ele>
        <time>2016-07-24T11:34:50Z</time>
      </trkpt>
      <trkpt lat="45.0691" lon="4.11431">
        <ele>1237</ele>
        <time>2016-07-24T11:34:52Z</time>
      </trkpt>
      <trkpt lat="45.06911" lon="4.11453">
        <ele>1235</ele>
        <time>2016-07-24T11:34:59Z</time>
      </trkpt>
      <trkpt lat="45.0691" lon="4.11476">
        <ele>1238</ele>
        <time>2016-07-24T11:35:22Z</time>
      </trkpt>
      <trkpt lat="45.06912" lon="4.11495">
        <ele>1245</ele>
        <time>2016-07-24T11:35:39Z</time>
      </trkpt>
      <trkpt lat="45.06915" lon="4.11516">
        <ele>1244</ele>
        <time>2016-07-24T11:35:55Z</time>
      </trkpt>
      <trkpt lat="45.06917" lon="4.11524">
        <ele>1259</ele>
        <time>2016-07-24T11:36:12Z</time>
      </trkpt>
      <trkpt lat="45.0692" lon="4.11543">
        <ele>1261</ele>
        <time>2016-07-24T11:36:28Z</time>
      </trkpt>
      <trkpt lat="45.06923" lon="4.1156">
        <ele>1261</ele>
        <time>2016-07-24T11:36:42Z</time>
      </trkpt>
      <trkpt lat="45.06923" lon="4.11566">
        <ele>1260</ele>
        <time>2016-07-24T11:36:44Z</time>
      </trkpt>
      <trkpt lat="45.06925" lon="4.11586">
        <ele>1259</ele>
        <time>2016-07-24T11:36:56Z</time>
      </trkpt>
      <trkpt lat="45.06928" lon="4.116">
        <ele>1263</ele>
        <time>2016-07-24T11:37:07Z</time>
      </trkpt>
      <trkpt lat="45.06934" lon="4.116">
        <ele>1265</ele>
        <time>2016-07-24T11:37:19Z</time>
      </trkpt>
      <trkpt lat="45.06935" lon="4.116">
        <ele>1265</ele>
        <time>2016-07-24T11:37:24Z</time>
      </trkpt>
      <trkpt lat="45.06933" lon="4.11603">
        <ele>1265</ele>
        <time>2016-07-24T11:37:41Z</time>
      </trkpt>
      <trkpt lat="45.06932" lon="4.11606">
        <ele>1265</ele>
        <time>2016-07-24T11:37:56Z</time>
      </trkpt>
      <trkpt lat="45.0693" lon="4.11609">
        <ele>1265</ele>
        <time>2016-07-24T11:38:00Z</time>
      </trkpt>
      <trkpt lat="45.06928" lon="4.11621">
        <ele>1266</ele>
        <time>2016-07-24T11:38:15Z</time>
      </trkpt>
      <trkpt lat="45.0692" lon="4.11663">
        <ele>1261</ele>
        <time>2016-07-24T11:38:21Z</time>
      </trkpt>
      <trkpt lat="45.06917" lon="4.11695">
        <ele>1270</ele>
        <time>2016-07-24T11:38:25Z</time>
      </trkpt>
      <trkpt lat="45.06915" lon="4.11723">
        <ele>1258</ele>
        <time>2016-07-24T11:38:29Z</time>
      </trkpt>
      <trkpt lat="45.06909" lon="4.11753">
        <ele>1265</ele>
        <time>2016-07-24T11:38:34Z</time>
      </trkpt>
      <trkpt lat="45.06909" lon="4.1178">
        <ele>1264</ele>
        <time>2016-07-24T11:38:52Z</time>
      </trkpt>
      <trkpt lat="45.06913" lon="4.11798">
        <ele>1265</ele>
        <time>2016-07-24T11:39:09Z</time>
      </trkpt>
      <trkpt lat="45.06914" lon="4.118">
        <ele>1265</ele>
        <time>2016-07-24T11:39:22Z</time>
      </trkpt>
      <trkpt lat="45.06916" lon="4.11808">
        <ele>1266</ele>
        <time>2016-07-24T11:39:35Z</time>
      </trkpt>
      <trkpt lat="45.06918" lon="4.11811">
        <ele>1276</ele>
        <time>2016-07-24T11:39:46Z</time>
      </trkpt>
      <trkpt lat="45.06921" lon="4.11819">
        <ele>1276</ele>
        <time>2016-07-24T11:40:02Z</time>
      </trkpt>
      <trkpt lat="45.06923" lon="4.11824">
        <ele>1275</ele>
        <time>2016-07-24T11:40:15Z</time>
      </trkpt>
      <trkpt lat="45.06936" lon="4.11843">
        <ele>1279</ele>
        <time>2016-07-24T11:40:19Z</time>
      </trkpt>
      <trkpt lat="45.06943" lon="4.11863">
        <ele>1281</ele>
        <time>2016-07-24T11:40:21Z</time>
      </trkpt>
      <trkpt lat="45.06945" lon="4.11869">
        <ele>1281</ele>
        <time>2016-07-24T11:40:37Z</time>
      </trkpt>
      <trkpt lat="45.06947" lon="4.11894">
        <ele>1282</ele>
        <time>2016-07-24T11:40:49Z</time>
      </trkpt>
      <trkpt lat="45.06949" lon="4.11904">
        <ele>1282</ele>
        <time>2016-07-24T11:40:56Z</time>
      </trkpt>
      <trkpt lat="45.06951" lon="4.11908">
        <ele>1282</ele>
        <time>2016-07-24T11:41:12Z</time>
      </trkpt>
      <trkpt lat="45.06953" lon="4.11914">
        <ele>1282</ele>
        <time>2016-07-24T11:41:25Z</time>
      </trkpt>
      <trkpt lat="45.06956" lon="4.11921">
        <ele>1284</ele>
        <time>2016-07-24T11:41:33Z</time>
      </trkpt>
      <trkpt lat="45.06957" lon="4.1195">
        <ele>1285</ele>
        <time>2016-07-24T11:41:49Z</time>
      </trkpt>
      <trkpt lat="45.06959" lon="4.11981">
        <ele>1285</ele>
        <time>2016-07-24T11:42:05Z</time>
      </trkpt>
      <trkpt lat="45.06962" lon="4.11999">
        <ele>1285</ele>
        <time>2016-07-24T11:42:18Z</time>
      </trkpt>
      <trkpt lat="45.06967" lon="4.12019">
        <ele>1286</ele>
        <time>2016-07-24T11:42:26Z</time>
      </trkpt>
      <trkpt lat="45.0697" lon="4.12029">
        <ele>1285</ele>
        <time>2016-07-24T11:42:38Z</time>
      </trkpt>
      <trkpt lat="45.06977" lon="4.1206">
        <ele>1286</ele>
        <time>2016-07-24T11:42:42Z</time>
      </trkpt>
      <trkpt lat="45.06983" lon="4.12084">
        <ele>1284</ele>
        <time>2016-07-24T11:42:58Z</time>
      </trkpt>
      <trkpt lat="45.06985" lon="4.1209">
        <ele>1284</ele>
        <time>2016-07-24T11:43:08Z</time>
      </trkpt>
      <trkpt lat="45.06986" lon="4.12093">
        <ele>1284</ele>
        <time>2016-07-24T11:43:21Z</time>
      </trkpt>
      <trkpt lat="45.0699" lon="4.12118">
        <ele>1282</ele>
        <time>2016-07-24T11:43:34Z</time>
      </trkpt>
      <trkpt lat="45.06998" lon="4.12139">
        <ele>1281</ele>
        <time>2016-07-24T11:43:49Z</time>
      </trkpt>
      <trkpt lat="45.07002" lon="4.1215">
        <ele>1286</ele>
        <time>2016-07-24T11:43:53Z</time>
      </trkpt>
      <trkpt lat="45.07013" lon="4.12178">
        <ele>1283</ele>
        <time>2016-07-24T11:44:10Z</time>
      </trkpt>
      <trkpt lat="45.07021" lon="4.12197">
        <ele>1283</ele>
        <time>2016-07-24T11:44:22Z</time>
      </trkpt>
      <trkpt lat="45.07028" lon="4.12209">
        <ele>1283</ele>
        <time>2016-07-24T11:44:27Z</time>
      </trkpt>
      <trkpt lat="45.07042" lon="4.12231">
        <ele>1283</ele>
        <time>2016-07-24T11:44:37Z</time>
      </trkpt>
      <trkpt lat="45.07052" lon="4.12256">
        <ele>1280</ele>
        <time>2016-07-24T11:44:42Z</time>
      </trkpt>
      <trkpt lat="45.07058" lon="4.12276">
        <ele>1279</ele>
        <time>2016-07-24T11:44:58Z</time>
      </trkpt>
      <trkpt lat="45.07062" lon="4.12289">
        <ele>1279</ele>
        <time>2016-07-24T11:45:07Z</time>
      </trkpt>
      <trkpt lat="45.07074" lon="4.12306">
        <ele>1279</ele>
        <time>2016-07-24T11:45:24Z</time>
      </trkpt>
      <trkpt lat="45.07078" lon="4.12311">
        <ele>1279</ele>
        <time>2016-07-24T11:45:30Z</time>
      </trkpt>
      <trkpt lat="45.07094" lon="4.1233">
        <ele>1281</ele>
        <time>2016-07-24T11:45:34Z</time>
      </trkpt>
      <trkpt lat="45.07105" lon="4.1234">
        <ele>1279</ele>
        <time>2016-07-24T11:45:37Z</time>
      </trkpt>
      <trkpt lat="45.0711" lon="4.12353">
        <ele>1279</ele>
        <time>2016-07-24T11:45:51Z</time>
      </trkpt>
      <trkpt lat="45.07118" lon="4.12368">
        <ele>1279</ele>
        <time>2016-07-24T11:45:53Z</time>
      </trkpt>
      <trkpt lat="45.07126" lon="4.12384">
        <ele>1279</ele>
        <time>2016-07-24T11:46:06Z</time>
      </trkpt>
      <trkpt lat="45.07129" lon="4.12389">
        <ele>1279</ele>
        <time>2016-07-24T11:46:15Z</time>
      </trkpt>
      <trkpt lat="45.07142" lon="4.12413">
        <ele>1278</ele>
        <time>2016-07-24T11:46:20Z</time>
      </trkpt>
      <trkpt lat="45.0715" lon="4.1243">
        <ele>1275</ele>
        <time>2016-07-24T11:46:36Z</time>
      </trkpt>
      <trkpt lat="45.07149" lon="4.12431">
        <ele>1275</ele>
        <time>2016-07-24T14:20:14Z</time>
      </trkpt>
      <trkpt lat="45.07158" lon="4.1245">
        <ele>1274.1</ele>
        <time>2016-07-24T14:20:19Z</time>
      </trkpt>
      <trkpt lat="45.07154" lon="4.12459">
        <ele>1273.5</ele>
        <time>2016-07-24T14:20:36Z</time>
      </trkpt>
      <trkpt lat="45.07148" lon="4.12478">
        <ele>1272.4</ele>
        <time>2016-07-24T14:20:50Z</time>
      </trkpt>
      <trkpt lat="45.07138" lon="4.12495">
        <ele>1272.1</ele>
        <time>2016-07-24T14:20:54Z</time>
      </trkpt>
      <trkpt lat="45.07128" lon="4.12517">
        <ele>1270.1</ele>
        <time>2016-07-24T14:20:57Z</time>
      </trkpt>
      <trkpt lat="45.07116" lon="4.12549">
        <ele>1270</ele>
        <time>2016-07-24T14:21:12Z</time>
      </trkpt>
      <trkpt lat="45.07106" lon="4.12593">
        <ele>1269.7</ele>
        <time>2016-07-24T14:21:22Z</time>
      </trkpt>
      <trkpt lat="45.07096" lon="4.12639">
        <ele>1270.2</ele>
        <time>2016-07-24T14:21:37Z</time>
      </trkpt>
      <trkpt lat="45.07087" lon="4.12672">
        <ele>1270.6</ele>
        <time>2016-07-24T14:21:39Z</time>
      </trkpt>
      <trkpt lat="45.07079" lon="4.12698">
        <ele>1272.9</ele>
        <time>2016-07-24T14:21:42Z</time>
      </trkpt>
      <trkpt lat="45.07071" lon="4.12705">
        <ele>1273.2</ele>
        <time>2016-07-24T14:21:53Z</time>
      </trkpt>
      <trkpt lat="45.06999" lon="4.12703">
        <ele>1276.4</ele>
        <time>2016-07-24T14:22:06Z</time>
      </trkpt>
      <trkpt lat="45.06992" lon="4.12719">
        <ele>1277.1</ele>
        <time>2016-07-24T14:22:21Z</time>
      </trkpt>
      <trkpt lat="45.06953" lon="4.12719">
        <ele>1277.1</ele>
        <time>2016-07-24T14:22:34Z</time>
      </trkpt>
      <trkpt lat="45.06934" lon="4.12723">
        <ele>1277.3</ele>
        <time>2016-07-24T14:22:46Z</time>
      </trkpt>
      <trkpt lat="45.06927" lon="4.12731">
        <ele>1277.7</ele>
        <time>2016-07-24T14:22:52Z</time>
      </trkpt>
      <trkpt lat="45.06919" lon="4.1274">
        <ele>1278.2</ele>
        <time>2016-07-24T14:23:06Z</time>
      </trkpt>
      <trkpt lat="45.06907" lon="4.12737">
        <ele>1277.6</ele>
        <time>2016-07-24T14:23:12Z</time>
      </trkpt>
      <trkpt lat="45.06893" lon="4.12736">
        <ele>1277.1</ele>
        <time>2016-07-24T14:23:30Z</time>
      </trkpt>
      <trkpt lat="45.06873" lon="4.12742">
        <ele>1276.8</ele>
        <time>2016-07-24T14:23:40Z</time>
      </trkpt>
      <trkpt lat="45.0686" lon="4.12745">
        <ele>1276.7</ele>
        <time>2016-07-24T14:23:47Z</time>
      </trkpt>
      <trkpt lat="45.06853" lon="4.12749">
        <ele>1276.7</ele>
        <time>2016-07-24T14:24:03Z</time>
      </trkpt>
      <trkpt lat="45.06851" lon="4.12749">
        <ele>1276.7</ele>
        <time>2016-07-24T14:24:09Z</time>
      </trkpt>
      <trkpt lat="45.06839" lon="4.12817">
        <ele>1280.3</ele>
        <time>2016-07-24T14:24:23Z</time>
      </trkpt>
      <trkpt lat="45.0681" lon="4.12807">
        <ele>1279.9</ele>
        <time>2016-07-24T14:24:30Z</time>
      </trkpt>
      <trkpt lat="45.0679" lon="4.12801">
        <ele>1279.9</ele>
        <time>2016-07-24T14:24:39Z</time>
      </trkpt>
      <trkpt lat="45.06791" lon="4.12784">
        <ele>1279.6</ele>
        <time>2016-07-24T14:24:41Z</time>
      </trkpt>
      <trkpt lat="45.06783" lon="4.12766">
        <ele>1279.6</ele>
        <time>2016-07-24T14:24:57Z</time>
      </trkpt>
      <trkpt lat="45.06775" lon="4.12753">
        <ele>1279.6</ele>
        <time>2016-07-24T14:25:09Z</time>
      </trkpt>
      <trkpt lat="45.06758" lon="4.12739">
        <ele>1278.6</ele>
        <time>2016-07-24T14:25:20Z</time>
      </trkpt>
      <trkpt lat="45.06742" lon="4.12735">
        <ele>1278.6</ele>
        <time>2016-07-24T14:25:33Z</time>
      </trkpt>
      <trkpt lat="45.06727" lon="4.12732">
        <ele>1278.1</ele>
        <time>2016-07-24T14:25:40Z</time>
      </trkpt>
      <trkpt lat="45.06714" lon="4.12721">
        <ele>1277.5</ele>
        <time>2016-07-24T14:25:52Z</time>
      </trkpt>
      <trkpt lat="45.06708" lon="4.1271">
        <ele>1277</ele>
        <time>2016-07-24T14:26:04Z</time>
      </trkpt>
      <trkpt lat="45.06701" lon="4.12687">
        <ele>1276.1</ele>
        <time>2016-07-24T14:26:05Z</time>
      </trkpt>
      <trkpt lat="45.06699" lon="4.12675">
        <ele>1275.6</ele>
        <time>2016-07-24T14:26:16Z</time>
      </trkpt>
      <trkpt lat="45.0669" lon="4.12661">
        <ele>1271.6</ele>
        <time>2016-07-24T14:26:30Z</time>
      </trkpt>
      <trkpt lat="45.06682" lon="4.1266">
        <ele>1271.6</ele>
        <time>2016-07-24T14:26:42Z</time>
      </trkpt>
      <trkpt lat="45.06665" lon="4.12653">
        <ele>1270.2</ele>
        <time>2016-07-24T14:27:03Z</time>
      </trkpt>
      <trkpt lat="45.06655" lon="4.12642">
        <ele>1269</ele>
        <time>2016-07-24T14:27:29Z</time>
      </trkpt>
      <trkpt lat="45.06651" lon="4.12629">
        <ele>1268.1</ele>
        <time>2016-07-24T14:27:51Z</time>
      </trkpt>
      <trkpt lat="45.06648" lon="4.12601">
        <ele>1266.8</ele>
        <time>2016-07-24T14:28:19Z</time>
      </trkpt>
      <trkpt lat="45.06644" lon="4.12578">
        <ele>1263.8</ele>
        <time>2016-07-24T14:28:38Z</time>
      </trkpt>
      <trkpt lat="45.06634" lon="4.12543">
        <ele>1262.8</ele>
        <time>2016-07-24T14:28:58Z</time>
      </trkpt>
      <trkpt lat="45.06624" lon="4.12513">
        <ele>1262.1</ele>
        <time>2016-07-24T14:29:24Z</time>
      </trkpt>
      <trkpt lat="45.06614" lon="4.12488">
        <ele>1258.7</ele>
        <time>2016-07-24T14:29:50Z</time>
      </trkpt>
      <trkpt lat="45.06605" lon="4.12473">
        <ele>1258.4</ele>
        <time>2016-07-24T14:30:05Z</time>
      </trkpt>
      <trkpt lat="45.06592" lon="4.12462">
        <ele>1258</ele>
        <time>2016-07-24T14:30:19Z</time>
      </trkpt>
      <trkpt lat="45.06565" lon="4.12452">
        <ele>1257.4</ele>
        <time>2016-07-24T14:30:32Z</time>
      </trkpt>
      <trkpt lat="45.06552" lon="4.12445">
        <ele>1257.3</ele>
        <time>2016-07-24T14:30:44Z</time>
      </trkpt>
      <trkpt lat="45.06545" lon="4.12432">
        <ele>1257</ele>
        <time>2016-07-24T14:30:56Z</time>
      </trkpt>
      <trkpt lat="45.06538" lon="4.12427">
        <ele>1256.9</ele>
        <time>2016-07-24T14:31:10Z</time>
      </trkpt>
      <trkpt lat="45.06522" lon="4.1242">
        <ele>1256.5</ele>
        <time>2016-07-24T14:31:25Z</time>
      </trkpt>
      <trkpt lat="45.0651" lon="4.1241">
        <ele>1253.6</ele>
        <time>2016-07-24T14:31:38Z</time>
      </trkpt>
      <trkpt lat="45.06499" lon="4.12392">
        <ele>1251</ele>
        <time>2016-07-24T14:31:51Z</time>
      </trkpt>
      <trkpt lat="45.06491" lon="4.1238">
        <ele>1249.8</ele>
        <time>2016-07-24T14:32:04Z</time>
      </trkpt>
      <trkpt lat="45.06481" lon="4.1236">
        <ele>1248.5</ele>
        <time>2016-07-24T14:32:17Z</time>
      </trkpt>
      <trkpt lat="45.06478" lon="4.12344">
        <ele>1247.9</ele>
        <time>2016-07-24T14:32:29Z</time>
      </trkpt>
      <trkpt lat="45.06479" lon="4.12328">
        <ele>1242</ele>
        <time>2016-07-24T14:32:40Z</time>
      </trkpt>
      <trkpt lat="45.06477" lon="4.12318">
        <ele>1240.9</ele>
        <time>2016-07-24T14:32:50Z</time>
      </trkpt>
      <trkpt lat="45.06472" lon="4.12309">
        <ele>1239.6</ele>
        <time>2016-07-24T14:33:01Z</time>
      </trkpt>
      <trkpt lat="45.06446" lon="4.12268">
        <ele>1234.4</ele>
        <time>2016-07-24T14:33:12Z</time>
      </trkpt>
      <trkpt lat="45.06429" lon="4.1224">
        <ele>1226.1</ele>
        <time>2016-07-24T14:33:24Z</time>
      </trkpt>
      <trkpt lat="45.06411" lon="4.12211">
        <ele>1219.9</ele>
        <time>2016-07-24T14:33:34Z</time>
      </trkpt>
      <trkpt lat="45.06386" lon="4.12174">
        <ele>1217.4</ele>
        <time>2016-07-24T14:33:43Z</time>
      </trkpt>
      <trkpt lat="45.06364" lon="4.12135">
        <ele>1210.1</ele>
        <time>2016-07-24T14:33:56Z</time>
      </trkpt>
      <trkpt lat="45.06359" lon="4.12126">
        <ele>1209.5</ele>
        <time>2016-07-24T14:34:06Z</time>
      </trkpt>
      <trkpt lat="45.06344" lon="4.12096">
        <ele>1205.5</ele>
        <time>2016-07-24T14:34:17Z</time>
      </trkpt>
      <trkpt lat="45.06334" lon="4.12072">
        <ele>1202.6</ele>
        <time>2016-07-24T14:34:27Z</time>
      </trkpt>
      <trkpt lat="45.0633" lon="4.12061">
        <ele>1201.4</ele>
        <time>2016-07-24T14:34:37Z</time>
      </trkpt>
      <trkpt lat="45.0633" lon="4.12046">
        <ele>1201.2</ele>
        <time>2016-07-24T14:34:47Z</time>
      </trkpt>
      <trkpt lat="45.06332" lon="4.12033">
        <ele>1200.7</ele>
        <time>2016-07-24T14:34:59Z</time>
      </trkpt>
      <trkpt lat="45.06334" lon="4.12021">
        <ele>1202</ele>
        <time>2016-07-24T14:35:10Z</time>
      </trkpt>
      <trkpt lat="45.06333" lon="4.12006">
        <ele>1199.5</ele>
        <time>2016-07-24T14:35:17Z</time>
      </trkpt>
      <trkpt lat="45.06326" lon="4.11981">
        <ele>1195.9</ele>
        <time>2016-07-24T14:35:27Z</time>
      </trkpt>
      <trkpt lat="45.06316" lon="4.11964">
        <ele>1194.7</ele>
        <time>2016-07-24T14:35:39Z</time>
      </trkpt>
      <trkpt lat="45.06309" lon="4.11949">
        <ele>1193.8</ele>
        <time>2016-07-24T14:35:50Z</time>
      </trkpt>
      <trkpt lat="45.06305" lon="4.11931">
        <ele>1193</ele>
        <time>2016-07-24T14:36:02Z</time>
      </trkpt>
      <trkpt lat="45.06302" lon="4.11904">
        <ele>1186</ele>
        <time>2016-07-24T14:36:15Z</time>
      </trkpt>
      <trkpt lat="45.06297" lon="4.11854">
        <ele>1182.6</ele>
        <time>2016-07-24T14:36:29Z</time>
      </trkpt>
      <trkpt lat="45.06283" lon="4.11855">
        <ele>1182.6</ele>
        <time>2016-07-24T14:36:43Z</time>
      </trkpt>
      <trkpt lat="45.06264" lon="4.11852">
        <ele>1181.7</ele>
        <time>2016-07-24T14:37:02Z</time>
      </trkpt>
      <trkpt lat="45.06248" lon="4.11848">
        <ele>1181.8</ele>
        <time>2016-07-24T14:37:11Z</time>
      </trkpt>
      <trkpt lat="45.06226" lon="4.11839">
        <ele>1183.1</ele>
        <time>2016-07-24T14:37:30Z</time>
      </trkpt>
      <trkpt lat="45.06204" lon="4.11826">
        <ele>1175.6</ele>
        <time>2016-07-24T14:37:43Z</time>
      </trkpt>
      <trkpt lat="45.06191" lon="4.11814">
        <ele>1175.5</ele>
        <time>2016-07-24T14:38:01Z</time>
      </trkpt>
      <trkpt lat="45.06179" lon="4.11796">
        <ele>1174.1</ele>
        <time>2016-07-24T14:38:23Z</time>
      </trkpt>
      <trkpt lat="45.0617" lon="4.11777">
        <ele>1172</ele>
        <time>2016-07-24T14:38:32Z</time>
      </trkpt>
      <trkpt lat="45.06163" lon="4.11754">
        <ele>1170.6</ele>
        <time>2016-07-24T14:38:36Z</time>
      </trkpt>
      <trkpt lat="45.06159" lon="4.11732">
        <ele>1168.3</ele>
        <time>2016-07-24T14:38:47Z</time>
      </trkpt>
      <trkpt lat="45.06158" lon="4.11706">
        <ele>1166.7</ele>
        <time>2016-07-24T14:38:57Z</time>
      </trkpt>
      <trkpt lat="45.06159" lon="4.11677">
        <ele>1162.4</ele>
        <time>2016-07-24T14:39:07Z</time>
      </trkpt>
      <trkpt lat="45.06158" lon="4.11654">
        <ele>1158.1</ele>
        <time>2016-07-24T14:39:20Z</time>
      </trkpt>
      <trkpt lat="45.06157" lon="4.11628">
        <ele>1156.8</ele>
        <time>2016-07-24T14:39:34Z</time>
      </trkpt>
      <trkpt lat="45.06152" lon="4.11604">
        <ele>1154.3</ele>
        <time>2016-07-24T14:39:47Z</time>
      </trkpt>
      <trkpt lat="45.06139" lon="4.11565">
        <ele>1149.2</ele>
        <time>2016-07-24T14:40:01Z</time>
      </trkpt>
      <trkpt lat="45.06134" lon="4.11545">
        <ele>1148.8</ele>
        <time>2016-07-24T14:40:14Z</time>
      </trkpt>
      <trkpt lat="45.0613" lon="4.11526">
        <ele>1148.1</ele>
        <time>2016-07-24T14:40:32Z</time>
      </trkpt>
      <trkpt lat="45.06122" lon="4.11502">
        <ele>1148</ele>
        <time>2016-07-24T14:40:54Z</time>
      </trkpt>
      <trkpt lat="45.06106" lon="4.11462">
        <ele>1143</ele>
        <time>2016-07-24T14:41:08Z</time>
      </trkpt>
      <trkpt lat="45.06106" lon="4.1146">
        <ele>1143</ele>
        <time>2016-07-24T14:41:37Z</time>
      </trkpt>
      <trkpt lat="45.06101" lon="4.11437">
        <ele>1142.6</ele>
        <time>2016-07-24T14:42:09Z</time>
      </trkpt>
      <trkpt lat="45.06103" lon="4.11408">
        <ele>1140.8</ele>
        <time>2016-07-24T14:42:44Z</time>
      </trkpt>
      <trkpt lat="45.06103" lon="4.11404">
        <ele>1140.7</ele>
        <time>2016-07-24T14:43:17Z</time>
      </trkpt>
      <trkpt lat="45.06104" lon="4.11377">
        <ele>1140.2</ele>
        <time>2016-07-24T14:43:55Z</time>
      </trkpt>
      <trkpt lat="45.06104" lon="4.11347">
        <ele>1141.3</ele>
        <time>2016-07-24T14:44:30Z</time>
      </trkpt>
      <trkpt lat="45.06105" lon="4.11327">
        <ele>1140.6</ele>
        <time>2016-07-24T14:45:05Z</time>
      </trkpt>
      <trkpt lat="45.06104" lon="4.11301">
        <ele>1139.2</ele>
        <time>2016-07-24T14:45:21Z</time>
      </trkpt>
      <trkpt lat="45.06102" lon="4.11281">
        <ele>1139.3</ele>
        <time>2016-07-24T14:45:30Z</time>
      </trkpt>
      <trkpt lat="45.06098" lon="4.1125">
        <ele>1138.9</ele>
        <time>2016-07-24T14:45:39Z</time>
      </trkpt>
      <trkpt lat="45.06096" lon="4.1124">
        <ele>1138</ele>
        <time>2016-07-24T14:45:52Z</time>
      </trkpt>
      <trkpt lat="45.061" lon="4.11212">
        <ele>1132.2</ele>
        <time>2016-07-24T14:46:04Z</time>
      </trkpt>
      <trkpt lat="45.06102" lon="4.11189">
        <ele>1130.5</ele>
        <time>2016-07-24T14:46:16Z</time>
      </trkpt>
      <trkpt lat="45.06101" lon="4.11163">
        <ele>1123.9</ele>
        <time>2016-07-24T14:46:28Z</time>
      </trkpt>
      <trkpt lat="45.06099" lon="4.11148">
        <ele>1121.8</ele>
        <time>2016-07-24T14:46:39Z</time>
      </trkpt>
      <trkpt lat="45.06099" lon="4.11147">
        <ele>1121.7</ele>
        <time>2016-07-24T14:46:54Z</time>
      </trkpt>
      <trkpt lat="45.06087" lon="4.11116">
        <ele>1117.4</ele>
        <time>2016-07-24T14:46:55Z</time>
      </trkpt>
      <trkpt lat="45.06082" lon="4.11098">
        <ele>1126.6</ele>
        <time>2016-07-24T14:47:00Z</time>
      </trkpt>
      <trkpt lat="45.06077" lon="4.11089">
        <ele>1123.2</ele>
        <time>2016-07-24T14:47:11Z</time>
      </trkpt>
      <trkpt lat="45.06037" lon="4.11033">
        <ele>1116</ele>
        <time>2016-07-24T14:47:22Z</time>
      </trkpt>
      <trkpt lat="45.06031" lon="4.1102">
        <ele>1114.9</ele>
        <time>2016-07-24T14:47:32Z</time>
      </trkpt>
      <trkpt lat="45.06021" lon="4.11008">
        <ele>1114.2</ele>
        <time>2016-07-24T14:47:43Z</time>
      </trkpt>
      <trkpt lat="45.06002" lon="4.10993">
        <ele>1107.2</ele>
        <time>2016-07-24T14:47:54Z</time>
      </trkpt>
      <trkpt lat="45.05986" lon="4.10983">
        <ele>1109.6</ele>
        <time>2016-07-24T14:48:04Z</time>
      </trkpt>
      <trkpt lat="45.05978" lon="4.10975">
        <ele>1108.8</ele>
        <time>2016-07-24T14:48:18Z</time>
      </trkpt>
      <trkpt lat="45.05973" lon="4.10965">
        <ele>1107.6</ele>
        <time>2016-07-24T14:48:28Z</time>
      </trkpt>
      <trkpt lat="45.0597" lon="4.1095">
        <ele>1105.1</ele>
        <time>2016-07-24T14:48:42Z</time>
      </trkpt>
      <trkpt lat="45.05967" lon="4.10925">
        <ele>1101.6</ele>
        <time>2016-07-24T14:48:56Z</time>
      </trkpt>
      <trkpt lat="45.05965" lon="4.10899">
        <ele>1085.9</ele>
        <time>2016-07-24T14:49:09Z</time>
      </trkpt>
      <trkpt lat="45.05967" lon="4.10872">
        <ele>1083.5</ele>
        <time>2016-07-24T14:49:20Z</time>
      </trkpt>
      <trkpt lat="45.05969" lon="4.10859">
        <ele>1082.2</ele>
        <time>2016-07-24T14:49:32Z</time>
      </trkpt>
      <trkpt lat="45.05974" lon="4.10846">
        <ele>1080.9</ele>
        <time>2016-07-24T14:49:42Z</time>
      </trkpt>
      <trkpt lat="45.05964" lon="4.10839">
        <ele>1080.9</ele>
        <time>2016-07-24T14:49:56Z</time>
      </trkpt>
      <trkpt lat="45.05945" lon="4.10828">
        <ele>1072</ele>
        <time>2016-07-24T14:50:07Z</time>
      </trkpt>
      <trkpt lat="45.05934" lon="4.1082">
        <ele>1072</ele>
        <time>2016-07-24T14:50:20Z</time>
      </trkpt>
      <trkpt lat="45.0593" lon="4.10816">
        <ele>1071.9</ele>
        <time>2016-07-24T14:50:36Z</time>
      </trkpt>
      <trkpt lat="45.05926" lon="4.10809">
        <ele>1071.3</ele>
        <time>2016-07-24T14:50:51Z</time>
      </trkpt>
      <trkpt lat="45.05922" lon="4.108">
        <ele>1070.4</ele>
        <time>2016-07-24T14:51:06Z</time>
      </trkpt>
      <trkpt lat="45.05924" lon="4.10794">
        <ele>1069.9</ele>
        <time>2016-07-24T14:51:17Z</time>
      </trkpt>
      <trkpt lat="45.05925" lon="4.10785">
        <ele>1069</ele>
        <time>2016-07-24T14:51:31Z</time>
      </trkpt>
      <trkpt lat="45.05926" lon="4.10773">
        <ele>1067.8</ele>
        <time>2016-07-24T14:51:33Z</time>
      </trkpt>
      <trkpt lat="45.05925" lon="4.10761">
        <ele>1066.4</ele>
        <time>2016-07-24T14:51:45Z</time>
      </trkpt>
      <trkpt lat="45.05924" lon="4.10755">
        <ele>1065.6</ele>
        <time>2016-07-24T14:52:00Z</time>
      </trkpt>
      <trkpt lat="45.05922" lon="4.10743">
        <ele>1062.7</ele>
        <time>2016-07-24T14:52:13Z</time>
      </trkpt>
      <trkpt lat="45.05919" lon="4.10727">
        <ele>1061.3</ele>
        <time>2016-07-24T14:52:26Z</time>
      </trkpt>
      <trkpt lat="45.05916" lon="4.10713">
        <ele>1059.6</ele>
        <time>2016-07-24T14:52:39Z</time>
      </trkpt>
      <trkpt lat="45.05914" lon="4.10696">
        <ele>1058.4</ele>
        <time>2016-07-24T14:52:51Z</time>
      </trkpt>
      <trkpt lat="45.05911" lon="4.1068">
        <ele>1057.3</ele>
        <time>2016-07-24T14:53:05Z</time>
      </trkpt>
      <trkpt lat="45.05909" lon="4.1067">
        <ele>1056.8</ele>
        <time>2016-07-24T14:53:20Z</time>
      </trkpt>
      <trkpt lat="45.05906" lon="4.1067">
        <ele>1056.9</ele>
        <time>2016-07-24T14:53:34Z</time>
      </trkpt>
      <trkpt lat="45.05897" lon="4.10666">
        <ele>1053</ele>
        <time>2016-07-24T14:53:51Z</time>
      </trkpt>
      <trkpt lat="45.0589" lon="4.1066">
        <ele>1052.2</ele>
        <time>2016-07-24T14:54:03Z</time>
      </trkpt>
      <trkpt lat="45.05888" lon="4.10657">
        <ele>1052</ele>
        <time>2016-07-24T14:54:21Z</time>
      </trkpt>
      <trkpt lat="45.05884" lon="4.1065">
        <ele>1051.5</ele>
        <time>2016-07-24T14:54:41Z</time>
      </trkpt>
      <trkpt lat="45.05879" lon="4.1064">
        <ele>1050.8</ele>
        <time>2016-07-24T14:54:55Z</time>
      </trkpt>
      <trkpt lat="45.05874" lon="4.10633">
        <ele>1050.4</ele>
        <time>2016-07-24T14:55:09Z</time>
      </trkpt>
      <trkpt lat="45.05869" lon="4.10625">
        <ele>1049.9</ele>
        <time>2016-07-24T14:55:12Z</time>
      </trkpt>
      <trkpt lat="45.05865" lon="4.10616">
        <ele>1049.3</ele>
        <time>2016-07-24T14:55:27Z</time>
      </trkpt>
      <trkpt lat="45.0586" lon="4.10614">
        <ele>1049.1</ele>
        <time>2016-07-24T14:55:40Z</time>
      </trkpt>
      <trkpt lat="45.0586" lon="4.10614">
        <ele>1049</ele>
        <time>2016-07-24T14:55:56Z</time>
      </trkpt>
      <trkpt lat="45.0585" lon="4.10613">
        <ele>1048.7</ele>
        <time>2016-07-24T14:56:11Z</time>
      </trkpt>
      <trkpt lat="45.05841" lon="4.10613">
        <ele>1048.4</ele>
        <time>2016-07-24T14:56:26Z</time>
      </trkpt>
      <trkpt lat="45.05837" lon="4.10613">
        <ele>1048.4</ele>
        <time>2016-07-24T14:56:37Z</time>
      </trkpt>
      <trkpt lat="45.05835" lon="4.10614">
        <ele>1048.4</ele>
        <time>2016-07-24T14:56:51Z</time>
      </trkpt>
      <trkpt lat="45.05829" lon="4.10616">
        <ele>1046.4</ele>
        <time>2016-07-24T14:57:03Z</time>
      </trkpt>
      <trkpt lat="45.05821" lon="4.1062">
        <ele>1046.6</ele>
        <time>2016-07-24T14:57:15Z</time>
      </trkpt>
      <trkpt lat="45.05812" lon="4.10627">
        <ele>1046.9</ele>
        <time>2016-07-24T14:57:30Z</time>
      </trkpt>
      <trkpt lat="45.05806" lon="4.10634">
        <ele>1047.2</ele>
        <time>2016-07-24T14:57:42Z</time>
      </trkpt>
      <trkpt lat="45.05801" lon="4.10643">
        <ele>1047.6</ele>
        <time>2016-07-24T14:57:55Z</time>
      </trkpt>
      <trkpt lat="45.05799" lon="4.10646">
        <ele>1047.6</ele>
        <time>2016-07-24T14:58:06Z</time>
      </trkpt>
      <trkpt lat="45.05797" lon="4.10648">
        <ele>1047.6</ele>
        <time>2016-07-24T14:58:16Z</time>
      </trkpt>
      <trkpt lat="45.05791" lon="4.10651">
        <ele>1047.6</ele>
        <time>2016-07-24T14:58:29Z</time>
      </trkpt>
      <trkpt lat="45.05781" lon="4.10657">
        <ele>1047.6</ele>
        <time>2016-07-24T14:58:44Z</time>
      </trkpt>
      <trkpt lat="45.05768" lon="4.10666">
        <ele>1047.9</ele>
        <time>2016-07-24T14:58:56Z</time>
      </trkpt>
      <trkpt lat="45.05757" lon="4.10676">
        <ele>1051.5</ele>
        <time>2016-07-24T14:59:11Z</time>
      </trkpt>
      <trkpt lat="45.05752" lon="4.10678">
        <ele>1051.6</ele>
        <time>2016-07-24T14:59:13Z</time>
      </trkpt>
      <trkpt lat="45.05745" lon="4.1068">
        <ele>1049.9</ele>
        <time>2016-07-24T14:59:22Z</time>
      </trkpt>
      <trkpt lat="45.05739" lon="4.10681">
        <ele>1050</ele>
        <time>2016-07-24T14:59:27Z</time>
      </trkpt>
      <trkpt lat="45.05736" lon="4.10682">
        <ele>1050.1</ele>
        <time>2016-07-24T14:59:39Z</time>
      </trkpt>
      <trkpt lat="45.05726" lon="4.10685">
        <ele>1050.2</ele>
        <time>2016-07-24T14:59:50Z</time>
      </trkpt>
      <trkpt lat="45.05718" lon="4.10692">
        <ele>1050.3</ele>
        <time>2016-07-24T15:00:00Z</time>
      </trkpt>
      <trkpt lat="45.05715" lon="4.10695">
        <ele>1050.3</ele>
        <time>2016-07-24T15:00:17Z</time>
      </trkpt>
      <trkpt lat="45.05709" lon="4.10702">
        <ele>1050.4</ele>
        <time>2016-07-24T15:00:36Z</time>
      </trkpt>
      <trkpt lat="45.05701" lon="4.10713">
        <ele>1050.7</ele>
        <time>2016-07-24T15:00:52Z</time>
      </trkpt>
      <trkpt lat="45.05693" lon="4.10722">
        <ele>1050.8</ele>
        <time>2016-07-24T15:01:10Z</time>
      </trkpt>
      <trkpt lat="45.05685" lon="4.10728">
        <ele>1050.8</ele>
        <time>2016-07-24T15:01:27Z</time>
      </trkpt>
      <trkpt lat="45.05669" lon="4.10737">
        <ele>1050.8</ele>
        <time>2016-07-24T15:01:47Z</time>
      </trkpt>
      <trkpt lat="45.05644" lon="4.10751">
        <ele>1051.5</ele>
        <time>2016-07-24T15:02:16Z</time>
      </trkpt>
      <trkpt lat="45.05632" lon="4.1076">
        <ele>1051.3</ele>
        <time>2016-07-24T15:02:49Z</time>
      </trkpt>
      <trkpt lat="45.05622" lon="4.1077">
        <ele>1051.2</ele>
        <time>2016-07-24T15:03:14Z</time>
      </trkpt>
      <trkpt lat="45.05619" lon="4.10776">
        <ele>1051.4</ele>
        <time>2016-07-24T15:03:31Z</time>
      </trkpt>
      <trkpt lat="45.05619" lon="4.10776">
        <ele>1051.4</ele>
        <time>2016-07-24T15:03:41Z</time>
      </trkpt>
      <trkpt lat="45.05616" lon="4.10781">
        <ele>1051.5</ele>
        <time>2016-07-24T15:03:56Z</time>
      </trkpt>
      <trkpt lat="45.05615" lon="4.10798">
        <ele>1052.4</ele>
        <time>2016-07-24T15:04:01Z</time>
      </trkpt>
      <trkpt lat="45.05615" lon="4.10813">
        <ele>1053.1</ele>
        <time>2016-07-24T15:04:14Z</time>
      </trkpt>
      <trkpt lat="45.05612" lon="4.10831">
        <ele>1053.4</ele>
        <time>2016-07-24T15:04:27Z</time>
      </trkpt>
      <trkpt lat="45.05608" lon="4.10856">
        <ele>1058.5</ele>
        <time>2016-07-24T15:04:44Z</time>
      </trkpt>
      <trkpt lat="45.05604" lon="4.10885">
        <ele>1059.7</ele>
        <time>2016-07-24T15:05:02Z</time>
      </trkpt>
      <trkpt lat="45.05602" lon="4.10904">
        <ele>1059.7</ele>
        <time>2016-07-24T15:05:17Z</time>
      </trkpt>
      <trkpt lat="45.056" lon="4.10934">
        <ele>1065.8</ele>
        <time>2016-07-24T15:05:26Z</time>
      </trkpt>
      <trkpt lat="45.05597" lon="4.10957">
        <ele>1068.5</ele>
        <time>2016-07-24T15:05:43Z</time>
      </trkpt>
      <trkpt lat="45.05592" lon="4.10975">
        <ele>1069.5</ele>
        <time>2016-07-24T15:05:58Z</time>
      </trkpt>
      <trkpt lat="45.05585" lon="4.10989">
        <ele>1069.5</ele>
        <time>2016-07-24T15:06:11Z</time>
      </trkpt>
      <trkpt lat="45.05584" lon="4.10992">
        <ele>1069.4</ele>
        <time>2016-07-24T15:06:26Z</time>
      </trkpt>
      <trkpt lat="45.05578" lon="4.11002">
        <ele>1069.2</ele>
        <time>2016-07-24T15:06:30Z</time>
      </trkpt>
      <trkpt lat="45.05567" lon="4.11012">
        <ele>1069.6</ele>
        <time>2016-07-24T15:06:44Z</time>
      </trkpt>
      <trkpt lat="45.05556" lon="4.1102">
        <ele>1069.6</ele>
        <time>2016-07-24T15:06:57Z</time>
      </trkpt>
      <trkpt lat="45.05548" lon="4.11027">
        <ele>1069.7</ele>
        <time>2016-07-24T15:07:09Z</time>
      </trkpt>
      <trkpt lat="45.05545" lon="4.11031">
        <ele>1069.8</ele>
        <time>2016-07-24T15:07:20Z</time>
      </trkpt>
      <trkpt lat="45.05536" lon="4.11054">
        <ele>1070.7</ele>
        <time>2016-07-24T15:07:31Z</time>
      </trkpt>
      <trkpt lat="45.05531" lon="4.11066">
        <ele>1071.1</ele>
        <time>2016-07-24T15:07:46Z</time>
      </trkpt>
      <trkpt lat="45.0552" lon="4.11085">
        <ele>1076.2</ele>
        <time>2016-07-24T15:08:01Z</time>
      </trkpt>
      <trkpt lat="45.05509" lon="4.11107">
        <ele>1077</ele>
        <time>2016-07-24T15:08:18Z</time>
      </trkpt>
      <trkpt lat="45.05503" lon="4.11117">
        <ele>1077.7</ele>
        <time>2016-07-24T15:08:31Z</time>
      </trkpt>
      <trkpt lat="45.05495" lon="4.11129">
        <ele>1072.7</ele>
        <time>2016-07-24T15:08:47Z</time>
      </trkpt>
      <trkpt lat="45.05486" lon="4.11138">
        <ele>1073.2</ele>
        <time>2016-07-24T15:09:01Z</time>
      </trkpt>
      <trkpt lat="45.0548" lon="4.11148">
        <ele>1073.5</ele>
        <time>2016-07-24T15:09:20Z</time>
      </trkpt>
      <trkpt lat="45.05474" lon="4.11161">
        <ele>1073.7</ele>
        <time>2016-07-24T15:09:35Z</time>
      </trkpt>
      <trkpt lat="45.05469" lon="4.11175">
        <ele>1078.7</ele>
        <time>2016-07-24T15:09:51Z</time>
      </trkpt>
      <trkpt lat="45.05464" lon="4.11191">
        <ele>1079.1</ele>
        <time>2016-07-24T15:10:11Z</time>
      </trkpt>
      <trkpt lat="45.05459" lon="4.11209">
        <ele>1079.8</ele>
        <time>2016-07-24T15:10:24Z</time>
      </trkpt>
      <trkpt lat="45.05454" lon="4.11221">
        <ele>1080.3</ele>
        <time>2016-07-24T15:10:41Z</time>
      </trkpt>
      <trkpt lat="45.05447" lon="4.1123">
        <ele>1080.7</ele>
        <time>2016-07-24T15:10:53Z</time>
      </trkpt>
      <trkpt lat="45.05439" lon="4.11238">
        <ele>1081</ele>
        <time>2016-07-24T15:11:11Z</time>
      </trkpt>
      <trkpt lat="45.05428" lon="4.11244">
        <ele>1081.7</ele>
        <time>2016-07-24T15:11:25Z</time>
      </trkpt>
      <trkpt lat="45.05411" lon="4.11248">
        <ele>1081.3</ele>
        <time>2016-07-24T15:11:38Z</time>
      </trkpt>
      <trkpt lat="45.05398" lon="4.11251">
        <ele>1085.1</ele>
        <time>2016-07-24T15:11:56Z</time>
      </trkpt>
      <trkpt lat="45.05381" lon="4.11259">
        <ele>1085.6</ele>
        <time>2016-07-24T15:12:03Z</time>
      </trkpt>
      <trkpt lat="45.05364" lon="4.11271">
        <ele>1085.7</ele>
        <time>2016-07-24T15:12:20Z</time>
      </trkpt>
      <trkpt lat="45.05353" lon="4.11279">
        <ele>1085.9</ele>
        <time>2016-07-24T15:12:36Z</time>
      </trkpt>
      <trkpt lat="45.05303" lon="4.11318">
        <ele>1089.4</ele>
        <time>2016-07-24T15:12:48Z</time>
      </trkpt>
      <trkpt lat="45.05285" lon="4.11336">
        <ele>1098.5</ele>
        <time>2016-07-24T15:13:03Z</time>
      </trkpt>
      <trkpt lat="45.05232" lon="4.11377">
        <ele>1103</ele>
        <time>2016-07-24T15:13:19Z</time>
      </trkpt>
      <trkpt lat="45.05227" lon="4.11382">
        <ele>1103.5</ele>
        <time>2016-07-24T15:13:21Z</time>
      </trkpt>
      <trkpt lat="45.05224" lon="4.11387">
        <ele>1104</ele>
        <time>2016-07-24T15:13:40Z</time>
      </trkpt>
      <trkpt lat="45.05222" lon="4.11391">
        <ele>1104.3</ele>
        <time>2016-07-24T15:13:52Z</time>
      </trkpt>
      <trkpt lat="45.05219" lon="4.11395">
        <ele>1104.5</ele>
        <time>2016-07-24T15:14:05Z</time>
      </trkpt>
      <trkpt lat="45.05216" lon="4.11399">
        <ele>1104.8</ele>
        <time>2016-07-24T15:14:16Z</time>
      </trkpt>
      <trkpt lat="45.05211" lon="4.114">
        <ele>1105</ele>
        <time>2016-07-24T15:14:36Z</time>
      </trkpt>
      <trkpt lat="45.05211" lon="4.11401">
        <ele>1105</ele>
        <time>2016-07-24T15:14:41Z</time>
      </trkpt>
      <trkpt lat="45.05207" lon="4.11396">
        <ele>1104.9</ele>
        <time>2016-07-24T15:14:59Z</time>
      </trkpt>
      <trkpt lat="45.05205" lon="4.11392">
        <ele>1104.8</ele>
        <time>2016-07-24T15:15:18Z</time>
      </trkpt>
      <trkpt lat="45.05204" lon="4.11388">
        <ele>1104.6</ele>
        <time>2016-07-24T15:15:25Z</time>
      </trkpt>
      <trkpt lat="45.05203" lon="4.1138">
        <ele>1104.2</ele>
        <time>2016-07-24T15:15:27Z</time>
      </trkpt>
      <trkpt lat="45.05205" lon="4.11361">
        <ele>1103.2</ele>
        <time>2016-07-24T15:15:42Z</time>
      </trkpt>
      <trkpt lat="45.05204" lon="4.11355">
        <ele>1103</ele>
        <time>2016-07-24T15:15:55Z</time>
      </trkpt>
      <trkpt lat="45.05203" lon="4.1135">
        <ele>1102.9</ele>
        <time>2016-07-24T15:16:03Z</time>
      </trkpt>
      <trkpt lat="45.05201" lon="4.11345">
        <ele>1102.9</ele>
        <time>2016-07-24T15:16:21Z</time>
      </trkpt>
      <trkpt lat="45.05198" lon="4.11342">
        <ele>1103.1</ele>
        <time>2016-07-24T15:16:27Z</time>
      </trkpt>
      <trkpt lat="45.05195" lon="4.11337">
        <ele>1103.1</ele>
        <time>2016-07-24T15:16:39Z</time>
      </trkpt>
      <trkpt lat="45.05194" lon="4.11333">
        <ele>1100.1</ele>
        <time>2016-07-24T15:16:45Z</time>
      </trkpt>
      <trkpt lat="45.05193" lon="4.11327">
        <ele>1100.2</ele>
        <time>2016-07-24T15:16:49Z</time>
      </trkpt>
      <trkpt lat="45.05192" lon="4.11318">
        <ele>1100.1</ele>
        <time>2016-07-24T15:17:06Z</time>
      </trkpt>
      <trkpt lat="45.05192" lon="4.11309">
        <ele>1099.7</ele>
        <time>2016-07-24T15:17:19Z</time>
      </trkpt>
      <trkpt lat="45.05192" lon="4.113">
        <ele>1099.6</ele>
        <time>2016-07-24T15:17:26Z</time>
      </trkpt>
      <trkpt lat="45.05192" lon="4.11292">
        <ele>1099.5</ele>
        <time>2016-07-24T15:17:43Z</time>
      </trkpt>
      <trkpt lat="45.05193" lon="4.1128">
        <ele>1099.6</ele>
        <time>2016-07-24T15:17:56Z</time>
      </trkpt>
      <trkpt lat="45.05192" lon="4.11272">
        <ele>1099.9</ele>
        <time>2016-07-24T15:18:07Z</time>
      </trkpt>
      <trkpt lat="45.05191" lon="4.11258">
        <ele>1100.6</ele>
        <time>2016-07-24T15:18:19Z</time>
      </trkpt>
      <trkpt lat="45.05188" lon="4.11234">
        <ele>1099.7</ele>
        <time>2016-07-24T15:18:36Z</time>
      </trkpt>
      <trkpt lat="45.05185" lon="4.11216">
        <ele>1099</ele>
        <time>2016-07-24T15:18:52Z</time>
      </trkpt>
      <trkpt lat="45.05186" lon="4.11208">
        <ele>1098.7</ele>
        <time>2016-07-24T15:19:05Z</time>
      </trkpt>
      <trkpt lat="45.05186" lon="4.1119">
        <ele>1099</ele>
        <time>2016-07-24T15:19:13Z</time>
      </trkpt>
      <trkpt lat="45.05185" lon="4.11179">
        <ele>1099.8</ele>
        <time>2016-07-24T15:19:22Z</time>
      </trkpt>
      <trkpt lat="45.05182" lon="4.11164">
        <ele>1099.2</ele>
        <time>2016-07-24T15:19:29Z</time>
      </trkpt>
      <trkpt lat="45.0518" lon="4.11156">
        <ele>1098.9</ele>
        <time>2016-07-24T15:19:39Z</time>
      </trkpt>
      <trkpt lat="45.05175" lon="4.1114">
        <ele>1097.2</ele>
        <time>2016-07-24T15:19:48Z</time>
      </trkpt>
      <trkpt lat="45.0517" lon="4.11133">
        <ele>1096.6</ele>
        <time>2016-07-24T15:20:02Z</time>
      </trkpt>
      <trkpt lat="45.05165" lon="4.11124">
        <ele>1112.9</ele>
        <time>2016-07-24T15:20:06Z</time>
      </trkpt>
      <trkpt lat="45.05162" lon="4.11116">
        <ele>1112.3</ele>
        <time>2016-07-24T15:20:15Z</time>
      </trkpt>
      <trkpt lat="45.05157" lon="4.11104">
        <ele>1110.3</ele>
        <time>2016-07-24T15:20:18Z</time>
      </trkpt>
      <trkpt lat="45.05154" lon="4.11099">
        <ele>1109.7</ele>
        <time>2016-07-24T15:20:31Z</time>
      </trkpt>
      <trkpt lat="45.05151" lon="4.1109">
        <ele>1108.6</ele>
        <time>2016-07-24T15:20:46Z</time>
      </trkpt>
      <trkpt lat="45.0515" lon="4.11075">
        <ele>1103.4</ele>
        <time>2016-07-24T15:20:47Z</time>
      </trkpt>
      <trkpt lat="45.05146" lon="4.11063">
        <ele>1104.8</ele>
        <time>2016-07-24T15:20:51Z</time>
      </trkpt>
      <trkpt lat="45.05145" lon="4.11054">
        <ele>1104.9</ele>
        <time>2016-07-24T15:20:57Z</time>
      </trkpt>
      <trkpt lat="45.05142" lon="4.11045">
        <ele>1104.9</ele>
        <time>2016-07-24T15:21:16Z</time>
      </trkpt>
      <trkpt lat="45.05136" lon="4.11033">
        <ele>1104.8</ele>
        <time>2016-07-24T15:21:35Z</time>
      </trkpt>
      <trkpt lat="45.05133" lon="4.11027">
        <ele>1104.8</ele>
        <time>2016-07-24T15:21:39Z</time>
      </trkpt>
      <trkpt lat="45.05128" lon="4.11014">
        <ele>1104.6</ele>
        <time>2016-07-24T15:21:46Z</time>
      </trkpt>
      <trkpt lat="45.05123" lon="4.11003">
        <ele>1105.3</ele>
        <time>2016-07-24T15:22:01Z</time>
      </trkpt>
      <trkpt lat="45.05119" lon="4.10993">
        <ele>1095.4</ele>
        <time>2016-07-24T15:22:10Z</time>
      </trkpt>
      <trkpt lat="45.05115" lon="4.10983">
        <ele>1095.6</ele>
        <time>2016-07-24T15:22:17Z</time>
      </trkpt>
      <trkpt lat="45.05112" lon="4.1098">
        <ele>1095.9</ele>
        <time>2016-07-24T15:22:30Z</time>
      </trkpt>
      <trkpt lat="45.0511" lon="4.10979">
        <ele>1096.1</ele>
        <time>2016-07-24T15:22:41Z</time>
      </trkpt>
      <trkpt lat="45.05107" lon="4.10976">
        <ele>1096.3</ele>
        <time>2016-07-24T15:22:46Z</time>
      </trkpt>
      <trkpt lat="45.05104" lon="4.10973">
        <ele>1096.3</ele>
        <time>2016-07-24T15:23:03Z</time>
      </trkpt>
      <trkpt lat="45.05101" lon="4.10969">
        <ele>1096</ele>
        <time>2016-07-24T15:23:17Z</time>
      </trkpt>
      <trkpt lat="45.05099" lon="4.10965">
        <ele>1095.6</ele>
        <time>2016-07-24T15:23:34Z</time>
      </trkpt>
      <trkpt lat="45.05096" lon="4.10961">
        <ele>1095</ele>
        <time>2016-07-24T15:23:51Z</time>
      </trkpt>
      <trkpt lat="45.05094" lon="4.10957">
        <ele>1094.4</ele>
        <time>2016-07-24T15:23:53Z</time>
      </trkpt>
      <trkpt lat="45.0509" lon="4.10951">
        <ele>1093.7</ele>
        <time>2016-07-24T15:24:10Z</time>
      </trkpt>
      <trkpt lat="45.05085" lon="4.1094">
        <ele>1092.6</ele>
        <time>2016-07-24T15:24:21Z</time>
      </trkpt>
      <trkpt lat="45.0508" lon="4.10926">
        <ele>1097.1</ele>
        <time>2016-07-24T15:24:37Z</time>
      </trkpt>
      <trkpt lat="45.05079" lon="4.10924">
        <ele>1096.2</ele>
        <time>2016-07-24T15:24:57Z</time>
      </trkpt>
      <trkpt lat="45.05075" lon="4.10918">
        <ele>1096.3</ele>
        <time>2016-07-24T15:25:10Z</time>
      </trkpt>
      <trkpt lat="45.05068" lon="4.10912">
        <ele>1090.1</ele>
        <time>2016-07-24T15:25:23Z</time>
      </trkpt>
      <trkpt lat="45.0506" lon="4.10911">
        <ele>1090.2</ele>
        <time>2016-07-24T15:25:38Z</time>
      </trkpt>
      <trkpt lat="45.05048" lon="4.10906">
        <ele>1090.5</ele>
        <time>2016-07-24T15:25:54Z</time>
      </trkpt>
      <trkpt lat="45.0504" lon="4.10904">
        <ele>1091.1</ele>
        <time>2016-07-24T15:26:06Z</time>
      </trkpt>
      <trkpt lat="45.05032" lon="4.10899">
        <ele>1091.6</ele>
        <time>2016-07-24T15:26:18Z</time>
      </trkpt>
      <trkpt lat="45.05027" lon="4.10893">
        <ele>1091.4</ele>
        <time>2016-07-24T15:26:32Z</time>
      </trkpt>
      <trkpt lat="45.05023" lon="4.10885">
        <ele>1090.7</ele>
        <time>2016-07-24T15:26:48Z</time>
      </trkpt>
      <trkpt lat="45.05015" lon="4.10876">
        <ele>1089.8</ele>
        <time>2016-07-24T15:27:10Z</time>
      </trkpt>
      <trkpt lat="45.05007" lon="4.10868">
        <ele>1088.7</ele>
        <time>2016-07-24T15:27:33Z</time>
      </trkpt>
      <trkpt lat="45.05" lon="4.10857">
        <ele>1089.5</ele>
        <time>2016-07-24T15:27:45Z</time>
      </trkpt>
      <trkpt lat="45.04994" lon="4.10849">
        <ele>1088</ele>
        <time>2016-07-24T15:27:57Z</time>
      </trkpt>
      <trkpt lat="45.04992" lon="4.10843">
        <ele>1086.8</ele>
        <time>2016-07-24T15:28:10Z</time>
      </trkpt>
      <trkpt lat="45.04982" lon="4.10839">
        <ele>1088</ele>
        <time>2016-07-24T15:28:20Z</time>
      </trkpt>
      <trkpt lat="45.04972" lon="4.10839">
        <ele>1088.9</ele>
        <time>2016-07-24T15:28:34Z</time>
      </trkpt>
      <trkpt lat="45.04967" lon="4.10837">
        <ele>1089.2</ele>
        <time>2016-07-24T15:28:50Z</time>
      </trkpt>
      <trkpt lat="45.04961" lon="4.10835">
        <ele>1089.2</ele>
        <time>2016-07-24T15:29:02Z</time>
      </trkpt>
      <trkpt lat="45.04952" lon="4.10827">
        <ele>1079.9</ele>
        <time>2016-07-24T15:29:19Z</time>
      </trkpt>
      <trkpt lat="45.04938" lon="4.10816">
        <ele>1079.9</ele>
        <time>2016-07-24T15:29:34Z</time>
      </trkpt>
      <trkpt lat="45.04921" lon="4.10802">
        <ele>1079.2</ele>
        <time>2016-07-24T15:29:52Z</time>
      </trkpt>
      <trkpt lat="45.04913" lon="4.10798">
        <ele>1082.3</ele>
        <time>2016-07-24T15:30:04Z</time>
      </trkpt>
      <trkpt lat="45.04905" lon="4.10792">
        <ele>1082</ele>
        <time>2016-07-24T15:30:18Z</time>
      </trkpt>
      <trkpt lat="45.04891" lon="4.10779">
        <ele>1081.5</ele>
        <time>2016-07-24T15:30:31Z</time>
      </trkpt>
      <trkpt lat="45.04874" lon="4.1076">
        <ele>1081.6</ele>
        <time>2016-07-24T15:30:47Z</time>
      </trkpt>
      <trkpt lat="45.04861" lon="4.10746">
        <ele>1078.1</ele>
        <time>2016-07-24T15:31:04Z</time>
      </trkpt>
      <trkpt lat="45.04856" lon="4.10741">
        <ele>1078.4</ele>
        <time>2016-07-24T15:31:18Z</time>
      </trkpt>
      <trkpt lat="45.04853" lon="4.10732">
        <ele>1078.3</ele>
        <time>2016-07-24T15:31:33Z</time>
      </trkpt>
      <trkpt lat="45.04846" lon="4.10729">
        <ele>1078.6</ele>
        <time>2016-07-24T15:31:49Z</time>
      </trkpt>
      <trkpt lat="45.04834" lon="4.10723">
        <ele>1078.7</ele>
        <time>2016-07-24T15:32:03Z</time>
      </trkpt>
      <trkpt lat="45.04831" lon="4.10719">
        <ele>1086.3</ele>
        <time>2016-07-24T15:32:17Z</time>
      </trkpt>
      <trkpt lat="45.04823" lon="4.10709">
        <ele>1086.8</ele>
        <time>2016-07-24T15:32:33Z</time>
      </trkpt>
      <trkpt lat="45.0481" lon="4.10687">
        <ele>1087</ele>
        <time>2016-07-24T15:32:48Z</time>
      </trkpt>
      <trkpt lat="45.04795" lon="4.10662">
        <ele>1088</ele>
        <time>2016-07-24T15:33:10Z</time>
      </trkpt>
      <trkpt lat="45.04788" lon="4.10647">
        <ele>1088.9</ele>
        <time>2016-07-24T15:33:23Z</time>
      </trkpt>
      <trkpt lat="45.04781" lon="4.10631">
        <ele>1089.3</ele>
        <time>2016-07-24T15:33:38Z</time>
      </trkpt>
      <trkpt lat="45.04778" lon="4.1062">
        <ele>1089.5</ele>
        <time>2016-07-24T15:33:54Z</time>
      </trkpt>
      <trkpt lat="45.04772" lon="4.10599">
        <ele>1090.3</ele>
        <time>2016-07-24T15:34:08Z</time>
      </trkpt>
      <trkpt lat="45.04766" lon="4.10583">
        <ele>1090.6</ele>
        <time>2016-07-24T15:34:22Z</time>
      </trkpt>
      <trkpt lat="45.04761" lon="4.10571">
        <ele>1090.6</ele>
        <time>2016-07-24T15:34:35Z</time>
      </trkpt>
      <trkpt lat="45.04758" lon="4.1056">
        <ele>1090</ele>
        <time>2016-07-24T15:34:48Z</time>
      </trkpt>
      <trkpt lat="45.04746" lon="4.10541">
        <ele>1096</ele>
        <time>2016-07-24T15:35:01Z</time>
      </trkpt>
      <trkpt lat="45.04741" lon="4.1053">
        <ele>1095</ele>
        <time>2016-07-24T15:35:16Z</time>
      </trkpt>
      <trkpt lat="45.04731" lon="4.10512">
        <ele>1094</ele>
        <time>2016-07-24T15:35:32Z</time>
      </trkpt>
      <trkpt lat="45.04728" lon="4.10508">
        <ele>1095</ele>
        <time>2016-07-24T15:35:48Z</time>
      </trkpt>
      <trkpt lat="45.0472" lon="4.10484">
        <ele>1093</ele>
        <time>2016-07-24T15:36:04Z</time>
      </trkpt>
      <trkpt lat="45.0471" lon="4.10448">
        <ele>1094</ele>
        <time>2016-07-24T15:36:17Z</time>
      </trkpt>
      <trkpt lat="45.04709" lon="4.10421">
        <ele>1094</ele>
        <time>2016-07-24T15:36:21Z</time>
      </trkpt>
      <trkpt lat="45.04703" lon="4.1039">
        <ele>1093</ele>
        <time>2016-07-24T15:36:35Z</time>
      </trkpt>
      <trkpt lat="45.04694" lon="4.1037">
        <ele>1094</ele>
        <time>2016-07-24T15:36:36Z</time>
      </trkpt>
      <trkpt lat="45.04693" lon="4.10369">
        <ele>1094</ele>
        <time>2016-07-24T15:36:39Z</time>
      </trkpt>
      <trkpt lat="45.04681" lon="4.10348">
        <ele>1096</ele>
        <time>2016-07-24T15:36:55Z</time>
      </trkpt>
      <trkpt lat="45.04671" lon="4.10325">
        <ele>1097</ele>
        <time>2016-07-24T15:37:08Z</time>
      </trkpt>
      <trkpt lat="45.04668" lon="4.1032">
        <ele>1097</ele>
        <time>2016-07-24T15:37:18Z</time>
      </trkpt>
      <trkpt lat="45.04659" lon="4.10291">
        <ele>1102</ele>
        <time>2016-07-24T15:37:31Z</time>
      </trkpt>
      <trkpt lat="45.04655" lon="4.10278">
        <ele>1102</ele>
        <time>2016-07-24T15:37:37Z</time>
      </trkpt>
      <trkpt lat="45.04653" lon="4.1027">
        <ele>1102</ele>
        <time>2016-07-24T15:37:52Z</time>
      </trkpt>
      <trkpt lat="45.04645" lon="4.10239">
        <ele>1102</ele>
        <time>2016-07-24T15:38:05Z</time>
      </trkpt>
      <trkpt lat="45.04636" lon="4.10219">
        <ele>1102</ele>
        <time>2016-07-24T15:38:18Z</time>
      </trkpt>
      <trkpt lat="45.04634" lon="4.10214">
        <ele>1102</ele>
        <time>2016-07-24T15:38:31Z</time>
      </trkpt>
      <trkpt lat="45.04635" lon="4.10209">
        <ele>1102</ele>
        <time>2016-07-24T15:38:45Z</time>
      </trkpt>
      <trkpt lat="45.0464" lon="4.10189">
        <ele>1102</ele>
        <time>2016-07-24T15:39:01Z</time>
      </trkpt>
      <trkpt lat="45.04646" lon="4.10178">
        <ele>1102</ele>
        <time>2016-07-24T15:39:20Z</time>
      </trkpt>
      <trkpt lat="45.04659" lon="4.10159">
        <ele>1101</ele>
        <time>2016-07-24T15:39:36Z</time>
      </trkpt>
      <trkpt lat="45.0466" lon="4.10157">
        <ele>1101</ele>
        <time>2016-07-24T15:39:52Z</time>
      </trkpt>
      <trkpt lat="45.04664" lon="4.10155">
        <ele>1101</ele>
        <time>2016-07-24T15:40:06Z</time>
      </trkpt>
      <trkpt lat="45.04675" lon="4.10138">
        <ele>1098</ele>
        <time>2016-07-24T15:40:18Z</time>
      </trkpt>
      <trkpt lat="45.04687" lon="4.10124">
        <ele>1097</ele>
        <time>2016-07-24T15:40:30Z</time>
      </trkpt>
      <trkpt lat="45.04701" lon="4.10108">
        <ele>1097</ele>
        <time>2016-07-24T15:40:34Z</time>
      </trkpt>
      <trkpt lat="45.04713" lon="4.10093">
        <ele>1096</ele>
        <time>2016-07-24T15:40:50Z</time>
      </trkpt>
      <trkpt lat="45.04722" lon="4.10083">
        <ele>1098</ele>
        <time>2016-07-24T15:41:07Z</time>
      </trkpt>
      <trkpt lat="45.04727" lon="4.10077">
        <ele>1097</ele>
        <time>2016-07-24T15:41:13Z</time>
      </trkpt>
      <trkpt lat="45.0474" lon="4.10063">
        <ele>1097</ele>
        <time>2016-07-24T15:41:22Z</time>
      </trkpt>
      <trkpt lat="45.04746" lon="4.10056">
        <ele>1098</ele>
        <time>2016-07-24T15:41:36Z</time>
      </trkpt>
      <trkpt lat="45.04766" lon="4.10041">
        <ele>1098</ele>
        <time>2016-07-24T15:41:40Z</time>
      </trkpt>
      <trkpt lat="45.04777" lon="4.10036">
        <ele>1098</ele>
        <time>2016-07-24T15:41:55Z</time>
      </trkpt>
      <trkpt lat="45.04785" lon="4.10032">
        <ele>1099</ele>
        <time>2016-07-24T15:42:12Z</time>
      </trkpt>
      <trkpt lat="45.04802" lon="4.10029">
        <ele>1099</ele>
        <time>2016-07-24T15:42:30Z</time>
      </trkpt>
      <trkpt lat="45.04809" lon="4.10027">
        <ele>1099</ele>
        <time>2016-07-24T15:42:47Z</time>
      </trkpt>
      <trkpt lat="45.04825" lon="4.10018">
        <ele>1101</ele>
        <time>2016-07-24T15:43:04Z</time>
      </trkpt>
      <trkpt lat="45.04832" lon="4.10014">
        <ele>1101</ele>
        <time>2016-07-24T15:43:11Z</time>
      </trkpt>
      <trkpt lat="45.04833" lon="4.1">
        <ele>1104</ele>
        <time>2016-07-24T15:43:17Z</time>
      </trkpt>
      <trkpt lat="45.04832" lon="4.09998">
        <ele>1105</ele>
        <time>2016-07-24T15:43:31Z</time>
      </trkpt>
      <trkpt lat="45.04832" lon="4.09977">
        <ele>1109</ele>
        <time>2016-07-24T15:43:47Z</time>
      </trkpt>
      <trkpt lat="45.04837" lon="4.09967">
        <ele>1111</ele>
        <time>2016-07-24T15:44:04Z</time>
      </trkpt>
      <trkpt lat="45.04846" lon="4.09956">
        <ele>1112</ele>
        <time>2016-07-24T15:44:20Z</time>
      </trkpt>
      <trkpt lat="45.04855" lon="4.09947">
        <ele>1113</ele>
        <time>2016-07-24T15:44:32Z</time>
      </trkpt>
      <trkpt lat="45.04858" lon="4.0994">
        <ele>1114</ele>
        <time>2016-07-24T15:44:51Z</time>
      </trkpt>
      <trkpt lat="45.04859" lon="4.09923">
        <ele>1116</ele>
        <time>2016-07-24T15:45:07Z</time>
      </trkpt>
      <trkpt lat="45.04855" lon="4.09912">
        <ele>1129</ele>
        <time>2016-07-24T15:45:27Z</time>
      </trkpt>
      <trkpt lat="45.04854" lon="4.09911">
        <ele>1129</ele>
        <time>2016-07-24T15:45:36Z</time>
      </trkpt>
      <trkpt lat="45.04842" lon="4.09904">
        <ele>1128</ele>
        <time>2016-07-24T15:45:52Z</time>
      </trkpt>
      <trkpt lat="45.04832" lon="4.09896">
        <ele>1126</ele>
        <time>2016-07-24T15:46:08Z</time>
      </trkpt>
      <trkpt lat="45.04829" lon="4.09896">
        <ele>1125</ele>
        <time>2016-07-24T15:46:28Z</time>
      </trkpt>
      <trkpt lat="45.04828" lon="4.09896">
        <ele>1125</ele>
        <time>2016-07-24T15:46:45Z</time>
      </trkpt>
      <trkpt lat="45.04829" lon="4.09898">
        <ele>1125</ele>
        <time>2016-07-24T15:47:03Z</time>
      </trkpt>
      <trkpt lat="45.04825" lon="4.09895">
        <ele>1126</ele>
        <time>2016-07-24T15:47:20Z</time>
      </trkpt>
      <trkpt lat="45.04823" lon="4.09894">
        <ele>1126</ele>
        <time>2016-07-24T15:47:39Z</time>
      </trkpt>
      <trkpt lat="45.04822" lon="4.09893">
        <ele>1126</ele>
        <time>2016-07-24T15:47:54Z</time>
      </trkpt>
      <trkpt lat="45.04821" lon="4.09893">
        <ele>1126</ele>
        <time>2016-07-24T15:48:09Z</time>
      </trkpt>
      <trkpt lat="45.0482" lon="4.09893">
        <ele>1126</ele>
        <time>2016-07-24T15:48:26Z</time>
      </trkpt>
      <trkpt lat="45.04819" lon="4.09893">
        <ele>1126</ele>
        <time>2016-07-24T15:48:44Z</time>
      </trkpt>
      <trkpt lat="45.04819" lon="4.09891">
        <ele>1126</ele>
        <time>2016-07-24T15:49:03Z</time>
      </trkpt>
      <trkpt lat="45.04823" lon="4.09884">
        <ele>1127</ele>
        <time>2016-07-24T15:49:21Z</time>
      </trkpt>
      <trkpt lat="45.04833" lon="4.09878">
        <ele>1129</ele>
        <time>2016-07-24T15:49:41Z</time>
      </trkpt>
      <trkpt lat="45.04839" lon="4.09875">
        <ele>1135</ele>
        <time>2016-07-24T15:49:53Z</time>
      </trkpt>
      <trkpt lat="45.04846" lon="4.09871">
        <ele>1136</ele>
        <time>2016-07-24T15:49:58Z</time>
      </trkpt>
      <trkpt lat="45.04853" lon="4.09869">
        <ele>1136</ele>
        <time>2016-07-24T15:50:12Z</time>
      </trkpt>
      <trkpt lat="45.04865" lon="4.09866">
        <ele>1136</ele>
        <time>2016-07-24T15:50:28Z</time>
      </trkpt>
      <trkpt lat="45.04873" lon="4.09865">
        <ele>1137</ele>
        <time>2016-07-24T15:50:43Z</time>
      </trkpt>
      <trkpt lat="45.04885" lon="4.09853">
        <ele>1139</ele>
        <time>2016-07-24T15:51:07Z</time>
      </trkpt>
      <trkpt lat="45.0489" lon="4.09849">
        <ele>1140</ele>
        <time>2016-07-24T15:51:14Z</time>
      </trkpt>
      <trkpt lat="45.04893" lon="4.09843">
        <ele>1141</ele>
        <time>2016-07-24T15:51:34Z</time>
      </trkpt>
      <trkpt lat="45.04892" lon="4.09841">
        <ele>1141</ele>
        <time>2016-07-24T15:51:54Z</time>
      </trkpt>
      <trkpt lat="45.04891" lon="4.09838">
        <ele>1141</ele>
        <time>2016-07-24T15:52:02Z</time>
      </trkpt>
      <trkpt lat="45.04893" lon="4.09832">
        <ele>1154</ele>
        <time>2016-07-24T15:52:15Z</time>
      </trkpt>
      <trkpt lat="45.04891" lon="4.09828">
        <ele>1154</ele>
        <time>2016-07-24T15:52:34Z</time>
      </trkpt>
      <trkpt lat="45.04889" lon="4.09822">
        <ele>1155</ele>
        <time>2016-07-24T15:52:51Z</time>
      </trkpt>
      <trkpt lat="45.04888" lon="4.09813">
        <ele>1155</ele>
        <time>2016-07-24T15:53:08Z</time>
      </trkpt>
      <trkpt lat="45.04885" lon="4.0981">
        <ele>1155</ele>
        <time>2016-07-24T15:53:26Z</time>
      </trkpt>
      <trkpt lat="45.04883" lon="4.09806">
        <ele>1156</ele>
        <time>2016-07-24T15:53:51Z</time>
      </trkpt>
      <trkpt lat="45.04879" lon="4.09802">
        <ele>1156</ele>
        <time>2016-07-24T15:54:12Z</time>
      </trkpt>
      <trkpt lat="45.04876" lon="4.09795">
        <ele>1157</ele>
        <time>2016-07-24T07:03:03Z</time>
      </trkpt>
      <trkpt lat="45.04873" lon="4.09791">
        <ele>1157</ele>
        <time>2016-07-24T07:03:18Z</time>
      </trkpt>
      <trkpt lat="45.0487" lon="4.09789">
        <ele>1157</ele>
        <time>2016-07-24T07:03:21Z</time>
      </trkpt>
      <trkpt lat="45.04869" lon="4.09782">
        <ele>1157</ele>
        <time>2016-07-24T07:03:39Z</time>
      </trkpt>
      <trkpt lat="45.04868" lon="4.09779">
        <ele>1157</ele>
        <time>2016-07-24T07:04:00Z</time>
      </trkpt>
      <trkpt lat="45.04863" lon="4.09777">
        <ele>1157</ele>
        <time>2016-07-24T07:04:15Z</time>
      </trkpt>
      <trkpt lat="45.0486" lon="4.09775">
        <ele>1157</ele>
        <time>2016-07-24T07:04:22Z</time>
      </trkpt>
      <trkpt lat="45.04857" lon="4.09773">
        <ele>1157</ele>
        <time>2016-07-24T07:04:39Z</time>
      </trkpt>
      <trkpt lat="45.04855" lon="4.09772">
        <ele>1157</ele>
        <time>2016-07-24T07:04:53Z</time>
      </trkpt>
      <trkpt lat="45.04849" lon="4.09769">
        <ele>1157</ele>
        <time>2016-07-24T07:05:03Z</time>
      </trkpt>
      <trkpt lat="45.04848" lon="4.09765">
        <ele>1158</ele>
        <time>2016-07-24T07:05:19Z</time>
      </trkpt>
      <trkpt lat="45.04855" lon="4.09764">
        <ele>1158</ele>
        <time>2016-07-24T07:05:37Z</time>
      </trkpt>
      <trkpt lat="45.04855" lon="4.09764">
        <ele>1158</ele>
        <time>2016-07-24T07:05:55Z</time>
      </trkpt>
      <trkpt lat="45.04855" lon="4.09763">
        <ele>1158</ele>
        <time>2016-07-24T07:06:12Z</time>
      </trkpt>
      <trkpt lat="45.04856" lon="4.09761">
        <ele>1158</ele>
        <time>2016-07-24T07:06:31Z</time>
      </trkpt>
      <trkpt lat="45.04858" lon="4.09762">
        <ele>1158</ele>
        <time>2016-07-24T07:06:47Z</time>
      </trkpt>
      <trkpt lat="45.04858" lon="4.09764">
        <ele>1158</ele>
        <time>2016-07-24T07:07:03Z</time>
      </trkpt>
      <trkpt lat="45.04858" lon="4.09762">
        <ele>1158</ele>
        <time>2016-07-24T07:07:24Z</time>
      </trkpt>
      <trkpt lat="45.04857" lon="4.09761">
        <ele>1158</ele>
        <time>2016-07-24T07:07:41Z</time>
      </trkpt>
      <trkpt lat="45.04857" lon="4.09761">
        <ele>1158</ele>
        <time>2016-07-24T07:07:42Z</time>
      </trkpt>
      <trkpt lat="45.04857" lon="4.09761">
        <ele>1158</ele>
        <time>2016-07-24T07:07:47Z</time>
      </trkpt>
      <trkpt lat="45.04859" lon="4.0976">
        <ele>1158</ele>
        <time>2016-07-24T07:08:04Z</time>
      </trkpt>
      <trkpt lat="45.04861" lon="4.09757">
        <ele>1158</ele>
        <time>2016-07-24T07:08:24Z</time>
      </trkpt>
      <trkpt lat="45.04866" lon="4.09755">
        <ele>1159</ele>
        <time>2016-07-24T07:08:34Z</time>
      </trkpt>
      <trkpt lat="45.0487" lon="4.09755">
        <ele>1159</ele>
        <time>2016-07-24T07:08:38Z</time>
      </trkpt>
      <trkpt lat="45.04877" lon="4.09751">
        <ele>1160</ele>
        <time>2016-07-24T07:09:02Z</time>
      </trkpt>
      <trkpt lat="45.04885" lon="4.09749">
        <ele>1155</ele>
        <time>2016-07-24T07:09:22Z</time>
      </trkpt>
      <trkpt lat="45.04894" lon="4.09751">
        <ele>1162</ele>
        <time>2016-07-24T07:09:43Z</time>
      </trkpt>
      <trkpt lat="45.04902" lon="4.0975">
        <ele>1161</ele>
        <time>2016-07-24T07:10:00Z</time>
      </trkpt>
      <trkpt lat="45.04907" lon="4.0975">
        <ele>1163</ele>
        <time>2016-07-24T07:10:18Z</time>
      </trkpt>
      <trkpt lat="45.0491" lon="4.09749">
        <ele>1165</ele>
        <time>2016-07-24T07:10:31Z</time>
      </trkpt>
      <trkpt lat="45.04911" lon="4.09749">
        <ele>1165</ele>
        <time>2016-07-24T07:10:54Z</time>
      </trkpt>
      <trkpt lat="45.04912" lon="4.0975">
        <ele>1166</ele>
        <time>2016-07-24T07:11:05Z</time>
      </trkpt>
      <trkpt lat="45.04912" lon="4.09749">
        <ele>1166</ele>
        <time>2016-07-24T07:11:24Z</time>
      </trkpt>
      <trkpt lat="45.04911" lon="4.09749">
        <ele>1165</ele>
        <time>2016-07-24T07:11:32Z</time>
      </trkpt>
      <trkpt lat="45.04911" lon="4.09749">
        <ele>1165</ele>
        <time>2016-07-24T07:11:49Z</time>
      </trkpt>
      <trkpt lat="45.0491" lon="4.09748">
        <ele>1165</ele>
        <time>2016-07-24T07:12:07Z</time>
      </trkpt>
      <trkpt lat="45.0491" lon="4.09747">
        <ele>1165</ele>
        <time>2016-07-24T07:12:22Z</time>
      </trkpt>
      <trkpt lat="45.0491" lon="4.09747">
        <ele>1165</ele>
        <time>2016-07-24T07:12:41Z</time>
      </trkpt>
      <trkpt lat="45.04911" lon="4.09748">
        <ele>1165</ele>
        <time>2016-07-24T07:13:00Z</time>
      </trkpt>
      <trkpt lat="45.04911" lon="4.09748">
        <ele>1165</ele>
        <time>2016-07-24T07:13:18Z</time>
      </trkpt>
      <trkpt lat="45.04911" lon="4.09749">
        <ele>1165</ele>
        <time>2016-07-24T07:13:39Z</time>
      </trkpt>
      <trkpt lat="45.04907" lon="4.09749">
        <ele>1163</ele>
        <time>2016-07-24T07:13:57Z</time>
      </trkpt>
      <trkpt lat="45.04902" lon="4.0975">
        <ele>1161</ele>
        <time>2016-07-24T07:14:17Z</time>
      </trkpt>
      <trkpt lat="45.04893" lon="4.09749">
        <ele>1157</ele>
        <time>2016-07-24T07:14:35Z</time>
      </trkpt>
      <trkpt lat="45.04888" lon="4.09749">
        <ele>1156</ele>
        <time>2016-07-24T07:14:54Z</time>
      </trkpt>
      <trkpt lat="45.04883" lon="4.09751">
        <ele>1160</ele>
        <time>2016-07-24T07:15:13Z</time>
      </trkpt>
      <trkpt lat="45.04878" lon="4.09752">
        <ele>1160</ele>
        <time>2016-07-24T07:15:30Z</time>
      </trkpt>
      <trkpt lat="45.04877" lon="4.09752">
        <ele>1160</ele>
        <time>2016-07-24T07:15:48Z</time>
      </trkpt>
      <trkpt lat="45.04874" lon="4.09753">
        <ele>1159</ele>
        <time>2016-07-24T07:16:04Z</time>
      </trkpt>
      <trkpt lat="45.04874" lon="4.09753">
        <ele>1159</ele>
        <time>2016-07-24T07:16:21Z</time>
      </trkpt>
      <trkpt lat="45.0487" lon="4.09756">
        <ele>1159</ele>
        <time>2016-07-24T07:16:39Z</time>
      </trkpt>
      <trkpt lat="45.04866" lon="4.09757">
        <ele>1159</ele>
        <time>2016-07-24T07:16:41Z</time>
      </trkpt>
      <trkpt lat="45.04858" lon="4.09758">
        <ele>1158</ele>
        <time>2016-07-24T07:16:54Z</time>
      </trkpt>
      <trkpt lat="45.04853" lon="4.09759">
        <ele>1158</ele>
        <time>2016-07-24T07:17:12Z</time>
      </trkpt>
      <trkpt lat="45.04851" lon="4.0976">
        <ele>1158</ele>
        <time>2016-07-24T07:17:28Z</time>
      </trkpt>
      <trkpt lat="45.04851" lon="4.09765">
        <ele>1158</ele>
        <time>2016-07-24T07:17:45Z</time>
      </trkpt>
      <trkpt lat="45.04849" lon="4.09769">
        <ele>1157</ele>
        <time>2016-07-24T07:18:03Z</time>
      </trkpt>
      <trkpt lat="45.04852" lon="4.09773">
        <ele>1157</ele>
        <time>2016-07-24T07:18:09Z</time>
      </trkpt>
      <trkpt lat="45.04855" lon="4.09774">
        <ele>1157</ele>
        <time>2016-07-24T07:18:26Z</time>
      </trkpt>
      <trkpt lat="45.04859" lon="4.09777">
        <ele>1157</ele>
        <time>2016-07-24T07:18:44Z</time>
      </trkpt>
      <trkpt lat="45.04861" lon="4.09779">
        <ele>1157</ele>
        <time>2016-07-24T07:19:00Z</time>
      </trkpt>
      <trkpt lat="45.04865" lon="4.09782">
        <ele>1157</ele>
        <time>2016-07-24T07:19:16Z</time>
      </trkpt>
      <trkpt lat="45.04866" lon="4.09785">
        <ele>1157</ele>
        <time>2016-07-24T07:19:30Z</time>
      </trkpt>
      <trkpt lat="45.0487" lon="4.0979">
        <ele>1157</ele>
        <time>2016-07-24T07:19:46Z</time>
      </trkpt>
      <trkpt lat="45.04872" lon="4.09793">
        <ele>1157</ele>
        <time>2016-07-24T07:19:59Z</time>
      </trkpt>
      <trkpt lat="45.04873" lon="4.09797">
        <ele>1156</ele>
        <time>2016-07-24T07:20:10Z</time>
      </trkpt>
      <trkpt lat="45.04874" lon="4.098">
        <ele>1156</ele>
        <time>2016-07-24T07:20:24Z</time>
      </trkpt>
      <trkpt lat="45.04877" lon="4.09804">
        <ele>1156</ele>
        <time>2016-07-24T07:20:29Z</time>
      </trkpt>
      <trkpt lat="45.0488" lon="4.09807">
        <ele>1156</ele>
        <time>2016-07-24T07:20:46Z</time>
      </trkpt>
      <trkpt lat="45.04882" lon="4.09813">
        <ele>1155</ele>
        <time>2016-07-24T07:21:02Z</time>
      </trkpt>
      <trkpt lat="45.04883" lon="4.09818">
        <ele>1155</ele>
        <time>2016-07-24T07:21:12Z</time>
      </trkpt>
      <trkpt lat="45.04886" lon="4.09821">
        <ele>1155</ele>
        <time>2016-07-24T07:21:18Z</time>
      </trkpt>
      <trkpt lat="45.04887" lon="4.09825">
        <ele>1154</ele>
        <time>2016-07-24T07:21:28Z</time>
      </trkpt>
      <trkpt lat="45.04887" lon="4.09826">
        <ele>1154</ele>
        <time>2016-07-24T07:21:47Z</time>
      </trkpt>
      <trkpt lat="45.04889" lon="4.09834">
        <ele>1141</ele>
        <time>2016-07-24T07:21:59Z</time>
      </trkpt>
      <trkpt lat="45.04893" lon="4.09842">
        <ele>1141</ele>
        <time>2016-07-24T07:22:01Z</time>
      </trkpt>
      <trkpt lat="45.04899" lon="4.09857">
        <ele>1139</ele>
        <time>2016-07-24T07:22:15Z</time>
      </trkpt>
      <trkpt lat="45.04893" lon="4.09861">
        <ele>1138</ele>
        <time>2016-07-24T07:22:28Z</time>
      </trkpt>
      <trkpt lat="45.04884" lon="4.09867">
        <ele>1136</ele>
        <time>2016-07-24T07:22:46Z</time>
      </trkpt>
      <trkpt lat="45.0488" lon="4.09869">
        <ele>1136</ele>
        <time>2016-07-24T07:22:53Z</time>
      </trkpt>
      <trkpt lat="45.04878" lon="4.09874">
        <ele>1135</ele>
        <time>2016-07-24T07:23:06Z</time>
      </trkpt>
      <trkpt lat="45.04879" lon="4.09879">
        <ele>1134</ele>
        <time>2016-07-24T07:23:21Z</time>
      </trkpt>
      <trkpt lat="45.04868" lon="4.09884">
        <ele>1133</ele>
        <time>2016-07-24T07:23:39Z</time>
      </trkpt>
      <trkpt lat="45.04869" lon="4.09888">
        <ele>1133</ele>
        <time>2016-07-24T07:23:52Z</time>
      </trkpt>
      <trkpt lat="45.04837" lon="4.09892">
        <ele>1131</ele>
        <time>2016-07-24T07:24:07Z</time>
      </trkpt>
      <trkpt lat="45.04827" lon="4.09893">
        <ele>1126</ele>
        <time>2016-07-24T07:24:21Z</time>
      </trkpt>
      <trkpt lat="45.04821" lon="4.09894">
        <ele>1126</ele>
        <time>2016-07-24T07:24:22Z</time>
      </trkpt>
      <trkpt lat="45.04815" lon="4.0989">
        <ele>1126</ele>
        <time>2016-07-24T07:24:40Z</time>
      </trkpt>
      <trkpt lat="45.0481" lon="4.09884">
        <ele>1126</ele>
        <time>2016-07-24T07:24:54Z</time>
      </trkpt>
      <trkpt lat="45.04807" lon="4.09881">
        <ele>1126</ele>
        <time>2016-07-24T07:25:08Z</time>
      </trkpt>
      <trkpt lat="45.04788" lon="4.09867">
        <ele>1125</ele>
        <time>2016-07-24T07:25:21Z</time>
      </trkpt>
      <trkpt lat="45.0478" lon="4.09861">
        <ele>1125</ele>
        <time>2016-07-24T07:25:34Z</time>
      </trkpt>
      <trkpt lat="45.04771" lon="4.0986">
        <ele>1124</ele>
        <time>2016-07-24T07:25:50Z</time>
      </trkpt>
      <trkpt lat="45.04764" lon="4.09865">
        <ele>1123</ele>
        <time>2016-07-24T07:26:04Z</time>
      </trkpt>
      <trkpt lat="45.04748" lon="4.09858">
        <ele>1111</ele>
        <time>2016-07-24T07:26:17Z</time>
      </trkpt>
      <trkpt lat="45.04741" lon="4.09847">
        <ele>1112</ele>
        <time>2016-07-24T07:26:29Z</time>
      </trkpt>
      <trkpt lat="45.04736" lon="4.09831">
        <ele>1112</ele>
        <time>2016-07-24T07:26:32Z</time>
      </trkpt>
      <trkpt lat="45.04729" lon="4.09815">
        <ele>1109</ele>
        <time>2016-07-24T07:26:47Z</time>
      </trkpt>
      <trkpt lat="45.04726" lon="4.09795">
        <ele>1108</ele>
        <time>2016-07-24T07:27:02Z</time>
      </trkpt>
      <trkpt lat="45.04722" lon="4.09776">
        <ele>1107</ele>
        <time>2016-07-24T07:27:10Z</time>
      </trkpt>
      <trkpt lat="45.0472" lon="4.09763">
        <ele>1107</ele>
        <time>2016-07-24T07:27:26Z</time>
      </trkpt>
      <trkpt lat="45.04718" lon="4.09739">
        <ele>1101</ele>
        <time>2016-07-24T07:27:30Z</time>
      </trkpt>
      <trkpt lat="45.0472" lon="4.0972">
        <ele>1100</ele>
        <time>2016-07-24T07:27:40Z</time>
      </trkpt>
      <trkpt lat="45.04723" lon="4.09707">
        <ele>1099</ele>
        <time>2016-07-24T07:27:41Z</time>
      </trkpt>
      <trkpt lat="45.04724" lon="4.09699">
        <ele>1098</ele>
        <time>2016-07-24T07:27:54Z</time>
      </trkpt>
      <trkpt lat="45.04717" lon="4.09692">
        <ele>1097</ele>
        <time>2016-07-24T07:27:58Z</time>
      </trkpt>
      <trkpt lat="45.04715" lon="4.09683">
        <ele>1096</ele>
        <time>2016-07-24T07:28:13Z</time>
      </trkpt>
      <trkpt lat="45.04708" lon="4.09664">
        <ele>1085</ele>
        <time>2016-07-24T07:28:26Z</time>
      </trkpt>
      <trkpt lat="45.04708" lon="4.09662">
        <ele>1085</ele>
        <time>2016-07-24T07:28:42Z</time>
      </trkpt>
      <trkpt lat="45.04712" lon="4.09646">
        <ele>1084</ele>
        <time>2016-07-24T07:28:45Z</time>
      </trkpt>
      <trkpt lat="45.04712" lon="4.09638">
        <ele>1083</ele>
        <time>2016-07-24T07:29:00Z</time>
      </trkpt>
      <trkpt lat="45.04715" lon="4.09621">
        <ele>1082</ele>
        <time>2016-07-24T07:29:23Z</time>
      </trkpt>
      <trkpt lat="45.04722" lon="4.09608">
        <ele>1081</ele>
        <time>2016-07-24T07:29:37Z</time>
      </trkpt>
      <trkpt lat="45.04728" lon="4.09599">
        <ele>1080</ele>
        <time>2016-07-24T07:29:56Z</time>
      </trkpt>
      <trkpt lat="45.04734" lon="4.09589">
        <ele>1080</ele>
        <time>2016-07-24T07:30:10Z</time>
      </trkpt>
      <trkpt lat="45.04735" lon="4.09587">
        <ele>1079</ele>
        <time>2016-07-24T07:30:23Z</time>
      </trkpt>
      <trkpt lat="45.04738" lon="4.09583">
        <ele>1073</ele>
        <time>2016-07-24T07:30:35Z</time>
      </trkpt>
      <trkpt lat="45.04741" lon="4.09578">
        <ele>1073</ele>
        <time>2016-07-24T07:30:47Z</time>
      </trkpt>
      <trkpt lat="45.04742" lon="4.09575">
        <ele>1073</ele>
        <time>2016-07-24T07:30:49Z</time>
      </trkpt>
      <trkpt lat="45.04742" lon="4.09575">
        <ele>1073</ele>
        <time>2016-07-24T07:31:05Z</time>
      </trkpt>
      <trkpt lat="45.04744" lon="4.09573">
        <ele>1073</ele>
        <time>2016-07-24T07:31:18Z</time>
      </trkpt>
      <trkpt lat="45.04744" lon="4.09573">
        <ele>1073</ele>
        <time>2016-07-24T07:31:36Z</time>
      </trkpt>
      <trkpt lat="45.04744" lon="4.09572">
        <ele>1073</ele>
        <time>2016-07-24T07:31:43Z</time>
      </trkpt>
      <trkpt lat="45.04744" lon="4.0957">
        <ele>1072</ele>
        <time>2016-07-24T07:31:58Z</time>
      </trkpt>
      <trkpt lat="45.04747" lon="4.09564">
        <ele>1071</ele>
        <time>2016-07-24T07:32:00Z</time>
      </trkpt>
      <trkpt lat="45.04754" lon="4.09559">
        <ele>1074</ele>
        <time>2016-07-24T07:32:15Z</time>
      </trkpt>
      <trkpt lat="45.04756" lon="4.09557">
        <ele>1073</ele>
        <time>2016-07-24T07:32:24Z</time>
      </trkpt>
      <trkpt lat="45.04765" lon="4.09548">
        <ele>1072</ele>
        <time>2016-07-24T07:32:40Z</time>
      </trkpt>
      <trkpt lat="45.0477" lon="4.09534">
        <ele>1070</ele>
        <time>2016-07-24T07:32:56Z</time>
      </trkpt>
      <trkpt lat="45.04777" lon="4.09525">
        <ele>1069</ele>
        <time>2016-07-24T07:33:10Z</time>
      </trkpt>
      <trkpt lat="45.04779" lon="4.09522">
        <ele>1069</ele>
        <time>2016-07-24T07:33:15Z</time>
      </trkpt>
      <trkpt lat="45.04783" lon="4.09515">
        <ele>1068</ele>
        <time>2016-07-24T07:33:31Z</time>
      </trkpt>
      <trkpt lat="45.04784" lon="4.09507">
        <ele>1068</ele>
        <time>2016-07-24T07:33:45Z</time>
      </trkpt>
      <trkpt lat="45.04786" lon="4.09489">
        <ele>1054</ele>
        <time>2016-07-24T07:34:00Z</time>
      </trkpt>
      <trkpt lat="45.04793" lon="4.09467">
        <ele>1052</ele>
        <time>2016-07-24T07:34:16Z</time>
      </trkpt>
      <trkpt lat="45.04799" lon="4.09459">
        <ele>1051</ele>
        <time>2016-07-24T07:34:29Z</time>
      </trkpt>
      <trkpt lat="45.04793" lon="4.09444">
        <ele>1049</ele>
        <time>2016-07-24T07:34:33Z</time>
      </trkpt>
      <trkpt lat="45.04792" lon="4.09444">
        <ele>1049</ele>
        <time>2016-07-24T07:34:47Z</time>
      </trkpt>
      <trkpt lat="45.04778" lon="4.09436">
        <ele>1048</ele>
        <time>2016-07-24T07:34:50Z</time>
      </trkpt>
      <trkpt lat="45.04767" lon="4.09427">
        <ele>1046</ele>
        <time>2016-07-24T07:35:01Z</time>
      </trkpt>
      <trkpt lat="45.04756" lon="4.09417">
        <ele>1043</ele>
        <time>2016-07-24T07:35:12Z</time>
      </trkpt>
      <trkpt lat="45.04743" lon="4.09403">
        <ele>1038</ele>
        <time>2016-07-24T07:35:26Z</time>
      </trkpt>
      <trkpt lat="45.04729" lon="4.09397">
        <ele>1037</ele>
        <time>2016-07-24T07:35:34Z</time>
      </trkpt>
      <trkpt lat="45.04715" lon="4.09391">
        <ele>1036</ele>
        <time>2016-07-24T07:35:49Z</time>
      </trkpt>
      <trkpt lat="45.04705" lon="4.09379">
        <ele>1035</ele>
        <time>2016-07-24T07:36:03Z</time>
      </trkpt>
      <trkpt lat="45.04702" lon="4.09362">
        <ele>1034</ele>
        <time>2016-07-24T07:36:18Z</time>
      </trkpt>
      <trkpt lat="45.04698" lon="4.09354">
        <ele>1033</ele>
        <time>2016-07-24T07:36:31Z</time>
      </trkpt>
      <trkpt lat="45.04704" lon="4.09337">
        <ele>1033</ele>
        <time>2016-07-24T07:36:39Z</time>
      </trkpt>
      <trkpt lat="45.04705" lon="4.09335">
        <ele>1033</ele>
        <time>2016-07-24T07:36:53Z</time>
      </trkpt>
      <trkpt lat="45.04705" lon="4.09333">
        <ele>1025</ele>
        <time>2016-07-24T07:37:06Z</time>
      </trkpt>
      <trkpt lat="45.04705" lon="4.09332">
        <ele>1025</ele>
        <time>2016-07-24T07:37:17Z</time>
      </trkpt>
      <trkpt lat="45.04705" lon="4.09332">
        <ele>1025</ele>
        <time>2016-07-24T07:37:23Z</time>
      </trkpt>
      <trkpt lat="45.04704" lon="4.09332">
        <ele>1025</ele>
        <time>2016-07-24T07:37:29Z</time>
      </trkpt>
      <trkpt lat="45.04703" lon="4.0933">
        <ele>1025</ele>
        <time>2016-07-24T07:37:44Z</time>
      </trkpt>
      <trkpt lat="45.04693" lon="4.0932">
        <ele>1024</ele>
        <time>2016-07-24T07:37:59Z</time>
      </trkpt>
      <trkpt lat="45.04682" lon="4.09314">
        <ele>1024</ele>
        <time>2016-07-24T07:38:16Z</time>
      </trkpt>
      <trkpt lat="45.04669" lon="4.09296">
        <ele>1023</ele>
        <time>2016-07-24T07:38:21Z</time>
      </trkpt>
      <trkpt lat="45.04657" lon="4.09286">
        <ele>1024</ele>
        <time>2016-07-24T07:38:38Z</time>
      </trkpt>
      <trkpt lat="45.0465" lon="4.09278">
        <ele>1024</ele>
        <time>2016-07-24T07:38:52Z</time>
      </trkpt>
      <trkpt lat="45.04635" lon="4.09263">
        <ele>1024</ele>
        <time>2016-07-24T07:38:53Z</time>
      </trkpt>
      <trkpt lat="45.04629" lon="4.09254">
        <ele>1024</ele>
        <time>2016-07-24T07:38:55Z</time>
      </trkpt>
      <trkpt lat="45.04622" lon="4.09236">
        <ele>1017</ele>
        <time>2016-07-24T07:39:09Z</time>
      </trkpt>
      <trkpt lat="45.04617" lon="4.09228">
        <ele>1017</ele>
        <time>2016-07-24T07:39:17Z</time>
      </trkpt>
      <trkpt lat="45.04614" lon="4.09212">
        <ele>1016</ele>
        <time>2016-07-24T07:39:35Z</time>
      </trkpt>
      <trkpt lat="45.04601" lon="4.09198">
        <ele>1015</ele>
        <time>2016-07-24T07:39:38Z</time>
      </trkpt>
      <trkpt lat="45.04588" lon="4.09184">
        <ele>1014</ele>
        <time>2016-07-24T07:39:52Z</time>
      </trkpt>
      <trkpt lat="45.04586" lon="4.09183">
        <ele>1014</ele>
        <time>2016-07-24T07:39:53Z</time>
      </trkpt>
      <trkpt lat="45.04565" lon="4.09174">
        <ele>1019</ele>
        <time>2016-07-24T07:40:12Z</time>
      </trkpt>
      <trkpt lat="45.04552" lon="4.09162">
        <ele>1012</ele>
        <time>2016-07-24T07:40:27Z</time>
      </trkpt>
      <trkpt lat="45.04537" lon="4.09156">
        <ele>1012</ele>
        <time>2016-07-24T07:40:45Z</time>
      </trkpt>
      <trkpt lat="45.04529" lon="4.09152">
        <ele>1012</ele>
        <time>2016-07-24T07:41:00Z</time>
      </trkpt>
      <trkpt lat="45.04514" lon="4.09133">
        <ele>1011</ele>
        <time>2016-07-24T07:41:17Z</time>
      </trkpt>
      <trkpt lat="45.04511" lon="4.09127">
        <ele>1011</ele>
        <time>2016-07-24T07:41:35Z</time>
      </trkpt>
      <trkpt lat="45.04496" lon="4.09107">
        <ele>1011</ele>
        <time>2016-07-24T07:41:37Z</time>
      </trkpt>
      <trkpt lat="45.04477" lon="4.09092">
        <ele>1010</ele>
        <time>2016-07-24T07:41:40Z</time>
      </trkpt>
      <trkpt lat="45.04471" lon="4.09085">
        <ele>1010</ele>
        <time>2016-07-24T07:41:42Z</time>
      </trkpt>
      <trkpt lat="45.04468" lon="4.09083">
        <ele>1010</ele>
        <time>2016-07-24T07:41:57Z</time>
      </trkpt>
      <trkpt lat="45.04457" lon="4.09066">
        <ele>1002</ele>
        <time>2016-07-24T07:42:12Z</time>
      </trkpt>
      <trkpt lat="45.0445" lon="4.09048">
        <ele>1001</ele>
        <time>2016-07-24T07:42:30Z</time>
      </trkpt>
      <trkpt lat="45.04451" lon="4.09036">
        <ele>1000</ele>
        <time>2016-07-24T07:42:45Z</time>
      </trkpt>
      <trkpt lat="45.04451" lon="4.09008">
        <ele>999</ele>
        <time>2016-07-24T07:43:00Z</time>
      </trkpt>
      <trkpt lat="45.04449" lon="4.08998">
        <ele>993</ele>
        <time>2016-07-24T07:43:15Z</time>
      </trkpt>
      <trkpt lat="45.04449" lon="4.08975">
        <ele>992</ele>
        <time>2016-07-24T07:43:23Z</time>
      </trkpt>
      <trkpt lat="45.04443" lon="4.08959">
        <ele>991</ele>
        <time>2016-07-24T07:43:41Z</time>
      </trkpt>
      <trkpt lat="45.04444" lon="4.08952">
        <ele>990</ele>
        <time>2016-07-24T07:43:58Z</time>
      </trkpt>
      <trkpt lat="45.04451" lon="4.08922">
        <ele>989</ele>
        <time>2016-07-24T07:44:13Z</time>
      </trkpt>
      <trkpt lat="45.04462" lon="4.08901">
        <ele>982</ele>
        <time>2016-07-24T07:44:28Z</time>
      </trkpt>
      <trkpt lat="45.04467" lon="4.08891">
        <ele>981</ele>
        <time>2016-07-24T07:44:43Z</time>
      </trkpt>
      <trkpt lat="45.04479" lon="4.0887">
        <ele>980</ele>
        <time>2016-07-24T07:44:58Z</time>
      </trkpt>
      <trkpt lat="45.04489" lon="4.08854">
        <ele>978</ele>
        <time>2016-07-24T07:45:14Z</time>
      </trkpt>
      <trkpt lat="45.04496" lon="4.08841">
        <ele>976</ele>
        <time>2016-07-24T07:45:27Z</time>
      </trkpt>
      <trkpt lat="45.04503" lon="4.08832">
        <ele>974</ele>
        <time>2016-07-24T07:45:34Z</time>
      </trkpt>
      <trkpt lat="45.0452" lon="4.08813">
        <ele>971</ele>
        <time>2016-07-24T07:45:47Z</time>
      </trkpt>
      <trkpt lat="45.04536" lon="4.08795">
        <ele>969</ele>
        <time>2016-07-24T07:45:57Z</time>
      </trkpt>
      <trkpt lat="45.04549" lon="4.08783">
        <ele>969</ele>
        <time>2016-07-24T07:46:04Z</time>
      </trkpt>
      <trkpt lat="45.04554" lon="4.08775">
        <ele>968</ele>
        <time>2016-07-24T07:46:20Z</time>
      </trkpt>
      <trkpt lat="45.04553" lon="4.08763">
        <ele>968</ele>
        <time>2016-07-24T07:46:21Z</time>
      </trkpt>
      <trkpt lat="45.04551" lon="4.08752">
        <ele>967</ele>
        <time>2016-07-24T07:46:38Z</time>
      </trkpt>
      <trkpt lat="45.04546" lon="4.08734">
        <ele>963</ele>
        <time>2016-07-24T07:46:51Z</time>
      </trkpt>
      <trkpt lat="45.04542" lon="4.08717">
        <ele>963</ele>
        <time>2016-07-24T07:47:09Z</time>
      </trkpt>
      <trkpt lat="45.04537" lon="4.08689">
        <ele>961</ele>
        <time>2016-07-24T07:47:25Z</time>
      </trkpt>
      <trkpt lat="45.04536" lon="4.08681">
        <ele>961</ele>
        <time>2016-07-24T07:47:33Z</time>
      </trkpt>
      <trkpt lat="45.04532" lon="4.08669">
        <ele>961</ele>
        <time>2016-07-24T07:47:41Z</time>
      </trkpt>
      <trkpt lat="45.04531" lon="4.08664">
        <ele>957</ele>
        <time>2016-07-24T07:47:58Z</time>
      </trkpt>
      <trkpt lat="45.04528" lon="4.08641">
        <ele>956</ele>
        <time>2016-07-24T07:48:11Z</time>
      </trkpt>
      <trkpt lat="45.04525" lon="4.08614">
        <ele>955</ele>
        <time>2016-07-24T07:48:29Z</time>
      </trkpt>
      <trkpt lat="45.04525" lon="4.08612">
        <ele>955</ele>
        <time>2016-07-24T07:48:46Z</time>
      </trkpt>
      <trkpt lat="45.04523" lon="4.08605">
        <ele>955</ele>
        <time>2016-07-24T07:49:05Z</time>
      </trkpt>
      <trkpt lat="45.04521" lon="4.08593">
        <ele>954</ele>
        <time>2016-07-24T07:49:28Z</time>
      </trkpt>
      <trkpt lat="45.04514" lon="4.08561">
        <ele>950</ele>
        <time>2016-07-24T07:49:46Z</time>
      </trkpt>
      <trkpt lat="45.04507" lon="4.08527">
        <ele>949</ele>
        <time>2016-07-24T07:50:03Z</time>
      </trkpt>
      <trkpt lat="45.04505" lon="4.08519">
        <ele>949</ele>
        <time>2016-07-24T07:50:14Z</time>
      </trkpt>
      <trkpt lat="45.04502" lon="4.08508">
        <ele>948</ele>
        <time>2016-07-24T07:50:29Z</time>
      </trkpt>
      <trkpt lat="45.04496" lon="4.08482">
        <ele>945</ele>
        <time>2016-07-24T07:50:40Z</time>
      </trkpt>
      <trkpt lat="45.04491" lon="4.08467">
        <ele>944</ele>
        <time>2016-07-24T07:50:45Z</time>
      </trkpt>
      <trkpt lat="45.04489" lon="4.08456">
        <ele>943</ele>
        <time>2016-07-24T07:51:01Z</time>
      </trkpt>
      <trkpt lat="45.04487" lon="4.08435">
        <ele>942</ele>
        <time>2016-07-24T07:51:16Z</time>
      </trkpt>
      <trkpt lat="45.04483" lon="4.08418">
        <ele>942</ele>
        <time>2016-07-24T07:51:27Z</time>
      </trkpt>
      <trkpt lat="45.04482" lon="4.0841">
        <ele>938</ele>
        <time>2016-07-24T07:51:32Z</time>
      </trkpt>
      <trkpt lat="45.04476" lon="4.08382">
        <ele>935</ele>
        <time>2016-07-24T07:51:42Z</time>
      </trkpt>
      <trkpt lat="45.04472" lon="4.08358">
        <ele>934</ele>
        <time>2016-07-24T07:51:56Z</time>
      </trkpt>
      <trkpt lat="45.04462" lon="4.08334">
        <ele>933</ele>
        <time>2016-07-24T07:52:10Z</time>
      </trkpt>
      <trkpt lat="45.04452" lon="4.08305">
        <ele>927</ele>
        <time>2016-07-24T07:52:20Z</time>
      </trkpt>
      <trkpt lat="45.04452" lon="4.08301">
        <ele>927</ele>
        <time>2016-07-24T07:52:34Z</time>
      </trkpt>
      <trkpt lat="45.04446" lon="4.08273">
        <ele>926</ele>
        <time>2016-07-24T07:52:38Z</time>
      </trkpt>
      <trkpt lat="45.04445" lon="4.08267">
        <ele>926</ele>
        <time>2016-07-24T07:52:43Z</time>
      </trkpt>
      <trkpt lat="45.04445" lon="4.08259">
        <ele>926</ele>
        <time>2016-07-24T07:52:57Z</time>
      </trkpt>
      <trkpt lat="45.04445" lon="4.08257">
        <ele>926</ele>
        <time>2016-07-24T07:53:10Z</time>
      </trkpt>
      <trkpt lat="45.04446" lon="4.08249">
        <ele>920</ele>
        <time>2016-07-24T07:53:23Z</time>
      </trkpt>
      <trkpt lat="45.04438" lon="4.0824">
        <ele>921</ele>
        <time>2016-07-24T07:53:29Z</time>
      </trkpt>
      <trkpt lat="45.04427" lon="4.0823">
        <ele>921</ele>
        <time>2016-07-24T07:53:31Z</time>
      </trkpt>
      <trkpt lat="45.04419" lon="4.08218">
        <ele>919</ele>
        <time>2016-07-24T07:53:44Z</time>
      </trkpt>
      <trkpt lat="45.04411" lon="4.08207">
        <ele>915</ele>
        <time>2016-07-24T07:53:56Z</time>
      </trkpt>
      <trkpt lat="45.04405" lon="4.08194">
        <ele>914</ele>
        <time>2016-07-24T07:54:08Z</time>
      </trkpt>
      <trkpt lat="45.04396" lon="4.08183">
        <ele>913</ele>
        <time>2016-07-24T07:54:23Z</time>
      </trkpt>
      <trkpt lat="45.04395" lon="4.08179">
        <ele>913</ele>
        <time>2016-07-24T07:54:31Z</time>
      </trkpt>
      <trkpt lat="45.04394" lon="4.08176">
        <ele>913</ele>
        <time>2016-07-24T07:54:45Z</time>
      </trkpt>
      <trkpt lat="45.04393" lon="4.08176">
        <ele>913</ele>
        <time>2016-07-24T07:54:59Z</time>
      </trkpt>
      <trkpt lat="45.04393" lon="4.08176">
        <ele>913</ele>
        <time>2016-07-24T07:55:11Z</time>
      </trkpt>
      <trkpt lat="45.04391" lon="4.08169">
        <ele>913</ele>
        <time>2016-07-24T07:55:23Z</time>
      </trkpt>
      <trkpt lat="45.0439" lon="4.08158">
        <ele>906</ele>
        <time>2016-07-24T07:55:29Z</time>
      </trkpt>
      <trkpt lat="45.04387" lon="4.08152">
        <ele>904</ele>
        <time>2016-07-24T07:55:34Z</time>
      </trkpt>
      <trkpt lat="45.0438" lon="4.0814">
        <ele>902</ele>
        <time>2016-07-24T07:55:49Z</time>
      </trkpt>
      <trkpt lat="45.04377" lon="4.08134">
        <ele>902</ele>
        <time>2016-07-24T07:56:02Z</time>
      </trkpt>
      <trkpt lat="45.04372" lon="4.08128">
        <ele>901</ele>
        <time>2016-07-24T07:56:15Z</time>
      </trkpt>
      <trkpt lat="45.0436" lon="4.08113">
        <ele>899</ele>
        <time>2016-07-24T07:56:27Z</time>
      </trkpt>
      <trkpt lat="45.04358" lon="4.08099">
        <ele>897</ele>
        <time>2016-07-24T07:56:39Z</time>
      </trkpt>
      <trkpt lat="45.04361" lon="4.08077">
        <ele>889</ele>
        <time>2016-07-24T07:56:51Z</time>
      </trkpt>
      <trkpt lat="45.04366" lon="4.08064">
        <ele>889</ele>
        <time>2016-07-24T07:57:06Z</time>
      </trkpt>
      <trkpt lat="45.04374" lon="4.08051">
        <ele>888</ele>
        <time>2016-07-24T07:57:13Z</time>
      </trkpt>
      <trkpt lat="45.04374" lon="4.08047">
        <ele>888</ele>
        <time>2016-07-24T07:57:28Z</time>
      </trkpt>
      <trkpt lat="45.04373" lon="4.08041">
        <ele>888</ele>
        <time>2016-07-24T07:57:40Z</time>
      </trkpt>
      <trkpt lat="45.04373" lon="4.08041">
        <ele>888</ele>
        <time>2016-07-24T07:57:54Z</time>
      </trkpt>
      <trkpt lat="45.04372" lon="4.08042">
        <ele>888</ele>
        <time>2016-07-24T07:58:05Z</time>
      </trkpt>
      <trkpt lat="45.0437" lon="4.08028">
        <ele>887</ele>
        <time>2016-07-24T07:58:21Z</time>
      </trkpt>
      <trkpt lat="45.04369" lon="4.08013">
        <ele>886</ele>
        <time>2016-07-24T07:58:34Z</time>
      </trkpt>
      <trkpt lat="45.04382" lon="4.07999">
        <ele>880</ele>
        <time>2016-07-24T07:58:51Z</time>
      </trkpt>
      <trkpt lat="45.04384" lon="4.07986">
        <ele>880</ele>
        <time>2016-07-24T07:59:23Z</time>
      </trkpt>
      <trkpt lat="45.04385" lon="4.07971">
        <ele>880</ele>
        <time>2016-07-24T08:00:01Z</time>
      </trkpt>
      <trkpt lat="45.04384" lon="4.07963">
        <ele>880</ele>
        <time>2016-07-24T08:00:25Z</time>
      </trkpt>
      <trkpt lat="45.0438" lon="4.07957">
        <ele>880</ele>
        <time>2016-07-24T08:00:37Z</time>
      </trkpt>
      <trkpt lat="45.04382" lon="4.07939">
        <ele>879</ele>
        <time>2016-07-24T08:00:48Z</time>
      </trkpt>
      <trkpt lat="45.0438" lon="4.0792">
        <ele>879</ele>
        <time>2016-07-24T08:01:02Z</time>
      </trkpt>
      <trkpt lat="45.0437" lon="4.07912">
        <ele>875</ele>
        <time>2016-07-24T08:01:17Z</time>
      </trkpt>
      <trkpt lat="45.04368" lon="4.07899">
        <ele>875</ele>
        <time>2016-07-24T08:01:31Z</time>
      </trkpt>
      <trkpt lat="45.04364" lon="4.07884">
        <ele>874</ele>
        <time>2016-07-24T08:01:44Z</time>
      </trkpt>
      <trkpt lat="45.04358" lon="4.07868">
        <ele>873</ele>
        <time>2016-07-24T08:01:57Z</time>
      </trkpt>
      <trkpt lat="45.04348" lon="4.07849">
        <ele>872</ele>
        <time>2016-07-24T08:02:11Z</time>
      </trkpt>
      <trkpt lat="45.04345" lon="4.0783">
        <ele>868</ele>
        <time>2016-07-24T08:02:23Z</time>
      </trkpt>
      <trkpt lat="45.04338" lon="4.07812">
        <ele>868</ele>
        <time>2016-07-24T08:02:35Z</time>
      </trkpt>
      <trkpt lat="45.04332" lon="4.07789">
        <ele>869</ele>
        <time>2016-07-24T08:02:44Z</time>
      </trkpt>
      <trkpt lat="45.04326" lon="4.07757">
        <ele>866</ele>
        <time>2016-07-24T08:03:00Z</time>
      </trkpt>
      <trkpt lat="45.04328" lon="4.07736">
        <ele>865</ele>
        <time>2016-07-24T08:03:11Z</time>
      </trkpt>
      <trkpt lat="45.04329" lon="4.07713">
        <ele>865</ele>
        <time>2016-07-24T08:03:24Z</time>
      </trkpt>
      <trkpt lat="45.0433" lon="4.07708">
        <ele>864</ele>
        <time>2016-07-24T08:03:35Z</time>
      </trkpt>
      <trkpt lat="45.04336" lon="4.07686">
        <ele>861</ele>
        <time>2016-07-24T08:03:47Z</time>
      </trkpt>
      <trkpt lat="45.04335" lon="4.07685">
        <ele>861</ele>
        <time>2016-07-24T08:03:59Z</time>
      </trkpt>
      <trkpt lat="45.04333" lon="4.0768">
        <ele>861</ele>
        <time>2016-07-24T08:04:17Z</time>
      </trkpt>
      <trkpt lat="45.04335" lon="4.07656">
        <ele>859</ele>
        <time>2016-07-24T08:04:29Z</time>
      </trkpt>
      <trkpt lat="45.04335" lon="4.07638">
        <ele>859</ele>
        <time>2016-07-24T08:04:48Z</time>
      </trkpt>
      <trkpt lat="45.04329" lon="4.07622">
        <ele>860</ele>
        <time>2016-07-24T08:05:14Z</time>
      </trkpt>
      <trkpt lat="45.04328" lon="4.076">
        <ele>859</ele>
        <time>2016-07-24T08:05:26Z</time>
      </trkpt>
      <trkpt lat="45.04328" lon="4.0759">
        <ele>857</ele>
        <time>2016-07-24T08:05:39Z</time>
      </trkpt>
      <trkpt lat="45.04327" lon="4.07569">
        <ele>856</ele>
        <time>2016-07-24T08:05:49Z</time>
      </trkpt>
      <trkpt lat="45.04332" lon="4.07547">
        <ele>856</ele>
        <time>2016-07-24T08:06:02Z</time>
      </trkpt>
      <trkpt lat="45.04326" lon="4.07529">
        <ele>856</ele>
        <time>2016-07-24T08:06:16Z</time>
      </trkpt>
      <trkpt lat="45.04323" lon="4.07505">
        <ele>855</ele>
        <time>2016-07-24T08:06:29Z</time>
      </trkpt>
      <trkpt lat="45.04316" lon="4.07478">
        <ele>852</ele>
        <time>2016-07-24T08:06:48Z</time>
      </trkpt>
      <trkpt lat="45.04307" lon="4.07453">
        <ele>852</ele>
        <time>2016-07-24T08:06:59Z</time>
      </trkpt>
      <trkpt lat="45.04284" lon="4.07418">
        <ele>851</ele>
        <time>2016-07-24T08:07:14Z</time>
      </trkpt>
      <trkpt lat="45.0426" lon="4.07397">
        <ele>849</ele>
        <time>2016-07-24T08:07:28Z</time>
      </trkpt>
      <trkpt lat="45.04256" lon="4.0737">
        <ele>848</ele>
        <time>2016-07-24T08:07:42Z</time>
      </trkpt>
      <trkpt lat="45.04252" lon="4.07348">
        <ele>847</ele>
        <time>2016-07-24T08:07:55Z</time>
      </trkpt>
      <trkpt lat="45.04249" lon="4.07328">
        <ele>846</ele>
        <time>2016-07-24T08:08:26Z</time>
      </trkpt>
      <trkpt lat="45.0424" lon="4.07312">
        <ele>846</ele>
        <time>2016-07-24T08:08:48Z</time>
      </trkpt>
      <trkpt lat="45.04234" lon="4.07307">
        <ele>846</ele>
        <time>2016-07-24T08:09:08Z</time>
      </trkpt>
      <trkpt lat="45.04216" lon="4.07281">
        <ele>846</ele>
        <time>2016-07-24T08:09:33Z</time>
      </trkpt>
      <trkpt lat="45.04203" lon="4.07253">
        <ele>846</ele>
        <time>2016-07-24T08:09:55Z</time>
      </trkpt>
      <trkpt lat="45.04197" lon="4.07245">
        <ele>845</ele>
        <time>2016-07-24T08:10:08Z</time>
      </trkpt>
      <trkpt lat="45.04187" lon="4.07235">
        <ele>845</ele>
        <time>2016-07-24T08:10:22Z</time>
      </trkpt>
      <trkpt lat="45.0417" lon="4.07219">
        <ele>845</ele>
        <time>2016-07-24T08:10:34Z</time>
      </trkpt>
      <trkpt lat="45.04166" lon="4.07214">
        <ele>846</ele>
        <time>2016-07-24T08:10:47Z</time>
      </trkpt>
      <trkpt lat="45.04146" lon="4.07195">
        <ele>846</ele>
        <time>2016-07-24T08:11:02Z</time>
      </trkpt>
      <trkpt lat="45.04126" lon="4.07182">
        <ele>846</ele>
        <time>2016-07-24T08:11:16Z</time>
      </trkpt>
      <trkpt lat="45.04106" lon="4.07163">
        <ele>844</ele>
        <time>2016-07-24T08:11:28Z</time>
      </trkpt>
      <trkpt lat="45.04093" lon="4.07143">
        <ele>843</ele>
        <time>2016-07-24T08:11:33Z</time>
      </trkpt>
      <trkpt lat="45.0408" lon="4.07121">
        <ele>843</ele>
        <time>2016-07-24T08:11:44Z</time>
      </trkpt>
      <trkpt lat="45.04075" lon="4.07113">
        <ele>843</ele>
        <time>2016-07-24T08:11:58Z</time>
      </trkpt>
      <trkpt lat="45.0407" lon="4.07103">
        <ele>843</ele>
        <time>2016-07-24T08:12:08Z</time>
      </trkpt>
      <trkpt lat="45.04055" lon="4.07087">
        <ele>843</ele>
        <time>2016-07-24T08:12:20Z</time>
      </trkpt>
      <trkpt lat="45.04033" lon="4.07073">
        <ele>840</ele>
        <time>2016-07-24T08:12:34Z</time>
      </trkpt>
      <trkpt lat="45.04011" lon="4.07068">
        <ele>840</ele>
        <time>2016-07-24T08:12:38Z</time>
      </trkpt>
      <trkpt lat="45.03988" lon="4.07058">
        <ele>839</ele>
        <time>2016-07-24T08:12:44Z</time>
      </trkpt>
      <trkpt lat="45.03972" lon="4.07054">
        <ele>839</ele>
        <time>2016-07-24T08:12:50Z</time>
      </trkpt>
      <trkpt lat="45.03952" lon="4.07039">
        <ele>838</ele>
        <time>2016-07-24T08:13:03Z</time>
      </trkpt>
      <trkpt lat="45.03937" lon="4.07021">
        <ele>838</ele>
        <time>2016-07-24T08:13:15Z</time>
      </trkpt>
      <trkpt lat="45.03916" lon="4.06996">
        <ele>836</ele>
        <time>2016-07-24T08:13:37Z</time>
      </trkpt>
      <trkpt lat="45.03906" lon="4.06986">
        <ele>837</ele>
        <time>2016-07-24T08:13:48Z</time>
      </trkpt>
      <trkpt lat="45.03892" lon="4.06968">
        <ele>837</ele>
        <time>2016-07-24T08:14:03Z</time>
      </trkpt>
      <trkpt lat="45.03883" lon="4.06945">
        <ele>837</ele>
        <time>2016-07-24T08:14:16Z</time>
      </trkpt>
      <trkpt lat="45.03874" lon="4.06908">
        <ele>836</ele>
        <time>2016-07-24T08:14:32Z</time>
      </trkpt>
      <trkpt lat="45.03867" lon="4.06876">
        <ele>836</ele>
        <time>2016-07-24T08:14:44Z</time>
      </trkpt>
      <trkpt lat="45.03857" lon="4.06845">
        <ele>836</ele>
        <time>2016-07-24T08:14:58Z</time>
      </trkpt>
      <trkpt lat="45.03851" lon="4.06812">
        <ele>835</ele>
        <time>2016-07-24T08:15:11Z</time>
      </trkpt>
      <trkpt lat="45.03846" lon="4.06777">
        <ele>834</ele>
        <time>2016-07-24T08:15:24Z</time>
      </trkpt>
      <trkpt lat="45.03843" lon="4.0675">
        <ele>834</ele>
        <time>2016-07-24T08:15:37Z</time>
      </trkpt>
      <trkpt lat="45.03835" lon="4.06724">
        <ele>833</ele>
        <time>2016-07-24T08:15:50Z</time>
      </trkpt>
      <trkpt lat="45.03821" lon="4.06704">
        <ele>835</ele>
        <time>2016-07-24T08:16:01Z</time>
      </trkpt>
      <trkpt lat="45.03806" lon="4.06682">
        <ele>835</ele>
        <time>2016-07-24T08:16:20Z</time>
      </trkpt>
      <trkpt lat="45.03794" lon="4.06649">
        <ele>832</ele>
        <time>2016-07-24T08:16:37Z</time>
      </trkpt>
      <trkpt lat="45.03773" lon="4.06626">
        <ele>832</ele>
        <time>2016-07-24T08:16:52Z</time>
      </trkpt>
      <trkpt lat="45.03753" lon="4.06604">
        <ele>832</ele>
        <time>2016-07-24T08:17:10Z</time>
      </trkpt>
      <trkpt lat="45.03742" lon="4.06589">
        <ele>834</ele>
        <time>2016-07-24T08:17:22Z</time>
      </trkpt>
      <trkpt lat="45.03738" lon="4.06581">
        <ele>833</ele>
        <time>2016-07-24T08:17:36Z</time>
      </trkpt>
      <trkpt lat="45.0373" lon="4.06558">
        <ele>833</ele>
        <time>2016-07-24T08:17:50Z</time>
      </trkpt>
      <trkpt lat="45.03717" lon="4.06537">
        <ele>833</ele>
        <time>2016-07-24T08:18:03Z</time>
      </trkpt>
      <trkpt lat="45.03708" lon="4.06533">
        <ele>834</ele>
        <time>2016-07-24T08:18:17Z</time>
      </trkpt>
      <trkpt lat="45.03706" lon="4.06534">
        <ele>834</ele>
        <time>2016-07-24T08:18:30Z</time>
      </trkpt>
      <trkpt lat="45.03704" lon="4.06534">
        <ele>834</ele>
        <time>2016-07-24T08:18:44Z</time>
      </trkpt>
      <trkpt lat="45.03681" lon="4.06548">
        <ele>835</ele>
        <time>2016-07-24T08:18:58Z</time>
      </trkpt>
      <trkpt lat="45.03658" lon="4.06563">
        <ele>837</ele>
        <time>2016-07-24T08:19:13Z</time>
      </trkpt>
      <trkpt lat="45.03649" lon="4.06563">
        <ele>837</ele>
        <time>2016-07-24T08:19:23Z</time>
      </trkpt>
      <trkpt lat="45.03639" lon="4.06553">
        <ele>837</ele>
        <time>2016-07-24T08:19:37Z</time>
      </trkpt>
      <trkpt lat="45.03636" lon="4.06522">
        <ele>837</ele>
        <time>2016-07-24T08:19:52Z</time>
      </trkpt>
      <trkpt lat="45.03632" lon="4.06504">
        <ele>837</ele>
        <time>2016-07-24T08:20:05Z</time>
      </trkpt>
      <trkpt lat="45.03628" lon="4.065">
        <ele>837</ele>
        <time>2016-07-24T08:20:19Z</time>
      </trkpt>
      <trkpt lat="45.03628" lon="4.065">
        <ele>835</ele>
        <time>2016-07-24T08:20:33Z</time>
      </trkpt>
      <trkpt lat="45.03627" lon="4.06498">
        <ele>835</ele>
        <time>2016-07-24T08:20:45Z</time>
      </trkpt>
      <trkpt lat="45.03626" lon="4.06496">
        <ele>835</ele>
        <time>2016-07-24T08:20:56Z</time>
      </trkpt>
      <trkpt lat="45.03633" lon="4.06496">
        <ele>835</ele>
        <time>2016-07-24T08:21:08Z</time>
      </trkpt>
      <trkpt lat="45.03636" lon="4.06513">
        <ele>837</ele>
        <time>2016-07-24T08:21:21Z</time>
      </trkpt>
      <trkpt lat="45.03636" lon="4.0651">
        <ele>837</ele>
        <time>2016-07-24T08:21:33Z</time>
      </trkpt>
      <trkpt lat="45.03634" lon="4.06509">
        <ele>837</ele>
        <time>2016-07-24T08:21:44Z</time>
      </trkpt>
      <trkpt lat="45.03637" lon="4.06519">
        <ele>837</ele>
        <time>2016-07-24T08:21:57Z</time>
      </trkpt>
      <trkpt lat="45.03638" lon="4.06537">
        <ele>837</ele>
        <time>2016-07-24T08:22:10Z</time>
      </trkpt>
      <trkpt lat="45.03639" lon="4.06545">
        <ele>837</ele>
        <time>2016-07-24T08:22:22Z</time>
      </trkpt>
      <trkpt lat="45.0364" lon="4.06565">
        <ele>837</ele>
        <time>2016-07-24T08:22:26Z</time>
      </trkpt>
      <trkpt lat="45.03646" lon="4.06571">
        <ele>838</ele>
        <time>2016-07-24T08:22:39Z</time>
      </trkpt>
      <trkpt lat="45.03655" lon="4.06567">
        <ele>838</ele>
        <time>2016-07-24T08:22:50Z</time>
      </trkpt>
      <trkpt lat="45.03673" lon="4.06557">
        <ele>835</ele>
        <time>2016-07-24T08:23:03Z</time>
      </trkpt>
      <trkpt lat="45.03693" lon="4.06542">
        <ele>834</ele>
        <time>2016-07-24T08:23:16Z</time>
      </trkpt>
      <trkpt lat="45.03714" lon="4.06539">
        <ele>834</ele>
        <time>2016-07-24T08:23:28Z</time>
      </trkpt>
      <trkpt lat="45.03728" lon="4.06564">
        <ele>833</ele>
        <time>2016-07-24T08:23:39Z</time>
      </trkpt>
      <trkpt lat="45.0374" lon="4.06594">
        <ele>834</ele>
        <time>2016-07-24T08:23:42Z</time>
      </trkpt>
      <trkpt lat="45.03754" lon="4.06614">
        <ele>832</ele>
        <time>2016-07-24T08:23:56Z</time>
      </trkpt>
      <trkpt lat="45.03769" lon="4.06632">
        <ele>832</ele>
        <time>2016-07-24T08:24:10Z</time>
      </trkpt>
      <trkpt lat="45.03789" lon="4.0666">
        <ele>832</ele>
        <time>2016-07-24T08:24:23Z</time>
      </trkpt>
      <trkpt lat="45.03801" lon="4.06679">
        <ele>835</ele>
        <time>2016-07-24T08:24:36Z</time>
      </trkpt>
      <trkpt lat="45.03802" lon="4.0668">
        <ele>835</ele>
        <time>2016-07-24T08:24:47Z</time>
      </trkpt>
      <trkpt lat="45.03806" lon="4.06684">
        <ele>835</ele>
        <time>2016-07-24T08:25:00Z</time>
      </trkpt>
      <trkpt lat="45.03824" lon="4.06704">
        <ele>835</ele>
        <time>2016-07-24T08:25:16Z</time>
      </trkpt>
      <trkpt lat="45.03843" lon="4.06735">
        <ele>833</ele>
        <time>2016-07-24T08:25:29Z</time>
      </trkpt>
      <trkpt lat="45.03847" lon="4.06754">
        <ele>834</ele>
        <time>2016-07-24T08:25:41Z</time>
      </trkpt>
      <trkpt lat="45.03849" lon="4.06762">
        <ele>834</ele>
        <time>2016-07-24T08:25:55Z</time>
      </trkpt>
      <trkpt lat="45.03855" lon="4.0681">
        <ele>835</ele>
        <time>2016-07-24T08:26:09Z</time>
      </trkpt>
      <trkpt lat="45.0386" lon="4.06848">
        <ele>836</ele>
        <time>2016-07-24T08:26:22Z</time>
      </trkpt>
      <trkpt lat="45.03868" lon="4.06888">
        <ele>836</ele>
        <time>2016-07-24T08:26:35Z</time>
      </trkpt>
      <trkpt lat="45.03876" lon="4.06919">
        <ele>837</ele>
        <time>2016-07-24T08:26:50Z</time>
      </trkpt>
      <trkpt lat="45.03887" lon="4.06951">
        <ele>837</ele>
        <time>2016-07-24T08:27:05Z</time>
      </trkpt>
      <trkpt lat="45.03895" lon="4.06972">
        <ele>837</ele>
        <time>2016-07-24T08:27:18Z</time>
      </trkpt>
      <trkpt lat="45.0392" lon="4.07">
        <ele>836</ele>
        <time>2016-07-24T08:27:31Z</time>
      </trkpt>
      <trkpt lat="45.03932" lon="4.07015">
        <ele>837</ele>
        <time>2016-07-24T08:27:42Z</time>
      </trkpt>
      <trkpt lat="45.03945" lon="4.07044">
        <ele>838</ele>
        <time>2016-07-24T08:27:49Z</time>
      </trkpt>
      <trkpt lat="45.03953" lon="4.07051">
        <ele>839</ele>
        <time>2016-07-24T08:27:54Z</time>
      </trkpt>
      <trkpt lat="45.03974" lon="4.07061">
        <ele>839</ele>
        <time>2016-07-24T08:28:07Z</time>
      </trkpt>
      <trkpt lat="45.03996" lon="4.07066">
        <ele>840</ele>
        <time>2016-07-24T08:28:20Z</time>
      </trkpt>
      <trkpt lat="45.04014" lon="4.07073">
        <ele>840</ele>
        <time>2016-07-24T08:28:32Z</time>
      </trkpt>
      <trkpt lat="45.04039" lon="4.07089">
        <ele>843</ele>
        <time>2016-07-24T08:28:38Z</time>
      </trkpt>
      <trkpt lat="45.04062" lon="4.07112">
        <ele>843</ele>
        <time>2016-07-24T08:28:55Z</time>
      </trkpt>
      <trkpt lat="45.04081" lon="4.07138">
        <ele>844</ele>
        <time>2016-07-24T08:29:07Z</time>
      </trkpt>
      <trkpt lat="45.04104" lon="4.07166">
        <ele>844</ele>
        <time>2016-07-24T08:29:18Z</time>
      </trkpt>
      <trkpt lat="45.04126" lon="4.07182">
        <ele>846</ele>
        <time>2016-07-24T08:29:33Z</time>
      </trkpt>
      <trkpt lat="45.04151" lon="4.072">
        <ele>846</ele>
        <time>2016-07-24T08:29:45Z</time>
      </trkpt>
      <trkpt lat="45.04173" lon="4.0722">
        <ele>845</ele>
        <time>2016-07-24T08:30:04Z</time>
      </trkpt>
      <trkpt lat="45.04191" lon="4.07248">
        <ele>845</ele>
        <time>2016-07-24T08:30:16Z</time>
      </trkpt>
      <trkpt lat="45.04212" lon="4.07268">
        <ele>846</ele>
        <time>2016-07-24T08:30:27Z</time>
      </trkpt>
      <trkpt lat="45.04232" lon="4.0727">
        <ele>846</ele>
        <time>2016-07-24T08:30:40Z</time>
      </trkpt>
      <trkpt lat="45.04256" lon="4.07267">
        <ele>845</ele>
        <time>2016-07-24T08:30:51Z</time>
      </trkpt>
      <trkpt lat="45.04273" lon="4.0726">
        <ele>846</ele>
        <time>2016-07-24T08:30:53Z</time>
      </trkpt>
      <trkpt lat="45.04297" lon="4.0725">
        <ele>847</ele>
        <time>2016-07-24T08:31:05Z</time>
      </trkpt>
      <trkpt lat="45.04323" lon="4.07254">
        <ele>848</ele>
        <time>2016-07-24T08:31:11Z</time>
      </trkpt>
      <trkpt lat="45.04326" lon="4.07255">
        <ele>848</ele>
        <time>2016-07-24T08:31:23Z</time>
      </trkpt>
      <trkpt lat="45.04342" lon="4.07269">
        <ele>853</ele>
        <time>2016-07-24T08:31:30Z</time>
      </trkpt>
      <trkpt lat="45.04365" lon="4.07278">
        <ele>855</ele>
        <time>2016-07-24T08:31:36Z</time>
      </trkpt>
      <trkpt lat="45.04382" lon="4.07262">
        <ele>857</ele>
        <time>2016-07-24T08:31:38Z</time>
      </trkpt>
      <trkpt lat="45.04393" lon="4.07236">
        <ele>857</ele>
        <time>2016-07-24T08:31:54Z</time>
      </trkpt>
      <trkpt lat="45.04403" lon="4.07208">
        <ele>857</ele>
        <time>2016-07-24T08:32:07Z</time>
      </trkpt>
      <trkpt lat="45.04409" lon="4.07207">
        <ele>858</ele>
        <time>2016-07-24T08:32:17Z</time>
      </trkpt>
      <trkpt lat="45.04421" lon="4.07229">
        <ele>865</ele>
        <time>2016-07-24T08:32:29Z</time>
      </trkpt>
      <trkpt lat="45.04433" lon="4.07255">
        <ele>867</ele>
        <time>2016-07-24T08:32:44Z</time>
      </trkpt>
      <trkpt lat="45.04443" lon="4.07278">
        <ele>870</ele>
        <time>2016-07-24T08:32:50Z</time>
      </trkpt>
      <trkpt lat="45.04453" lon="4.07301">
        <ele>871</ele>
        <time>2016-07-24T08:33:04Z</time>
      </trkpt>
      <trkpt lat="45.04461" lon="4.0732">
        <ele>873</ele>
        <time>2016-07-24T08:33:16Z</time>
      </trkpt>
      <trkpt lat="45.0447" lon="4.0734">
        <ele>876</ele>
        <time>2016-07-24T08:33:28Z</time>
      </trkpt>
      <trkpt lat="45.04473" lon="4.07346">
        <ele>877</ele>
        <time>2016-07-24T08:33:38Z</time>
      </trkpt>
      <trkpt lat="45.04475" lon="4.07348">
        <ele>877</ele>
        <time>2016-07-24T08:33:42Z</time>
      </trkpt>
      <trkpt lat="45.04485" lon="4.07358">
        <ele>878</ele>
        <time>2016-07-24T08:33:55Z</time>
      </trkpt>
      <trkpt lat="45.04489" lon="4.07361">
        <ele>878</ele>
        <time>2016-07-24T08:34:05Z</time>
      </trkpt>
      <trkpt lat="45.04501" lon="4.07376">
        <ele>886</ele>
        <time>2016-07-24T08:34:09Z</time>
      </trkpt>
      <trkpt lat="45.04505" lon="4.07401">
        <ele>886</ele>
        <time>2016-07-24T08:34:17Z</time>
      </trkpt>
      <trkpt lat="45.04508" lon="4.07413">
        <ele>886</ele>
        <time>2016-07-24T08:34:21Z</time>
      </trkpt>
      <trkpt lat="45.04509" lon="4.07417">
        <ele>887</ele>
        <time>2016-07-24T08:34:26Z</time>
      </trkpt>
      <trkpt lat="45.04507" lon="4.07429">
        <ele>888</ele>
        <time>2016-07-24T08:34:42Z</time>
      </trkpt>
      <trkpt lat="45.04508" lon="4.07436">
        <ele>888</ele>
        <time>2016-07-24T08:34:55Z</time>
      </trkpt>
      <trkpt lat="45.04508" lon="4.07436">
        <ele>888</ele>
        <time>2016-07-24T08:35:11Z</time>
      </trkpt>
      <trkpt lat="45.04509" lon="4.07437">
        <ele>889</ele>
        <time>2016-07-24T08:35:26Z</time>
      </trkpt>
      <trkpt lat="45.04523" lon="4.07454">
        <ele>890</ele>
        <time>2016-07-24T08:35:28Z</time>
      </trkpt>
      <trkpt lat="45.04537" lon="4.07461">
        <ele>891</ele>
        <time>2016-07-24T08:35:35Z</time>
      </trkpt>
      <trkpt lat="45.04557" lon="4.07457">
        <ele>892</ele>
        <time>2016-07-24T08:35:45Z</time>
      </trkpt>
      <trkpt lat="45.04565" lon="4.07456">
        <ele>893</ele>
        <time>2016-07-24T08:35:51Z</time>
      </trkpt>
      <trkpt lat="45.04576" lon="4.0746">
        <ele>893</ele>
        <time>2016-07-24T08:35:54Z</time>
      </trkpt>
      <trkpt lat="45.04577" lon="4.07478">
        <ele>894</ele>
        <time>2016-07-24T08:36:09Z</time>
      </trkpt>
      <trkpt lat="45.04578" lon="4.07499">
        <ele>897</ele>
        <time>2016-07-24T08:36:25Z</time>
      </trkpt>
      <trkpt lat="45.04581" lon="4.07515">
        <ele>898</ele>
        <time>2016-07-24T08:36:39Z</time>
      </trkpt>
      <trkpt lat="45.04582" lon="4.0752">
        <ele>897</ele>
        <time>2016-07-24T08:36:55Z</time>
      </trkpt>
      <trkpt lat="45.04584" lon="4.07545">
        <ele>906</ele>
        <time>2016-07-24T08:36:59Z</time>
      </trkpt>
      <trkpt lat="45.04584" lon="4.07546">
        <ele>906</ele>
        <time>2016-07-24T08:37:06Z</time>
      </trkpt>
      <trkpt lat="45.04583" lon="4.07575">
        <ele>902</ele>
        <time>2016-07-24T08:37:11Z</time>
      </trkpt>
      <trkpt lat="45.04586" lon="4.07593">
        <ele>909</ele>
        <time>2016-07-24T08:37:22Z</time>
      </trkpt>
      <trkpt lat="45.04592" lon="4.0761">
        <ele>913</ele>
        <time>2016-07-24T08:37:27Z</time>
      </trkpt>
      <trkpt lat="45.046" lon="4.07623">
        <ele>915</ele>
        <time>2016-07-24T08:37:39Z</time>
      </trkpt>
      <trkpt lat="45.04614" lon="4.07621">
        <ele>916</ele>
        <time>2016-07-24T08:37:54Z</time>
      </trkpt>
      <trkpt lat="45.04631" lon="4.07613">
        <ele>917</ele>
        <time>2016-07-24T08:38:08Z</time>
      </trkpt>
      <trkpt lat="45.04639" lon="4.07607">
        <ele>917</ele>
        <time>2016-07-24T08:38:20Z</time>
      </trkpt>
      <trkpt lat="45.04653" lon="4.07598">
        <ele>918</ele>
        <time>2016-07-24T08:38:35Z</time>
      </trkpt>
      <trkpt lat="45.04666" lon="4.07593">
        <ele>919</ele>
        <time>2016-07-24T08:38:46Z</time>
      </trkpt>
      <trkpt lat="45.0467" lon="4.07593">
        <ele>923</ele>
        <time>2016-07-24T08:39:01Z</time>
      </trkpt>
      <trkpt lat="45.04675" lon="4.07597">
        <ele>924</ele>
        <time>2016-07-24T08:39:14Z</time>
      </trkpt>
      <trkpt lat="45.04678" lon="4.07598">
        <ele>924</ele>
        <time>2016-07-24T08:39:22Z</time>
      </trkpt>
      <trkpt lat="45.04684" lon="4.07602">
        <ele>925</ele>
        <time>2016-07-24T08:39:42Z</time>
      </trkpt>
      <trkpt lat="45.04699" lon="4.076">
        <ele>927</ele>
        <time>2016-07-24T08:39:56Z</time>
      </trkpt>
      <trkpt lat="45.04702" lon="4.07599">
        <ele>927</ele>
        <time>2016-07-24T08:39:57Z</time>
      </trkpt>
      <trkpt lat="45.0471" lon="4.07606">
        <ele>928</ele>
        <time>2016-07-24T08:40:06Z</time>
      </trkpt>
      <trkpt lat="45.04711" lon="4.07607">
        <ele>928</ele>
        <time>2016-07-24T08:40:10Z</time>
      </trkpt>
      <trkpt lat="45.04712" lon="4.07626">
        <ele>929</ele>
        <time>2016-07-24T08:40:23Z</time>
      </trkpt>
      <trkpt lat="45.04711" lon="4.07633">
        <ele>929</ele>
        <time>2016-07-24T08:40:30Z</time>
      </trkpt>
      <trkpt lat="45.04705" lon="4.07652">
        <ele>930</ele>
        <time>2016-07-24T08:40:45Z</time>
      </trkpt>
      <trkpt lat="45.04702" lon="4.07658">
        <ele>930</ele>
        <time>2016-07-24T08:40:59Z</time>
      </trkpt>
      <trkpt lat="45.04697" lon="4.07665">
        <ele>929</ele>
        <time>2016-07-24T08:41:12Z</time>
      </trkpt>
      <trkpt lat="45.04696" lon="4.07666">
        <ele>929</ele>
        <time>2016-07-24T08:41:25Z</time>
      </trkpt>
      <trkpt lat="45.04693" lon="4.07668">
        <ele>935</ele>
        <time>2016-07-24T08:41:37Z</time>
      </trkpt>
      <trkpt lat="45.04692" lon="4.07669">
        <ele>935</ele>
        <time>2016-07-24T08:41:44Z</time>
      </trkpt>
      <trkpt lat="45.04692" lon="4.07672">
        <ele>935</ele>
        <time>2016-07-24T08:41:59Z</time>
      </trkpt>
      <trkpt lat="45.04692" lon="4.07674">
        <ele>935</ele>
        <time>2016-07-24T08:42:08Z</time>
      </trkpt>
      <trkpt lat="45.04688" lon="4.07695">
        <ele>936</ele>
        <time>2016-07-24T08:42:21Z</time>
      </trkpt>
      <trkpt lat="45.04681" lon="4.07708">
        <ele>937</ele>
        <time>2016-07-24T08:42:38Z</time>
      </trkpt>
      <trkpt lat="45.04676" lon="4.07719">
        <ele>938</ele>
        <time>2016-07-24T08:42:42Z</time>
      </trkpt>
      <trkpt lat="45.04672" lon="4.07735">
        <ele>938</ele>
        <time>2016-07-24T08:42:55Z</time>
      </trkpt>
      <trkpt lat="45.04672" lon="4.07738">
        <ele>939</ele>
        <time>2016-07-24T08:43:08Z</time>
      </trkpt>
      <trkpt lat="45.04674" lon="4.07761">
        <ele>942</ele>
        <time>2016-07-24T08:43:23Z</time>
      </trkpt>
      <trkpt lat="45.04681" lon="4.07778">
        <ele>944</ele>
        <time>2016-07-24T08:43:34Z</time>
      </trkpt>
      <trkpt lat="45.04694" lon="4.07794">
        <ele>945</ele>
        <time>2016-07-24T08:43:46Z</time>
      </trkpt>
      <trkpt lat="45.04701" lon="4.07799">
        <ele>946</ele>
        <time>2016-07-24T08:43:55Z</time>
      </trkpt>
      <trkpt lat="45.04709" lon="4.07813">
        <ele>947</ele>
        <time>2016-07-24T08:44:09Z</time>
      </trkpt>
      <trkpt lat="45.04709" lon="4.07816">
        <ele>947</ele>
        <time>2016-07-24T08:44:22Z</time>
      </trkpt>
      <trkpt lat="45.04708" lon="4.07838">
        <ele>950</ele>
        <time>2016-07-24T08:44:23Z</time>
      </trkpt>
      <trkpt lat="45.04706" lon="4.0785">
        <ele>950</ele>
        <time>2016-07-24T08:44:35Z</time>
      </trkpt>
      <trkpt lat="45.04698" lon="4.07872">
        <ele>950</ele>
        <time>2016-07-24T08:44:50Z</time>
      </trkpt>
      <trkpt lat="45.04693" lon="4.07898">
        <ele>949</ele>
        <time>2016-07-24T08:45:03Z</time>
      </trkpt>
      <trkpt lat="45.04687" lon="4.07922">
        <ele>950</ele>
        <time>2016-07-24T08:45:16Z</time>
      </trkpt>
      <trkpt lat="45.04687" lon="4.0793">
        <ele>951</ele>
        <time>2016-07-24T08:45:26Z</time>
      </trkpt>
      <trkpt lat="45.04689" lon="4.07953">
        <ele>952</ele>
        <time>2016-07-24T08:45:38Z</time>
      </trkpt>
      <trkpt lat="45.04692" lon="4.07974">
        <ele>953</ele>
        <time>2016-07-24T08:45:50Z</time>
      </trkpt>
      <trkpt lat="45.04695" lon="4.07995">
        <ele>953</ele>
        <time>2016-07-24T08:46:03Z</time>
      </trkpt>
      <trkpt lat="45.04702" lon="4.08018">
        <ele>955</ele>
        <time>2016-07-24T08:46:15Z</time>
      </trkpt>
      <trkpt lat="45.04708" lon="4.08041">
        <ele>956</ele>
        <time>2016-07-24T08:46:31Z</time>
      </trkpt>
      <trkpt lat="45.04709" lon="4.08046">
        <ele>956</ele>
        <time>2016-07-24T08:46:43Z</time>
      </trkpt>
      <trkpt lat="45.04717" lon="4.08064">
        <ele>958</ele>
        <time>2016-07-24T08:46:56Z</time>
      </trkpt>
      <trkpt lat="45.04718" lon="4.08067">
        <ele>958</ele>
        <time>2016-07-24T08:47:09Z</time>
      </trkpt>
      <trkpt lat="45.04723" lon="4.0808">
        <ele>959</ele>
        <time>2016-07-24T08:47:17Z</time>
      </trkpt>
      <trkpt lat="45.0473" lon="4.08091">
        <ele>959</ele>
        <time>2016-07-24T08:47:29Z</time>
      </trkpt>
      <trkpt lat="45.04739" lon="4.08108">
        <ele>959</ele>
        <time>2016-07-24T08:47:42Z</time>
      </trkpt>
      <trkpt lat="45.04745" lon="4.08117">
        <ele>958</ele>
        <time>2016-07-24T08:47:56Z</time>
      </trkpt>
      <trkpt lat="45.04754" lon="4.08131">
        <ele>971</ele>
        <time>2016-07-24T08:48:09Z</time>
      </trkpt>
      <trkpt lat="45.04763" lon="4.08145">
        <ele>970</ele>
        <time>2016-07-24T08:48:22Z</time>
      </trkpt>
      <trkpt lat="45.04777" lon="4.08162">
        <ele>971</ele>
        <time>2016-07-24T08:48:33Z</time>
      </trkpt>
      <trkpt lat="45.04784" lon="4.0818">
        <ele>970</ele>
        <time>2016-07-24T08:48:46Z</time>
      </trkpt>
      <trkpt lat="45.0479" lon="4.0819">
        <ele>971</ele>
        <time>2016-07-24T08:48:56Z</time>
      </trkpt>
      <trkpt lat="45.04799" lon="4.08209">
        <ele>971</ele>
        <time>2016-07-24T08:49:02Z</time>
      </trkpt>
      <trkpt lat="45.04809" lon="4.08223">
        <ele>972</ele>
        <time>2016-07-24T08:49:14Z</time>
      </trkpt>
      <trkpt lat="45.04817" lon="4.08235">
        <ele>973</ele>
        <time>2016-07-24T08:49:22Z</time>
      </trkpt>
      <trkpt lat="45.04823" lon="4.08242">
        <ele>975</ele>
        <time>2016-07-24T08:49:36Z</time>
      </trkpt>
      <trkpt lat="45.04827" lon="4.08248">
        <ele>976</ele>
        <time>2016-07-24T08:49:49Z</time>
      </trkpt>
      <trkpt lat="45.04839" lon="4.08267">
        <ele>980</ele>
        <time>2016-07-24T08:49:53Z</time>
      </trkpt>
      <trkpt lat="45.04854" lon="4.08284">
        <ele>981</ele>
        <time>2016-07-24T08:50:05Z</time>
      </trkpt>
      <trkpt lat="45.04871" lon="4.08301">
        <ele>982</ele>
        <time>2016-07-24T08:50:17Z</time>
      </trkpt>
      <trkpt lat="45.04875" lon="4.08308">
        <ele>982</ele>
        <time>2016-07-24T08:50:30Z</time>
      </trkpt>
      <trkpt lat="45.0489" lon="4.08327">
        <ele>984</ele>
        <time>2016-07-24T08:50:46Z</time>
      </trkpt>
      <trkpt lat="45.04904" lon="4.08341">
        <ele>983</ele>
        <time>2016-07-24T08:50:58Z</time>
      </trkpt>
      <trkpt lat="45.04905" lon="4.08341">
        <ele>984</ele>
        <time>2016-07-24T08:51:12Z</time>
      </trkpt>
      <trkpt lat="45.04907" lon="4.08342">
        <ele>984</ele>
        <time>2016-07-24T08:51:27Z</time>
      </trkpt>
      <trkpt lat="45.04923" lon="4.08348">
        <ele>991</ele>
        <time>2016-07-24T08:51:29Z</time>
      </trkpt>
      <trkpt lat="45.04934" lon="4.0835">
        <ele>991</ele>
        <time>2016-07-24T08:51:43Z</time>
      </trkpt>
      <trkpt lat="45.04954" lon="4.08341">
        <ele>993</ele>
        <time>2016-07-24T08:51:46Z</time>
      </trkpt>
      <trkpt lat="45.04957" lon="4.0834">
        <ele>993</ele>
        <time>2016-07-24T08:52:01Z</time>
      </trkpt>
      <trkpt lat="45.04972" lon="4.08337">
        <ele>995</ele>
        <time>2016-07-24T08:52:10Z</time>
      </trkpt>
      <trkpt lat="45.04972" lon="4.08335">
        <ele>995</ele>
        <time>2016-07-24T08:52:21Z</time>
      </trkpt>
      <trkpt lat="45.04971" lon="4.08303">
        <ele>995</ele>
        <time>2016-07-24T08:52:35Z</time>
      </trkpt>
      <trkpt lat="45.04976" lon="4.08278">
        <ele>995</ele>
        <time>2016-07-24T08:52:37Z</time>
      </trkpt>
      <trkpt lat="45.04992" lon="4.08249">
        <ele>996</ele>
        <time>2016-07-24T08:52:52Z</time>
      </trkpt>
      <trkpt lat="45.05004" lon="4.08232">
        <ele>1000</ele>
        <time>2016-07-24T08:53:05Z</time>
      </trkpt>
      <trkpt lat="45.05022" lon="4.08247">
        <ele>1001</ele>
        <time>2016-07-24T08:53:16Z</time>
      </trkpt>
      <trkpt lat="45.05035" lon="4.08272">
        <ele>1004</ele>
        <time>2016-07-24T08:53:27Z</time>
      </trkpt>
      <trkpt lat="45.05036" lon="4.08275">
        <ele>1004</ele>
        <time>2016-07-24T08:53:29Z</time>
      </trkpt>
      <trkpt lat="45.05036" lon="4.08279">
        <ele>1004</ele>
        <time>2016-07-24T08:53:42Z</time>
      </trkpt>
      <trkpt lat="45.05037" lon="4.08282">
        <ele>1004</ele>
        <time>2016-07-24T08:53:53Z</time>
      </trkpt>
      <trkpt lat="45.0504" lon="4.08306">
        <ele>1005</ele>
        <time>2016-07-24T08:54:05Z</time>
      </trkpt>
      <trkpt lat="45.05046" lon="4.0833">
        <ele>1005</ele>
        <time>2016-07-24T08:54:16Z</time>
      </trkpt>
      <trkpt lat="45.05056" lon="4.08358">
        <ele>1006</ele>
        <time>2016-07-24T08:54:26Z</time>
      </trkpt>
      <trkpt lat="45.05067" lon="4.08371">
        <ele>1006</ele>
        <time>2016-07-24T08:54:39Z</time>
      </trkpt>
      <trkpt lat="45.05079" lon="4.08384">
        <ele>1007</ele>
        <time>2016-07-24T08:54:51Z</time>
      </trkpt>
      <trkpt lat="45.05093" lon="4.08402">
        <ele>1014</ele>
        <time>2016-07-24T08:55:06Z</time>
      </trkpt>
      <trkpt lat="45.05099" lon="4.08412">
        <ele>1014</ele>
        <time>2016-07-24T08:55:25Z</time>
      </trkpt>
      <trkpt lat="45.0511" lon="4.08438">
        <ele>1016</ele>
        <time>2016-07-24T08:55:40Z</time>
      </trkpt>
      <trkpt lat="45.05119" lon="4.08466">
        <ele>1018</ele>
        <time>2016-07-24T08:55:58Z</time>
      </trkpt>
      <trkpt lat="45.05128" lon="4.08488">
        <ele>1019</ele>
        <time>2016-07-24T08:56:09Z</time>
      </trkpt>
      <trkpt lat="45.05138" lon="4.08512">
        <ele>1019</ele>
        <time>2016-07-24T08:56:20Z</time>
      </trkpt>
      <trkpt lat="45.05153" lon="4.08528">
        <ele>1020</ele>
        <time>2016-07-24T08:56:47Z</time>
      </trkpt>
      <trkpt lat="45.05154" lon="4.0853">
        <ele>1020</ele>
        <time>2016-07-24T08:57:00Z</time>
      </trkpt>
      <trkpt lat="45.05157" lon="4.08533">
        <ele>1020</ele>
        <time>2016-07-24T08:57:11Z</time>
      </trkpt>
      <trkpt lat="45.05169" lon="4.08547">
        <ele>1030</ele>
        <time>2016-07-24T08:57:23Z</time>
      </trkpt>
      <trkpt lat="45.05174" lon="4.08554">
        <ele>1029</ele>
        <time>2016-07-24T08:57:34Z</time>
      </trkpt>
      <trkpt lat="45.05181" lon="4.0856">
        <ele>1030</ele>
        <time>2016-07-24T08:57:40Z</time>
      </trkpt>
      <trkpt lat="45.05186" lon="4.08561">
        <ele>1030</ele>
        <time>2016-07-24T08:57:52Z</time>
      </trkpt>
      <trkpt lat="45.05193" lon="4.08563">
        <ele>1031</ele>
        <time>2016-07-24T08:58:05Z</time>
      </trkpt>
      <trkpt lat="45.05209" lon="4.08556">
        <ele>1032</ele>
        <time>2016-07-24T08:58:15Z</time>
      </trkpt>
      <trkpt lat="45.0521" lon="4.08556">
        <ele>1032</ele>
        <time>2016-07-24T08:58:23Z</time>
      </trkpt>
      <trkpt lat="45.05206" lon="4.08526">
        <ele>1033</ele>
        <time>2016-07-24T08:58:25Z</time>
      </trkpt>
      <trkpt lat="45.05202" lon="4.08505">
        <ele>1032</ele>
        <time>2016-07-24T08:58:27Z</time>
      </trkpt>
      <trkpt lat="45.05207" lon="4.08473">
        <ele>1034</ele>
        <time>2016-07-24T08:58:38Z</time>
      </trkpt>
      <trkpt lat="45.05222" lon="4.0845">
        <ele>1035</ele>
        <time>2016-07-24T08:58:51Z</time>
      </trkpt>
      <trkpt lat="45.05227" lon="4.08435">
        <ele>1035</ele>
        <time>2016-07-24T08:59:01Z</time>
      </trkpt>
      <trkpt lat="45.05224" lon="4.0842">
        <ele>1035</ele>
        <time>2016-07-24T08:59:15Z</time>
      </trkpt>
      <trkpt lat="45.05214" lon="4.08398">
        <ele>1033</ele>
        <time>2016-07-24T08:59:27Z</time>
      </trkpt>
      <trkpt lat="45.05207" lon="4.08384">
        <ele>1032</ele>
        <time>2016-07-24T08:59:39Z</time>
      </trkpt>
      <trkpt lat="45.05189" lon="4.08357">
        <ele>1030</ele>
        <time>2016-07-24T08:59:50Z</time>
      </trkpt>
      <trkpt lat="45.05174" lon="4.0833">
        <ele>1026</ele>
        <time>2016-07-24T08:59:56Z</time>
      </trkpt>
      <trkpt lat="45.05163" lon="4.08296">
        <ele>1020</ele>
        <time>2016-07-24T09:00:10Z</time>
      </trkpt>
      <trkpt lat="45.05152" lon="4.08255">
        <ele>1022</ele>
        <time>2016-07-24T09:00:23Z</time>
      </trkpt>
      <trkpt lat="45.05144" lon="4.08223">
        <ele>1020</ele>
        <time>2016-07-24T09:00:47Z</time>
      </trkpt>
      <trkpt lat="45.05142" lon="4.08203">
        <ele>1019</ele>
        <time>2016-07-24T09:01:08Z</time>
      </trkpt>
      <trkpt lat="45.05143" lon="4.08208">
        <ele>1019</ele>
        <time>2016-07-24T09:01:27Z</time>
      </trkpt>
      <trkpt lat="45.05141" lon="4.08196">
        <ele>1019</ele>
        <time>2016-07-24T09:01:47Z</time>
      </trkpt>
      <trkpt lat="45.05143" lon="4.08178">
        <ele>1020</ele>
        <time>2016-07-24T09:02:13Z</time>
      </trkpt>
      <trkpt lat="45.05147" lon="4.08171">
        <ele>1021</ele>
        <time>2016-07-24T09:02:26Z</time>
      </trkpt>
      <trkpt lat="45.05158" lon="4.0815">
        <ele>1021</ele>
        <time>2016-07-24T09:02:42Z</time>
      </trkpt>
      <trkpt lat="45.05169" lon="4.08136">
        <ele>1031</ele>
        <time>2016-07-24T09:03:02Z</time>
      </trkpt>
      <trkpt lat="45.05177" lon="4.08127">
        <ele>1032</ele>
        <time>2016-07-24T09:03:25Z</time>
      </trkpt>
      <trkpt lat="45.05181" lon="4.08121">
        <ele>1032</ele>
        <time>2016-07-24T09:03:50Z</time>
      </trkpt>
      <trkpt lat="45.05188" lon="4.08108">
        <ele>1032</ele>
        <time>2016-07-24T09:04:16Z</time>
      </trkpt>
      <trkpt lat="45.05193" lon="4.0809">
        <ele>1032</ele>
        <time>2016-07-24T09:04:30Z</time>
      </trkpt>
      <trkpt lat="45.05203" lon="4.08081">
        <ele>1032</ele>
        <time>2016-07-24T09:04:48Z</time>
      </trkpt>
      <trkpt lat="45.05213" lon="4.0808">
        <ele>1033</ele>
        <time>2016-07-24T09:04:51Z</time>
      </trkpt>
      <trkpt lat="45.05226" lon="4.08082">
        <ele>1036</ele>
        <time>2016-07-24T09:05:04Z</time>
      </trkpt>
      <trkpt lat="45.0523" lon="4.08084">
        <ele>1038</ele>
        <time>2016-07-24T09:05:18Z</time>
      </trkpt>
      <trkpt lat="45.05232" lon="4.08086">
        <ele>1038</ele>
        <time>2016-07-24T09:05:29Z</time>
      </trkpt>
      <trkpt lat="45.05242" lon="4.08103">
        <ele>1038</ele>
        <time>2016-07-24T09:05:33Z</time>
      </trkpt>
      <trkpt lat="45.0525" lon="4.08119">
        <ele>1048</ele>
        <time>2016-07-24T09:05:46Z</time>
      </trkpt>
      <trkpt lat="45.0525" lon="4.0814">
        <ele>1049</ele>
        <time>2016-07-24T09:05:57Z</time>
      </trkpt>
      <trkpt lat="45.05251" lon="4.08149">
        <ele>1048</ele>
        <time>2016-07-24T09:06:09Z</time>
      </trkpt>
      <trkpt lat="45.0525" lon="4.08152">
        <ele>1048</ele>
        <time>2016-07-24T09:06:23Z</time>
      </trkpt>
      <trkpt lat="45.05248" lon="4.08167">
        <ele>1045</ele>
        <time>2016-07-24T09:06:40Z</time>
      </trkpt>
      <trkpt lat="45.05253" lon="4.08186">
        <ele>1048</ele>
        <time>2016-07-24T09:06:53Z</time>
      </trkpt>
      <trkpt lat="45.05259" lon="4.08204">
        <ele>1049</ele>
        <time>2016-07-24T09:07:04Z</time>
      </trkpt>
      <trkpt lat="45.05262" lon="4.08227">
        <ele>1048</ele>
        <time>2016-07-24T09:07:18Z</time>
      </trkpt>
      <trkpt lat="45.05264" lon="4.08236">
        <ele>1047</ele>
        <time>2016-07-24T09:07:33Z</time>
      </trkpt>
      <trkpt lat="45.05278" lon="4.08246">
        <ele>1048</ele>
        <time>2016-07-24T09:07:46Z</time>
      </trkpt>
      <trkpt lat="45.0529" lon="4.08251">
        <ele>1049</ele>
        <time>2016-07-24T09:07:50Z</time>
      </trkpt>
      <trkpt lat="45.053" lon="4.08251">
        <ele>1051</ele>
        <time>2016-07-24T09:08:03Z</time>
      </trkpt>
      <trkpt lat="45.05316" lon="4.08254">
        <ele>1053</ele>
        <time>2016-07-24T09:08:21Z</time>
      </trkpt>
      <trkpt lat="45.05323" lon="4.08256">
        <ele>1054</ele>
        <time>2016-07-24T09:08:41Z</time>
      </trkpt>
      <trkpt lat="45.05329" lon="4.08259">
        <ele>1055</ele>
        <time>2016-07-24T09:08:55Z</time>
      </trkpt>
      <trkpt lat="45.05334" lon="4.08266">
        <ele>1067</ele>
        <time>2016-07-24T09:09:09Z</time>
      </trkpt>
      <trkpt lat="45.05333" lon="4.08279">
        <ele>1053</ele>
        <time>2016-07-24T09:09:25Z</time>
      </trkpt>
      <trkpt lat="45.05334" lon="4.08297">
        <ele>1071</ele>
        <time>2016-07-24T09:09:39Z</time>
      </trkpt>
      <trkpt lat="45.0534" lon="4.08305">
        <ele>1071</ele>
        <time>2016-07-24T09:09:43Z</time>
      </trkpt>
      <trkpt lat="45.05345" lon="4.08314">
        <ele>1071</ele>
        <time>2016-07-24T09:09:49Z</time>
      </trkpt>
      <trkpt lat="45.05349" lon="4.08324">
        <ele>1070</ele>
        <time>2016-07-24T09:09:52Z</time>
      </trkpt>
      <trkpt lat="45.05351" lon="4.08347">
        <ele>1069</ele>
        <time>2016-07-24T09:10:06Z</time>
      </trkpt>
      <trkpt lat="45.05356" lon="4.08359">
        <ele>1071</ele>
        <time>2016-07-24T09:10:21Z</time>
      </trkpt>
      <trkpt lat="45.05366" lon="4.08376">
        <ele>1073</ele>
        <time>2016-07-24T09:10:35Z</time>
      </trkpt>
      <trkpt lat="45.05372" lon="4.08388">
        <ele>1073</ele>
        <time>2016-07-24T09:10:49Z</time>
      </trkpt>
      <trkpt lat="45.05383" lon="4.08404">
        <ele>1075</ele>
        <time>2016-07-24T09:11:04Z</time>
      </trkpt>
      <trkpt lat="45.05394" lon="4.08409">
        <ele>1077</ele>
        <time>2016-07-24T09:11:17Z</time>
      </trkpt>
      <trkpt lat="45.05412" lon="4.08412">
        <ele>1081</ele>
        <time>2016-07-24T09:11:29Z</time>
      </trkpt>
      <trkpt lat="45.05422" lon="4.0842">
        <ele>1084</ele>
        <time>2016-07-24T09:11:42Z</time>
      </trkpt>
      <trkpt lat="45.05423" lon="4.08421">
        <ele>1084</ele>
        <time>2016-07-24T09:11:53Z</time>
      </trkpt>
      <trkpt lat="45.05423" lon="4.08421">
        <ele>1084</ele>
        <time>2016-07-24T09:11:56Z</time>
      </trkpt>
      <trkpt lat="45.05425" lon="4.08421">
        <ele>1085</ele>
        <time>2016-07-24T09:12:08Z</time>
      </trkpt>
      <trkpt lat="45.05426" lon="4.0842">
        <ele>1085</ele>
        <time>2016-07-24T09:12:12Z</time>
      </trkpt>
      <trkpt lat="45.05428" lon="4.08415">
        <ele>1089</ele>
        <time>2016-07-24T09:12:20Z</time>
      </trkpt>
      <trkpt lat="45.0543" lon="4.08413">
        <ele>1090</ele>
        <time>2016-07-24T09:12:31Z</time>
      </trkpt>
      <trkpt lat="45.05434" lon="4.08407">
        <ele>1092</ele>
        <time>2016-07-24T09:12:46Z</time>
      </trkpt>
      <trkpt lat="45.05438" lon="4.084">
        <ele>1094</ele>
        <time>2016-07-24T09:12:48Z</time>
      </trkpt>
      <trkpt lat="45.05439" lon="4.08396">
        <ele>1095</ele>
        <time>2016-07-24T09:13:01Z</time>
      </trkpt>
      <trkpt lat="45.05442" lon="4.08382">
        <ele>1098</ele>
        <time>2016-07-24T09:13:12Z</time>
      </trkpt>
      <trkpt lat="45.05441" lon="4.08372">
        <ele>1098</ele>
        <time>2016-07-24T09:13:25Z</time>
      </trkpt>
      <trkpt lat="45.0544" lon="4.08353">
        <ele>1099</ele>
        <time>2016-07-24T09:13:36Z</time>
      </trkpt>
      <trkpt lat="45.05447" lon="4.08339">
        <ele>1101</ele>
        <time>2016-07-24T09:13:48Z</time>
      </trkpt>
      <trkpt lat="45.05451" lon="4.08334">
        <ele>1102</ele>
        <time>2016-07-24T09:14:00Z</time>
      </trkpt>
      <trkpt lat="45.05452" lon="4.08331">
        <ele>1111</ele>
        <time>2016-07-24T09:14:10Z</time>
      </trkpt>
      <trkpt lat="45.05449" lon="4.08326">
        <ele>1110</ele>
        <time>2016-07-24T09:14:24Z</time>
      </trkpt>
      <trkpt lat="45.05444" lon="4.08314">
        <ele>1110</ele>
        <time>2016-07-24T09:14:38Z</time>
      </trkpt>
      <trkpt lat="45.0544" lon="4.08303">
        <ele>1111</ele>
        <time>2016-07-24T09:14:50Z</time>
      </trkpt>
      <trkpt lat="45.05441" lon="4.08297">
        <ele>1112</ele>
        <time>2016-07-24T09:15:04Z</time>
      </trkpt>
      <trkpt lat="45.05442" lon="4.0829">
        <ele>1112</ele>
        <time>2016-07-24T09:15:18Z</time>
      </trkpt>
      <trkpt lat="45.05446" lon="4.08286">
        <ele>1113</ele>
        <time>2016-07-24T09:15:24Z</time>
      </trkpt>
      <trkpt lat="45.05448" lon="4.08283">
        <ele>1114</ele>
        <time>2016-07-24T09:15:38Z</time>
      </trkpt>
      <trkpt lat="45.05449" lon="4.08281">
        <ele>1114</ele>
        <time>2016-07-24T09:15:50Z</time>
      </trkpt>
      <trkpt lat="45.05451" lon="4.08281">
        <ele>1115</ele>
        <time>2016-07-24T09:15:53Z</time>
      </trkpt>
      <trkpt lat="45.05454" lon="4.08276">
        <ele>1116</ele>
        <time>2016-07-24T09:16:07Z</time>
      </trkpt>
      <trkpt lat="45.05453" lon="4.08273">
        <ele>1115</ele>
        <time>2016-07-24T09:16:13Z</time>
      </trkpt>
      <trkpt lat="45.05443" lon="4.0827">
        <ele>1113</ele>
        <time>2016-07-24T09:16:26Z</time>
      </trkpt>
      <trkpt lat="45.0544" lon="4.08266">
        <ele>1112</ele>
        <time>2016-07-24T09:16:38Z</time>
      </trkpt>
      <trkpt lat="45.05433" lon="4.08254">
        <ele>1109</ele>
        <time>2016-07-24T09:16:50Z</time>
      </trkpt>
      <trkpt lat="45.05429" lon="4.08239">
        <ele>1111</ele>
        <time>2016-07-24T09:17:03Z</time>
      </trkpt>
      <trkpt lat="45.05429" lon="4.08237">
        <ele>1112</ele>
        <time>2016-07-24T09:17:15Z</time>
      </trkpt>
      <trkpt lat="45.0543" lon="4.08238">
        <ele>1112</ele>
        <time>2016-07-24T09:17:35Z</time>
      </trkpt>
      <trkpt lat="45.05433" lon="4.08241">
        <ele>1112</ele>
        <time>2016-07-24T09:17:52Z</time>
      </trkpt>
      <trkpt lat="45.05438" lon="4.08241">
        <ele>1114</ele>
        <time>2016-07-24T09:18:09Z</time>
      </trkpt>
      <trkpt lat="45.05441" lon="4.08233">
        <ele>1116</ele>
        <time>2016-07-24T09:18:26Z</time>
      </trkpt>
      <trkpt lat="45.05443" lon="4.08225">
        <ele>1117</ele>
        <time>2016-07-24T09:18:42Z</time>
      </trkpt>
      <trkpt lat="45.05441" lon="4.08222">
        <ele>1117</ele>
        <time>2016-07-24T09:18:57Z</time>
      </trkpt>
      <trkpt lat="45.05442" lon="4.08221">
        <ele>1117</ele>
        <time>2016-07-24T09:19:13Z</time>
      </trkpt>
      <trkpt lat="45.05441" lon="4.08222">
        <ele>1117</ele>
        <time>2016-07-24T09:19:28Z</time>
      </trkpt>
      <trkpt lat="45.05441" lon="4.08221">
        <ele>1117</ele>
        <time>2016-07-24T09:19:39Z</time>
      </trkpt>
      <trkpt lat="45.0544" lon="4.08222">
        <ele>1116</ele>
        <time>2016-07-24T09:19:53Z</time>
      </trkpt>
      <trkpt lat="45.05445" lon="4.08221">
        <ele>1118</ele>
        <time>2016-07-24T09:20:09Z</time>
      </trkpt>
      <trkpt lat="45.05451" lon="4.0822">
        <ele>1119</ele>
        <time>2016-07-24T09:20:23Z</time>
      </trkpt>
      <trkpt lat="45.05462" lon="4.08216">
        <ele>1123</ele>
        <time>2016-07-24T09:20:38Z</time>
      </trkpt>
      <trkpt lat="45.05468" lon="4.08211">
        <ele>1124</ele>
        <time>2016-07-24T09:20:51Z</time>
      </trkpt>
      <trkpt lat="45.05475" lon="4.08201">
        <ele>1127</ele>
        <time>2016-07-24T09:21:04Z</time>
      </trkpt>
      <trkpt lat="45.05481" lon="4.0819">
        <ele>1130</ele>
        <time>2016-07-24T09:21:16Z</time>
      </trkpt>
      <trkpt lat="45.05481" lon="4.08184">
        <ele>1131</ele>
        <time>2016-07-24T09:21:30Z</time>
      </trkpt>
      <trkpt lat="45.05482" lon="4.08181">
        <ele>1132</ele>
        <time>2016-07-24T09:21:53Z</time>
      </trkpt>
      <trkpt lat="45.05485" lon="4.08179">
        <ele>1134</ele>
        <time>2016-07-24T09:22:09Z</time>
      </trkpt>
      <trkpt lat="45.05489" lon="4.08178">
        <ele>1137</ele>
        <time>2016-07-24T09:22:20Z</time>
      </trkpt>
      <trkpt lat="45.0549" lon="4.08172">
        <ele>1139</ele>
        <time>2016-07-24T09:22:27Z</time>
      </trkpt>
      <trkpt lat="45.0549" lon="4.08168">
        <ele>1140</ele>
        <time>2016-07-24T09:22:40Z</time>
      </trkpt>
      <trkpt lat="45.05492" lon="4.08164">
        <ele>1139</ele>
        <time>2016-07-24T09:22:53Z</time>
      </trkpt>
      <trkpt lat="45.05493" lon="4.08153">
        <ele>1134</ele>
        <time>2016-07-24T09:23:04Z</time>
      </trkpt>
      <trkpt lat="45.05494" lon="4.08149">
        <ele>1132</ele>
        <time>2016-07-24T09:23:14Z</time>
      </trkpt>
      <trkpt lat="45.05495" lon="4.08143">
        <ele>1129</ele>
        <time>2016-07-24T09:23:25Z</time>
      </trkpt>
      <trkpt lat="45.05496" lon="4.08138">
        <ele>1127</ele>
        <time>2016-07-24T09:23:32Z</time>
      </trkpt>
      <trkpt lat="45.055" lon="4.08133">
        <ele>1152</ele>
        <time>2016-07-24T09:23:42Z</time>
      </trkpt>
      <trkpt lat="45.05502" lon="4.08129">
        <ele>1152</ele>
        <time>2016-07-24T09:23:54Z</time>
      </trkpt>
      <trkpt lat="45.05501" lon="4.08129">
        <ele>1152</ele>
        <time>2016-07-24T09:24:03Z</time>
      </trkpt>
      <trkpt lat="45.05503" lon="4.08129">
        <ele>1152</ele>
        <time>2016-07-24T09:24:05Z</time>
      </trkpt>
      <trkpt lat="45.05512" lon="4.08141">
        <ele>1154</ele>
        <time>2016-07-24T09:24:07Z</time>
      </trkpt>
      <trkpt lat="45.0552" lon="4.08143">
        <ele>1155</ele>
        <time>2016-07-24T09:24:22Z</time>
      </trkpt>
      <trkpt lat="45.05527" lon="4.08142">
        <ele>1156</ele>
        <time>2016-07-24T09:24:35Z</time>
      </trkpt>
      <trkpt lat="45.05532" lon="4.08142">
        <ele>1157</ele>
        <time>2016-07-24T09:24:48Z</time>
      </trkpt>
      <trkpt lat="45.05547" lon="4.08146">
        <ele>1160</ele>
        <time>2016-07-24T09:24:57Z</time>
      </trkpt>
      <trkpt lat="45.05561" lon="4.08143">
        <ele>1163</ele>
        <time>2016-07-24T09:25:09Z</time>
      </trkpt>
      <trkpt lat="45.05571" lon="4.08142">
        <ele>1164</ele>
        <time>2016-07-24T09:25:20Z</time>
      </trkpt>
      <trkpt lat="45.05583" lon="4.08145">
        <ele>1167</ele>
        <time>2016-07-24T09:25:33Z</time>
      </trkpt>
      <trkpt lat="45.05592" lon="4.08145">
        <ele>1179</ele>
        <time>2016-07-24T09:25:45Z</time>
      </trkpt>
      <trkpt lat="45.05601" lon="4.0815">
        <ele>1179</ele>
        <time>2016-07-24T09:25:47Z</time>
      </trkpt>
      <trkpt lat="45.05602" lon="4.08152">
        <ele>1179</ele>
        <time>2016-07-24T09:25:53Z</time>
      </trkpt>
      <trkpt lat="45.05603" lon="4.08151">
        <ele>1179</ele>
        <time>2016-07-24T09:26:07Z</time>
      </trkpt>
      <trkpt lat="45.05603" lon="4.08151">
        <ele>1179</ele>
        <time>2016-07-24T09:26:18Z</time>
      </trkpt>
      <trkpt lat="45.05603" lon="4.08151">
        <ele>1179</ele>
        <time>2016-07-24T09:26:31Z</time>
      </trkpt>
      <trkpt lat="45.05608" lon="4.08154">
        <ele>1180</ele>
        <time>2016-07-24T09:26:40Z</time>
      </trkpt>
      <trkpt lat="45.05616" lon="4.08154">
        <ele>1181</ele>
        <time>2016-07-24T09:26:52Z</time>
      </trkpt>
      <trkpt lat="45.05624" lon="4.08151">
        <ele>1181</ele>
        <time>2016-07-24T09:27:03Z</time>
      </trkpt>
      <trkpt lat="45.05631" lon="4.08146">
        <ele>1182</ele>
        <time>2016-07-24T09:27:16Z</time>
      </trkpt>
      <trkpt lat="45.05639" lon="4.0814">
        <ele>1182</ele>
        <time>2016-07-24T09:27:29Z</time>
      </trkpt>
      <trkpt lat="45.05649" lon="4.0814">
        <ele>1183</ele>
        <time>2016-07-24T09:27:30Z</time>
      </trkpt>
      <trkpt lat="45.05659" lon="4.08142">
        <ele>1185</ele>
        <time>2016-07-24T09:27:42Z</time>
      </trkpt>
      <trkpt lat="45.0567" lon="4.08144">
        <ele>1190</ele>
        <time>2016-07-24T09:27:58Z</time>
      </trkpt>
      <trkpt lat="45.05682" lon="4.08144">
        <ele>1190</ele>
        <time>2016-07-24T09:28:10Z</time>
      </trkpt>
      <trkpt lat="45.0569" lon="4.08144">
        <ele>1190</ele>
        <time>2016-07-24T09:28:25Z</time>
      </trkpt>
      <trkpt lat="45.05695" lon="4.08145">
        <ele>1190</ele>
        <time>2016-07-24T09:28:39Z</time>
      </trkpt>
      <trkpt lat="45.05697" lon="4.08145">
        <ele>1191</ele>
        <time>2016-07-24T09:28:52Z</time>
      </trkpt>
      <trkpt lat="45.05705" lon="4.08146">
        <ele>1191</ele>
        <time>2016-07-24T09:29:04Z</time>
      </trkpt>
      <trkpt lat="45.05712" lon="4.08143">
        <ele>1191</ele>
        <time>2016-07-24T09:29:16Z</time>
      </trkpt>
      <trkpt lat="45.05723" lon="4.08149">
        <ele>1192</ele>
        <time>2016-07-24T09:29:24Z</time>
      </trkpt>
      <trkpt lat="45.05731" lon="4.08156">
        <ele>1193</ele>
        <time>2016-07-24T09:29:39Z</time>
      </trkpt>
      <trkpt lat="45.05735" lon="4.08169">
        <ele>1194</ele>
        <time>2016-07-24T09:29:51Z</time>
      </trkpt>
      <trkpt lat="45.05739" lon="4.08181">
        <ele>1194</ele>
        <time>2016-07-24T09:30:01Z</time>
      </trkpt>
      <trkpt lat="45.05742" lon="4.08188">
        <ele>1193</ele>
        <time>2016-07-24T09:30:13Z</time>
      </trkpt>
      <trkpt lat="45.05745" lon="4.08196">
        <ele>1192</ele>
        <time>2016-07-24T09:30:26Z</time>
      </trkpt>
      <trkpt lat="45.05749" lon="4.08199">
        <ele>1192</ele>
        <time>2016-07-24T09:30:38Z</time>
      </trkpt>
      <trkpt lat="45.05755" lon="4.08201">
        <ele>1189</ele>
        <time>2016-07-24T09:30:52Z</time>
      </trkpt>
      <trkpt lat="45.0576" lon="4.08204">
        <ele>1188</ele>
        <time>2016-07-24T09:31:08Z</time>
      </trkpt>
      <trkpt lat="45.0577" lon="4.08212">
        <ele>1187</ele>
        <time>2016-07-24T09:31:20Z</time>
      </trkpt>
      <trkpt lat="45.05772" lon="4.08218">
        <ele>1187</ele>
        <time>2016-07-24T09:31:34Z</time>
      </trkpt>
      <trkpt lat="45.05778" lon="4.08231">
        <ele>1187</ele>
        <time>2016-07-24T09:31:46Z</time>
      </trkpt>
      <trkpt lat="45.05781" lon="4.08241">
        <ele>1186</ele>
        <time>2016-07-24T09:32:02Z</time>
      </trkpt>
      <trkpt lat="45.05797" lon="4.0826">
        <ele>1185</ele>
        <time>2016-07-24T09:32:16Z</time>
      </trkpt>
      <trkpt lat="45.05806" lon="4.08274">
        <ele>1185</ele>
        <time>2016-07-24T09:32:27Z</time>
      </trkpt>
      <trkpt lat="45.05809" lon="4.08289">
        <ele>1185</ele>
        <time>2016-07-24T09:32:41Z</time>
      </trkpt>
      <trkpt lat="45.05805" lon="4.08294">
        <ele>1185</ele>
        <time>2016-07-24T09:32:50Z</time>
      </trkpt>
      <trkpt lat="45.05801" lon="4.08295">
        <ele>1185</ele>
        <time>2016-07-24T09:32:56Z</time>
      </trkpt>
      <trkpt lat="45.0578" lon="4.08291">
        <ele>1186</ele>
        <time>2016-07-24T09:33:08Z</time>
      </trkpt>
      <trkpt lat="45.05761" lon="4.08286">
        <ele>1186</ele>
        <time>2016-07-24T09:33:21Z</time>
      </trkpt>
      <trkpt lat="45.05753" lon="4.08283">
        <ele>1186</ele>
        <time>2016-07-24T09:33:32Z</time>
      </trkpt>
      <trkpt lat="45.05749" lon="4.08292">
        <ele>1182</ele>
        <time>2016-07-24T09:33:43Z</time>
      </trkpt>
      <trkpt lat="45.05744" lon="4.08293">
        <ele>1181</ele>
        <time>2016-07-24T09:33:53Z</time>
      </trkpt>
      <trkpt lat="45.05736" lon="4.08295">
        <ele>1181</ele>
        <time>2016-07-24T09:34:07Z</time>
      </trkpt>
      <trkpt lat="45.05728" lon="4.083">
        <ele>1180</ele>
        <time>2016-07-24T09:34:19Z</time>
      </trkpt>
      <trkpt lat="45.05724" lon="4.08303">
        <ele>1180</ele>
        <time>2016-07-24T09:34:32Z</time>
      </trkpt>
      <trkpt lat="45.0571" lon="4.08307">
        <ele>1178</ele>
        <time>2016-07-24T09:34:46Z</time>
      </trkpt>
      <trkpt lat="45.0568" lon="4.08318">
        <ele>1172</ele>
        <time>2016-07-24T09:34:58Z</time>
      </trkpt>
      <trkpt lat="45.05674" lon="4.08325">
        <ele>1170</ele>
        <time>2016-07-24T09:35:10Z</time>
      </trkpt>
      <trkpt lat="45.05667" lon="4.08329">
        <ele>1167</ele>
        <time>2016-07-24T09:35:20Z</time>
      </trkpt>
      <trkpt lat="45.05649" lon="4.08333">
        <ele>1162</ele>
        <time>2016-07-24T09:35:33Z</time>
      </trkpt>
      <trkpt lat="45.05633" lon="4.08333">
        <ele>1160</ele>
        <time>2016-07-24T09:35:46Z</time>
      </trkpt>
      <trkpt lat="45.05627" lon="4.08333">
        <ele>1159</ele>
        <time>2016-07-24T09:35:59Z</time>
      </trkpt>
      <trkpt lat="45.05619" lon="4.08335">
        <ele>1148</ele>
        <time>2016-07-24T09:36:09Z</time>
      </trkpt>
      <trkpt lat="45.05608" lon="4.0834">
        <ele>1146</ele>
        <time>2016-07-24T09:36:22Z</time>
      </trkpt>
      <trkpt lat="45.05601" lon="4.08341">
        <ele>1145</ele>
        <time>2016-07-24T09:36:34Z</time>
      </trkpt>
      <trkpt lat="45.05598" lon="4.08343">
        <ele>1145</ele>
        <time>2016-07-24T09:36:46Z</time>
      </trkpt>
      <trkpt lat="45.05599" lon="4.08346">
        <ele>1145</ele>
        <time>2016-07-24T09:37:01Z</time>
      </trkpt>
      <trkpt lat="45.05579" lon="4.08362">
        <ele>1130</ele>
        <time>2016-07-24T09:37:13Z</time>
      </trkpt>
      <trkpt lat="45.05575" lon="4.08376">
        <ele>1127</ele>
        <time>2016-07-24T09:37:25Z</time>
      </trkpt>
      <trkpt lat="45.05575" lon="4.08393">
        <ele>1126</ele>
        <time>2016-07-24T09:37:40Z</time>
      </trkpt>
      <trkpt lat="45.05574" lon="4.08402">
        <ele>1126</ele>
        <time>2016-07-24T09:37:58Z</time>
      </trkpt>
      <trkpt lat="45.05574" lon="4.08422">
        <ele>1122</ele>
        <time>2016-07-24T09:38:11Z</time>
      </trkpt>
      <trkpt lat="45.05574" lon="4.08436">
        <ele>1118</ele>
        <time>2016-07-24T09:38:23Z</time>
      </trkpt>
      <trkpt lat="45.05572" lon="4.08446">
        <ele>1116</ele>
        <time>2016-07-24T09:38:29Z</time>
      </trkpt>
      <trkpt lat="45.0557" lon="4.0846">
        <ele>1114</ele>
        <time>2016-07-24T09:38:41Z</time>
      </trkpt>
      <trkpt lat="45.05562" lon="4.08472">
        <ele>1113</ele>
        <time>2016-07-24T09:38:53Z</time>
      </trkpt>
      <trkpt lat="45.0556" lon="4.08474">
        <ele>1112</ele>
        <time>2016-07-24T09:39:06Z</time>
      </trkpt>
      <trkpt lat="45.05548" lon="4.0848">
        <ele>1110</ele>
        <time>2016-07-24T09:39:19Z</time>
      </trkpt>
      <trkpt lat="45.05542" lon="4.08492">
        <ele>1109</ele>
        <time>2016-07-24T09:39:25Z</time>
      </trkpt>
      <trkpt lat="45.05533" lon="4.08505">
        <ele>1103</ele>
        <time>2016-07-24T09:39:36Z</time>
      </trkpt>
      <trkpt lat="45.05529" lon="4.08513">
        <ele>1102</ele>
        <time>2016-07-24T09:39:49Z</time>
      </trkpt>
      <trkpt lat="45.05527" lon="4.08514">
        <ele>1102</ele>
        <time>2016-07-24T09:40:01Z</time>
      </trkpt>
      <trkpt lat="45.05518" lon="4.08523">
        <ele>1101</ele>
        <time>2016-07-24T09:40:07Z</time>
      </trkpt>
      <trkpt lat="45.05516" lon="4.08527">
        <ele>1101</ele>
        <time>2016-07-24T09:40:21Z</time>
      </trkpt>
      <trkpt lat="45.05504" lon="4.08545">
        <ele>1100</ele>
        <time>2016-07-24T09:40:32Z</time>
      </trkpt>
      <trkpt lat="45.05499" lon="4.08555">
        <ele>1086</ele>
        <time>2016-07-24T09:40:36Z</time>
      </trkpt>
      <trkpt lat="45.05495" lon="4.08564">
        <ele>1086</ele>
        <time>2016-07-24T09:40:46Z</time>
      </trkpt>
      <trkpt lat="45.05493" lon="4.08566">
        <ele>1086</ele>
        <time>2016-07-24T09:40:55Z</time>
      </trkpt>
      <trkpt lat="45.05484" lon="4.08595">
        <ele>1084</ele>
        <time>2016-07-24T09:41:09Z</time>
      </trkpt>
      <trkpt lat="45.05473" lon="4.08608">
        <ele>1082</ele>
        <time>2016-07-24T09:41:32Z</time>
      </trkpt>
      <trkpt lat="45.05465" lon="4.08618">
        <ele>1081</ele>
        <time>2016-07-24T09:41:56Z</time>
      </trkpt>
      <trkpt lat="45.05457" lon="4.08628">
        <ele>1080</ele>
        <time>2016-07-24T09:42:18Z</time>
      </trkpt>
      <trkpt lat="45.05447" lon="4.08642">
        <ele>1078</ele>
        <time>2016-07-24T09:42:31Z</time>
      </trkpt>
      <trkpt lat="45.05437" lon="4.08647">
        <ele>1077</ele>
        <time>2016-07-24T09:42:43Z</time>
      </trkpt>
      <trkpt lat="45.05418" lon="4.08649">
        <ele>1075</ele>
        <time>2016-07-24T09:42:55Z</time>
      </trkpt>
      <trkpt lat="45.05407" lon="4.08652">
        <ele>1066</ele>
        <time>2016-07-24T09:43:11Z</time>
      </trkpt>
      <trkpt lat="45.05396" lon="4.08657">
        <ele>1065</ele>
        <time>2016-07-24T09:43:24Z</time>
      </trkpt>
      <trkpt lat="45.05384" lon="4.08662">
        <ele>1063</ele>
        <time>2016-07-24T09:43:36Z</time>
      </trkpt>
      <trkpt lat="45.05381" lon="4.08664">
        <ele>1062</ele>
        <time>2016-07-24T09:44:02Z</time>
      </trkpt>
      <trkpt lat="45.05367" lon="4.08675">
        <ele>1058</ele>
        <time>2016-07-24T09:44:29Z</time>
      </trkpt>
      <trkpt lat="45.05357" lon="4.08688">
        <ele>1056</ele>
        <time>2016-07-24T09:44:57Z</time>
      </trkpt>
      <trkpt lat="45.05353" lon="4.08691">
        <ele>1056</ele>
        <time>2016-07-24T09:45:26Z</time>
      </trkpt>
      <trkpt lat="45.05345" lon="4.08689">
        <ele>1055</ele>
        <time>2016-07-24T09:45:59Z</time>
      </trkpt>
      <trkpt lat="45.05341" lon="4.08687">
        <ele>1055</ele>
        <time>2016-07-24T09:46:27Z</time>
      </trkpt>
      <trkpt lat="45.05337" lon="4.08692">
        <ele>1055</ele>
        <time>2016-07-24T09:46:53Z</time>
      </trkpt>
      <trkpt lat="45.05341" lon="4.08714">
        <ele>1054</ele>
        <time>2016-07-24T09:47:21Z</time>
      </trkpt>
      <trkpt lat="45.0535" lon="4.08734">
        <ele>1053</ele>
        <time>2016-07-24T09:47:55Z</time>
      </trkpt>
      <trkpt lat="45.05365" lon="4.08756">
        <ele>1051</ele>
        <time>2016-07-24T09:48:24Z</time>
      </trkpt>
      <trkpt lat="45.05374" lon="4.08774">
        <ele>1051</ele>
        <time>2016-07-24T09:48:33Z</time>
      </trkpt>
      <trkpt lat="45.05375" lon="4.08777">
        <ele>1051</ele>
        <time>2016-07-24T09:48:44Z</time>
      </trkpt>
      <trkpt lat="45.0538" lon="4.08787">
        <ele>1051</ele>
        <time>2016-07-24T09:48:54Z</time>
      </trkpt>
      <trkpt lat="45.05382" lon="4.08795">
        <ele>1051</ele>
        <time>2016-07-24T09:49:05Z</time>
      </trkpt>
      <trkpt lat="45.05385" lon="4.0881">
        <ele>1051</ele>
        <time>2016-07-24T09:49:17Z</time>
      </trkpt>
      <trkpt lat="45.05387" lon="4.08815">
        <ele>1051</ele>
        <time>2016-07-24T09:49:30Z</time>
      </trkpt>
      <trkpt lat="45.05396" lon="4.0884">
        <ele>1049</ele>
        <time>2016-07-24T09:49:35Z</time>
      </trkpt>
      <trkpt lat="45.05405" lon="4.08867">
        <ele>1048</ele>
        <time>2016-07-24T09:49:47Z</time>
      </trkpt>
      <trkpt lat="45.0541" lon="4.08884">
        <ele>1048</ele>
        <time>2016-07-24T09:50:03Z</time>
      </trkpt>
      <trkpt lat="45.05413" lon="4.08888">
        <ele>1049</ele>
        <time>2016-07-24T09:50:17Z</time>
      </trkpt>
      <trkpt lat="45.05416" lon="4.08894">
        <ele>1049</ele>
        <time>2016-07-24T09:50:20Z</time>
      </trkpt>
      <trkpt lat="45.05421" lon="4.08905">
        <ele>1059</ele>
        <time>2016-07-24T09:50:33Z</time>
      </trkpt>
      <trkpt lat="45.05423" lon="4.08914">
        <ele>1057</ele>
        <time>2016-07-24T09:50:43Z</time>
      </trkpt>
      <trkpt lat="45.05429" lon="4.08929">
        <ele>1059</ele>
        <time>2016-07-24T09:50:54Z</time>
      </trkpt>
      <trkpt lat="45.05433" lon="4.08937">
        <ele>1061</ele>
        <time>2016-07-24T09:51:07Z</time>
      </trkpt>
      <trkpt lat="45.0544" lon="4.08951">
        <ele>1062</ele>
        <time>2016-07-24T09:51:17Z</time>
      </trkpt>
      <trkpt lat="45.05447" lon="4.0897">
        <ele>1062</ele>
        <time>2016-07-24T09:51:31Z</time>
      </trkpt>
      <trkpt lat="45.05454" lon="4.08993">
        <ele>1063</ele>
        <time>2016-07-24T09:51:44Z</time>
      </trkpt>
      <trkpt lat="45.05456" lon="4.09014">
        <ele>1061</ele>
        <time>2016-07-24T09:51:58Z</time>
      </trkpt>
      <trkpt lat="45.05467" lon="4.09038">
        <ele>1061</ele>
        <time>2016-07-24T09:52:10Z</time>
      </trkpt>
      <trkpt lat="45.05474" lon="4.09055">
        <ele>1062</ele>
        <time>2016-07-24T09:52:23Z</time>
      </trkpt>
      <trkpt lat="45.05486" lon="4.09072">
        <ele>1064</ele>
        <time>2016-07-24T09:52:37Z</time>
      </trkpt>
      <trkpt lat="45.05496" lon="4.09087">
        <ele>1065</ele>
        <time>2016-07-24T09:52:49Z</time>
      </trkpt>
      <trkpt lat="45.05501" lon="4.09102">
        <ele>1073</ele>
        <time>2016-07-24T09:53:01Z</time>
      </trkpt>
      <trkpt lat="45.05508" lon="4.09138">
        <ele>1072</ele>
        <time>2016-07-24T09:53:18Z</time>
      </trkpt>
      <trkpt lat="45.05509" lon="4.09154">
        <ele>1067</ele>
        <time>2016-07-24T09:53:28Z</time>
      </trkpt>
      <trkpt lat="45.0551" lon="4.09156">
        <ele>1067</ele>
        <time>2016-07-24T09:53:39Z</time>
      </trkpt>
      <trkpt lat="45.05509" lon="4.09168">
        <ele>1059</ele>
        <time>2016-07-24T09:53:52Z</time>
      </trkpt>
      <trkpt lat="45.0551" lon="4.09174">
        <ele>1060</ele>
        <time>2016-07-24T09:54:07Z</time>
      </trkpt>
      <trkpt lat="45.05512" lon="4.09192">
        <ele>1060</ele>
        <time>2016-07-24T09:54:11Z</time>
      </trkpt>
      <trkpt lat="45.05513" lon="4.09203">
        <ele>1060</ele>
        <time>2016-07-24T09:54:22Z</time>
      </trkpt>
      <trkpt lat="45.0552" lon="4.09219">
        <ele>1058</ele>
        <time>2016-07-24T09:54:30Z</time>
      </trkpt>
      <trkpt lat="45.05529" lon="4.09232">
        <ele>1058</ele>
        <time>2016-07-24T09:54:43Z</time>
      </trkpt>
      <trkpt lat="45.05534" lon="4.09244">
        <ele>1058</ele>
        <time>2016-07-24T09:54:58Z</time>
      </trkpt>
      <trkpt lat="45.05544" lon="4.09261">
        <ele>1051</ele>
        <time>2016-07-24T09:55:03Z</time>
      </trkpt>
      <trkpt lat="45.05548" lon="4.09274">
        <ele>1052</ele>
        <time>2016-07-24T09:55:05Z</time>
      </trkpt>
      <trkpt lat="45.05551" lon="4.09285">
        <ele>1051</ele>
        <time>2016-07-24T09:55:22Z</time>
      </trkpt>
      <trkpt lat="45.05549" lon="4.09303">
        <ele>1049</ele>
        <time>2016-07-24T09:55:23Z</time>
      </trkpt>
      <trkpt lat="45.05548" lon="4.09319">
        <ele>1049</ele>
        <time>2016-07-24T09:55:28Z</time>
      </trkpt>
      <trkpt lat="45.05548" lon="4.09334">
        <ele>1047</ele>
        <time>2016-07-24T09:55:44Z</time>
      </trkpt>
      <trkpt lat="45.05546" lon="4.0935">
        <ele>1046</ele>
        <time>2016-07-24T09:55:59Z</time>
      </trkpt>
      <trkpt lat="45.05543" lon="4.09354">
        <ele>1045</ele>
        <time>2016-07-24T09:56:12Z</time>
      </trkpt>
      <trkpt lat="45.05536" lon="4.09371">
        <ele>1045</ele>
        <time>2016-07-24T09:56:30Z</time>
      </trkpt>
      <trkpt lat="45.0553" lon="4.09382">
        <ele>1044</ele>
        <time>2016-07-24T09:56:38Z</time>
      </trkpt>
      <trkpt lat="45.05529" lon="4.09384">
        <ele>1043</ele>
        <time>2016-07-24T09:56:41Z</time>
      </trkpt>
      <trkpt lat="45.05523" lon="4.09391">
        <ele>1042</ele>
        <time>2016-07-24T09:56:48Z</time>
      </trkpt>
      <trkpt lat="45.05512" lon="4.09404">
        <ele>1038</ele>
        <time>2016-07-24T09:57:01Z</time>
      </trkpt>
      <trkpt lat="45.05505" lon="4.09417">
        <ele>1035</ele>
        <time>2016-07-24T09:57:06Z</time>
      </trkpt>
      <trkpt lat="45.05491" lon="4.09435">
        <ele>1024</ele>
        <time>2016-07-24T09:57:16Z</time>
      </trkpt>
      <trkpt lat="45.0548" lon="4.09445">
        <ele>1021</ele>
        <time>2016-07-24T09:57:25Z</time>
      </trkpt>
      <trkpt lat="45.05478" lon="4.09447">
        <ele>1021</ele>
        <time>2016-07-24T09:57:35Z</time>
      </trkpt>
      <trkpt lat="45.0547" lon="4.09463">
        <ele>1020</ele>
        <time>2016-07-24T09:57:48Z</time>
      </trkpt>
      <trkpt lat="45.05465" lon="4.09485">
        <ele>1020</ele>
        <time>2016-07-24T09:57:54Z</time>
      </trkpt>
      <trkpt lat="45.05464" lon="4.09504">
        <ele>1022</ele>
        <time>2016-07-24T09:58:02Z</time>
      </trkpt>
      <trkpt lat="45.05461" lon="4.09525">
        <ele>1021</ele>
        <time>2016-07-24T09:58:19Z</time>
      </trkpt>
      <trkpt lat="45.05458" lon="4.09541">
        <ele>1020</ele>
        <time>2016-07-24T09:58:39Z</time>
      </trkpt>
      <trkpt lat="45.0546" lon="4.09569">
        <ele>1021</ele>
        <time>2016-07-24T09:58:57Z</time>
      </trkpt>
      <trkpt lat="45.05456" lon="4.09589">
        <ele>1019</ele>
        <time>2016-07-24T09:59:13Z</time>
      </trkpt>
      <trkpt lat="45.05456" lon="4.09609">
        <ele>1020</ele>
        <time>2016-07-24T09:59:15Z</time>
      </trkpt>
      <trkpt lat="45.05454" lon="4.09617">
        <ele>1019</ele>
        <time>2016-07-24T09:59:33Z</time>
      </trkpt>
      <trkpt lat="45.05451" lon="4.09627">
        <ele>1018</ele>
        <time>2016-07-24T09:59:41Z</time>
      </trkpt>
      <trkpt lat="45.05448" lon="4.09619">
        <ele>1017</ele>
        <time>2016-07-24T09:59:53Z</time>
      </trkpt>
      <trkpt lat="45.05444" lon="4.09614">
        <ele>1016</ele>
        <time>2016-07-24T10:00:08Z</time>
      </trkpt>
      <trkpt lat="45.0544" lon="4.09621">
        <ele>1014</ele>
        <time>2016-07-24T10:00:20Z</time>
      </trkpt>
      <trkpt lat="45.05438" lon="4.09626">
        <ele>1014</ele>
        <time>2016-07-24T10:00:33Z</time>
      </trkpt>
      <trkpt lat="45.05432" lon="4.09634">
        <ele>1012</ele>
        <time>2016-07-24T10:00:49Z</time>
      </trkpt>
      <trkpt lat="45.05426" lon="4.09631">
        <ele>1011</ele>
        <time>2016-07-24T10:00:58Z</time>
      </trkpt>
      <trkpt lat="45.05423" lon="4.09633">
        <ele>1010</ele>
        <time>2016-07-24T10:01:13Z</time>
      </trkpt>
      <trkpt lat="45.05416" lon="4.09623">
        <ele>988</ele>
        <time>2016-07-24T10:01:16Z</time>
      </trkpt>
      <trkpt lat="45.0541" lon="4.09612">
        <ele>987</ele>
        <time>2016-07-24T10:01:34Z</time>
      </trkpt>
      <trkpt lat="45.05408" lon="4.09599">
        <ele>988</ele>
        <time>2016-07-24T10:01:51Z</time>
      </trkpt>
      <trkpt lat="45.05404" lon="4.09581">
        <ele>988</ele>
        <time>2016-07-24T10:02:05Z</time>
      </trkpt>
      <trkpt lat="45.05401" lon="4.09564">
        <ele>987</ele>
        <time>2016-07-24T10:02:08Z</time>
      </trkpt>
      <trkpt lat="45.05399" lon="4.09553">
        <ele>986</ele>
        <time>2016-07-24T10:02:13Z</time>
      </trkpt>
      <trkpt lat="45.05393" lon="4.09536">
        <ele>985</ele>
        <time>2016-07-24T10:02:23Z</time>
      </trkpt>
      <trkpt lat="45.0539" lon="4.09528">
        <ele>985</ele>
        <time>2016-07-24T10:02:33Z</time>
      </trkpt>
      <trkpt lat="45.05385" lon="4.09512">
        <ele>985</ele>
        <time>2016-07-24T10:02:35Z</time>
      </trkpt>
      <trkpt lat="45.05382" lon="4.09498">
        <ele>985</ele>
        <time>2016-07-24T10:02:37Z</time>
      </trkpt>
      <trkpt lat="45.0538" lon="4.09494">
        <ele>984</ele>
        <time>2016-07-24T10:02:52Z</time>
      </trkpt>
      <trkpt lat="45.05378" lon="4.09481">
        <ele>984</ele>
        <time>2016-07-24T10:03:13Z</time>
      </trkpt>
      <trkpt lat="45.05379" lon="4.09468">
        <ele>984</ele>
        <time>2016-07-24T10:03:24Z</time>
      </trkpt>
      <trkpt lat="45.05377" lon="4.09461">
        <ele>984</ele>
        <time>2016-07-24T10:03:38Z</time>
      </trkpt>
      <trkpt lat="45.05372" lon="4.09459">
        <ele>983</ele>
        <time>2016-07-24T10:03:56Z</time>
      </trkpt>
      <trkpt lat="45.05369" lon="4.0946">
        <ele>983</ele>
        <time>2016-07-24T10:04:11Z</time>
      </trkpt>
      <trkpt lat="45.05368" lon="4.09463">
        <ele>982</ele>
        <time>2016-07-24T10:04:20Z</time>
      </trkpt>
      <trkpt lat="45.05364" lon="4.09466">
        <ele>982</ele>
        <time>2016-07-24T10:04:23Z</time>
      </trkpt>
      <trkpt lat="45.05363" lon="4.09466">
        <ele>982</ele>
        <time>2016-07-24T10:04:39Z</time>
      </trkpt>
      <trkpt lat="45.05349" lon="4.0946">
        <ele>980</ele>
        <time>2016-07-24T10:04:57Z</time>
      </trkpt>
      <trkpt lat="45.05346" lon="4.09459">
        <ele>980</ele>
        <time>2016-07-24T10:05:14Z</time>
      </trkpt>
      <trkpt lat="45.05332" lon="4.09449">
        <ele>976</ele>
        <time>2016-07-24T10:05:31Z</time>
      </trkpt>
      <trkpt lat="45.05326" lon="4.09444">
        <ele>976</ele>
        <time>2016-07-24T10:05:47Z</time>
      </trkpt>
      <trkpt lat="45.05318" lon="4.09431">
        <ele>976</ele>
        <time>2016-07-24T10:06:05Z</time>
      </trkpt>
      <trkpt lat="45.05309" lon="4.09415">
        <ele>974</ele>
        <time>2016-07-24T10:06:22Z</time>
      </trkpt>
      <trkpt lat="45.05308" lon="4.09413">
        <ele>975</ele>
        <time>2016-07-24T10:06:25Z</time>
      </trkpt>
      <trkpt lat="45.05298" lon="4.09396">
        <ele>975</ele>
        <time>2016-07-24T10:06:29Z</time>
      </trkpt>
      <trkpt lat="45.05292" lon="4.09378">
        <ele>976</ele>
        <time>2016-07-24T10:06:42Z</time>
      </trkpt>
      <trkpt lat="45.05291" lon="4.0937">
        <ele>975</ele>
        <time>2016-07-24T10:06:56Z</time>
      </trkpt>
      <trkpt lat="45.05288" lon="4.09373">
        <ele>975</ele>
        <time>2016-07-24T10:07:00Z</time>
      </trkpt>
      <trkpt lat="45.05287" lon="4.09376">
        <ele>975</ele>
        <time>2016-07-24T10:07:12Z</time>
      </trkpt>
      <trkpt lat="45.05275" lon="4.09387">
        <ele>976</ele>
        <time>2016-07-24T10:07:16Z</time>
      </trkpt>
      <trkpt lat="45.05273" lon="4.09401">
        <ele>977</ele>
        <time>2016-07-24T10:07:34Z</time>
      </trkpt>
      <trkpt lat="45.05279" lon="4.09414">
        <ele>977</ele>
        <time>2016-07-24T10:07:36Z</time>
      </trkpt>
      <trkpt lat="45.05286" lon="4.09424">
        <ele>979</ele>
        <time>2016-07-24T10:07:53Z</time>
      </trkpt>
      <trkpt lat="45.05292" lon="4.0944">
        <ele>979</ele>
        <time>2016-07-24T10:08:03Z</time>
      </trkpt>
      <trkpt lat="45.05296" lon="4.09449">
        <ele>979</ele>
        <time>2016-07-24T10:08:19Z</time>
      </trkpt>
      <trkpt lat="45.05293" lon="4.0945">
        <ele>980</ele>
        <time>2016-07-24T10:08:36Z</time>
      </trkpt>
      <trkpt lat="45.05295" lon="4.09451">
        <ele>979</ele>
        <time>2016-07-24T10:08:46Z</time>
      </trkpt>
      <trkpt lat="45.05298" lon="4.09454">
        <ele>979</ele>
        <time>2016-07-24T10:08:48Z</time>
      </trkpt>
      <trkpt lat="45.05296" lon="4.09455">
        <ele>979</ele>
        <time>2016-07-24T10:09:04Z</time>
      </trkpt>
      <trkpt lat="45.05294" lon="4.09454">
        <ele>980</ele>
        <time>2016-07-24T10:09:20Z</time>
      </trkpt>
      <trkpt lat="45.05292" lon="4.09459">
        <ele>980</ele>
        <time>2016-07-24T10:09:36Z</time>
      </trkpt>
      <trkpt lat="45.05295" lon="4.0946">
        <ele>980</ele>
        <time>2016-07-24T10:09:52Z</time>
      </trkpt>
      <trkpt lat="45.05294" lon="4.0946">
        <ele>980</ele>
        <time>2016-07-24T10:10:00Z</time>
      </trkpt>
      <trkpt lat="45.05293" lon="4.0946">
        <ele>980</ele>
        <time>2016-07-24T10:10:14Z</time>
      </trkpt>
      <trkpt lat="45.05293" lon="4.09466">
        <ele>980</ele>
        <time>2016-07-24T10:10:27Z</time>
      </trkpt>
      <trkpt lat="45.05293" lon="4.0947">
        <ele>980</ele>
        <time>2016-07-24T10:10:33Z</time>
      </trkpt>
      <trkpt lat="45.05293" lon="4.09475">
        <ele>981</ele>
        <time>2016-07-24T10:10:49Z</time>
      </trkpt>
      <trkpt lat="45.05297" lon="4.09479">
        <ele>980</ele>
        <time>2016-07-24T10:10:50Z</time>
      </trkpt>
      <trkpt lat="45.05305" lon="4.09484">
        <ele>979</ele>
        <time>2016-07-24T10:10:54Z</time>
      </trkpt>
      <trkpt lat="45.05313" lon="4.09497">
        <ele>977</ele>
        <time>2016-07-24T10:11:04Z</time>
      </trkpt>
      <trkpt lat="45.05316" lon="4.09507">
        <ele>980</ele>
        <time>2016-07-24T10:11:09Z</time>
      </trkpt>
      <trkpt lat="45.05313" lon="4.09516">
        <ele>981</ele>
        <time>2016-07-24T10:11:13Z</time>
      </trkpt>
      <trkpt lat="45.05315" lon="4.09526">
        <ele>982</ele>
        <time>2016-07-24T10:11:16Z</time>
      </trkpt>
      <trkpt lat="45.05313" lon="4.09532">
        <ele>983</ele>
        <time>2016-07-24T10:11:20Z</time>
      </trkpt>
      <trkpt lat="45.05313" lon="4.09554">
        <ele>983</ele>
        <time>2016-07-24T10:11:37Z</time>
      </trkpt>
      <trkpt lat="45.05314" lon="4.09573">
        <ele>982</ele>
        <time>2016-07-24T10:11:53Z</time>
      </trkpt>
      <trkpt lat="45.05311" lon="4.09587">
        <ele>985</ele>
        <time>2016-07-24T10:12:05Z</time>
      </trkpt>
      <trkpt lat="45.05308" lon="4.09603">
        <ele>987</ele>
        <time>2016-07-24T10:12:11Z</time>
      </trkpt>
      <trkpt lat="45.05304" lon="4.09619">
        <ele>988</ele>
        <time>2016-07-24T10:12:26Z</time>
      </trkpt>
      <trkpt lat="45.05301" lon="4.09636">
        <ele>989</ele>
        <time>2016-07-24T10:12:40Z</time>
      </trkpt>
      <trkpt lat="45.053" lon="4.09641">
        <ele>989</ele>
        <time>2016-07-24T10:12:54Z</time>
      </trkpt>
      <trkpt lat="45.05301" lon="4.0965">
        <ele>989</ele>
        <time>2016-07-24T10:12:58Z</time>
      </trkpt>
      <trkpt lat="45.05302" lon="4.09675">
        <ele>989</ele>
        <time>2016-07-24T10:13:03Z</time>
      </trkpt>
      <trkpt lat="45.05298" lon="4.09712">
        <ele>990</ele>
        <time>2016-07-24T10:13:11Z</time>
      </trkpt>
      <trkpt lat="45.05296" lon="4.0972">
        <ele>991</ele>
        <time>2016-07-24T10:13:13Z</time>
      </trkpt>
      <trkpt lat="45.05295" lon="4.09721">
        <ele>991</ele>
        <time>2016-07-24T10:13:18Z</time>
      </trkpt>
      <trkpt lat="45.05295" lon="4.09722">
        <ele>991</ele>
        <time>2016-07-24T10:13:34Z</time>
      </trkpt>
      <trkpt lat="45.05295" lon="4.09721">
        <ele>991</ele>
        <time>2016-07-24T10:13:46Z</time>
      </trkpt>
      <trkpt lat="45.05296" lon="4.0972">
        <ele>991</ele>
        <time>2016-07-24T10:14:06Z</time>
      </trkpt>
      <trkpt lat="45.05295" lon="4.09722">
        <ele>991</ele>
        <time>2016-07-24T10:14:24Z</time>
      </trkpt>
      <trkpt lat="45.05297" lon="4.09725">
        <ele>990</ele>
        <time>2016-07-24T10:14:44Z</time>
      </trkpt>
      <trkpt lat="45.05297" lon="4.09725">
        <ele>990</ele>
        <time>2016-07-24T10:15:05Z</time>
      </trkpt>
      <trkpt lat="45.05296" lon="4.09726">
        <ele>990</ele>
        <time>2016-07-24T10:15:25Z</time>
      </trkpt>
      <trkpt lat="45.05298" lon="4.09725">
        <ele>990</ele>
        <time>2016-07-24T10:15:32Z</time>
      </trkpt>
      <trkpt lat="45.05299" lon="4.09726">
        <ele>990</ele>
        <time>2016-07-24T10:15:48Z</time>
      </trkpt>
      <trkpt lat="45.05298" lon="4.09725">
        <ele>990</ele>
        <time>2016-07-24T10:16:04Z</time>
      </trkpt>
      <trkpt lat="45.05298" lon="4.09739">
        <ele>990</ele>
        <time>2016-07-24T10:16:24Z</time>
      </trkpt>
      <trkpt lat="45.05299" lon="4.09743">
        <ele>989</ele>
        <time>2016-07-24T10:16:43Z</time>
      </trkpt>
      <trkpt lat="45.05303" lon="4.0976">
        <ele>988</ele>
        <time>2016-07-24T10:16:48Z</time>
      </trkpt>
      <trkpt lat="45.0531" lon="4.09776">
        <ele>988</ele>
        <time>2016-07-24T10:16:50Z</time>
      </trkpt>
      <trkpt lat="45.05317" lon="4.09788">
        <ele>987</ele>
        <time>2016-07-24T10:16:59Z</time>
      </trkpt>
      <trkpt lat="45.0532" lon="4.09794">
        <ele>987</ele>
        <time>2016-07-24T10:17:03Z</time>
      </trkpt>
      <trkpt lat="45.05328" lon="4.09809">
        <ele>985</ele>
        <time>2016-07-24T10:17:14Z</time>
      </trkpt>
      <trkpt lat="45.05336" lon="4.09825">
        <ele>976</ele>
        <time>2016-07-24T10:17:21Z</time>
      </trkpt>
      <trkpt lat="45.05342" lon="4.09852">
        <ele>975</ele>
        <time>2016-07-24T10:17:39Z</time>
      </trkpt>
      <trkpt lat="45.05348" lon="4.09872">
        <ele>976</ele>
        <time>2016-07-24T10:17:54Z</time>
      </trkpt>
      <trkpt lat="45.05355" lon="4.09909">
        <ele>977</ele>
        <time>2016-07-24T10:18:10Z</time>
      </trkpt>
      <trkpt lat="45.05359" lon="4.09931">
        <ele>979</ele>
        <time>2016-07-24T10:18:27Z</time>
      </trkpt>
      <trkpt lat="45.05363" lon="4.09946">
        <ele>979</ele>
        <time>2016-07-24T10:18:46Z</time>
      </trkpt>
      <trkpt lat="45.05364" lon="4.09969">
        <ele>979</ele>
        <time>2016-07-24T10:19:02Z</time>
      </trkpt>
      <trkpt lat="45.05368" lon="4.09992">
        <ele>980</ele>
        <time>2016-07-24T10:19:15Z</time>
      </trkpt>
      <trkpt lat="45.05371" lon="4.10014">
        <ele>983</ele>
        <time>2016-07-24T10:19:28Z</time>
      </trkpt>
      <trkpt lat="45.05373" lon="4.10021">
        <ele>983</ele>
        <time>2016-07-24T10:19:45Z</time>
      </trkpt>
      <trkpt lat="45.05373" lon="4.10032">
        <ele>983</ele>
        <time>2016-07-24T10:20:02Z</time>
      </trkpt>
      <trkpt lat="45.05374" lon="4.10036">
        <ele>983</ele>
        <time>2016-07-24T10:20:20Z</time>
      </trkpt>
      <trkpt lat="45.05374" lon="4.10039">
        <ele>983</ele>
        <time>2016-07-24T10:20:35Z</time>
      </trkpt>
      <trkpt lat="45.05378" lon="4.10057">
        <ele>983</ele>
        <time>2016-07-24T10:20:51Z</time>
      </trkpt>
      <trkpt lat="45.05385" lon="4.10073">
        <ele>982</ele>
        <time>2016-07-24T10:21:09Z</time>
      </trkpt>
      <trkpt lat="45.05397" lon="4.10091">
        <ele>983</ele>
        <time>2016-07-24T10:21:30Z</time>
      </trkpt>
      <trkpt lat="45.05407" lon="4.10106">
        <ele>983</ele>
        <time>2016-07-24T10:21:46Z</time>
      </trkpt>
      <trkpt lat="45.0541" lon="4.1011">
        <ele>984</ele>
        <time>2016-07-24T10:22:06Z</time>
      </trkpt>
      <trkpt lat="45.05415" lon="4.10116">
        <ele>984</ele>
        <time>2016-07-24T10:22:19Z</time>
      </trkpt>
      <trkpt lat="45.05419" lon="4.10118">
        <ele>980</ele>
        <time>2016-07-24T10:22:36Z</time>
      </trkpt>
      <trkpt lat="45.05428" lon="4.10132">
        <ele>981</ele>
        <time>2016-07-24T10:22:43Z</time>
      </trkpt>
      <trkpt lat="45.05429" lon="4.10153">
        <ele>982</ele>
        <time>2016-07-24T10:23:00Z</time>
      </trkpt>
      <trkpt lat="45.05432" lon="4.10152">
        <ele>982</ele>
        <time>2016-07-24T10:23:12Z</time>
      </trkpt>
      <trkpt lat="45.05438" lon="4.10151">
        <ele>982</ele>
        <time>2016-07-24T10:23:29Z</time>
      </trkpt>
      <trkpt lat="45.05451" lon="4.10154">
        <ele>981</ele>
        <time>2016-07-24T10:23:32Z</time>
      </trkpt>
      <trkpt lat="45.0546" lon="4.10161">
        <ele>981</ele>
        <time>2016-07-24T10:23:50Z</time>
      </trkpt>
      <trkpt lat="45.0547" lon="4.10174">
        <ele>986</ele>
        <time>2016-07-24T10:24:07Z</time>
      </trkpt>
      <trkpt lat="45.0548" lon="4.10186">
        <ele>986</ele>
        <time>2016-07-24T10:24:27Z</time>
      </trkpt>
      <trkpt lat="45.05487" lon="4.10201">
        <ele>987</ele>
        <time>2016-07-24T10:24:31Z</time>
      </trkpt>
      <trkpt lat="45.0549" lon="4.10205">
        <ele>987</ele>
        <time>2016-07-24T10:24:40Z</time>
      </trkpt>
      <trkpt lat="45.05489" lon="4.10194">
        <ele>986</ele>
        <time>2016-07-24T10:24:59Z</time>
      </trkpt>
      <trkpt lat="45.05491" lon="4.10188">
        <ele>986</ele>
        <time>2016-07-24T10:25:02Z</time>
      </trkpt>
      <trkpt lat="45.05497" lon="4.10177">
        <ele>984</ele>
        <time>2016-07-24T10:25:22Z</time>
      </trkpt>
      <trkpt lat="45.05509" lon="4.10166">
        <ele>982</ele>
        <time>2016-07-24T10:25:40Z</time>
      </trkpt>
      <trkpt lat="45.05507" lon="4.10145">
        <ele>982</ele>
        <time>2016-07-24T10:25:59Z</time>
      </trkpt>
      <trkpt lat="45.05505" lon="4.10143">
        <ele>982</ele>
        <time>2016-07-24T10:26:15Z</time>
      </trkpt>
      <trkpt lat="45.055" lon="4.10126">
        <ele>980</ele>
        <time>2016-07-24T10:26:17Z</time>
      </trkpt>
      <trkpt lat="45.055" lon="4.10119">
        <ele>980</ele>
        <time>2016-07-24T10:26:34Z</time>
      </trkpt>
      <trkpt lat="45.05503" lon="4.10111">
        <ele>981</ele>
        <time>2016-07-24T10:26:54Z</time>
      </trkpt>
      <trkpt lat="45.05506" lon="4.10098">
        <ele>980</ele>
        <time>2016-07-24T10:27:12Z</time>
      </trkpt>
      <trkpt lat="45.05509" lon="4.1009">
        <ele>980</ele>
        <time>2016-07-24T10:27:29Z</time>
      </trkpt>
      <trkpt lat="45.05513" lon="4.10069">
        <ele>983</ele>
        <time>2016-07-24T10:27:34Z</time>
      </trkpt>
      <trkpt lat="45.05515" lon="4.10057">
        <ele>984</ele>
        <time>2016-07-24T10:27:52Z</time>
      </trkpt>
      <trkpt lat="45.05518" lon="4.10044">
        <ele>985</ele>
        <time>2016-07-24T10:28:02Z</time>
      </trkpt>
      <trkpt lat="45.05516" lon="4.10025">
        <ele>985</ele>
        <time>2016-07-24T10:28:15Z</time>
      </trkpt>
      <trkpt lat="45.05512" lon="4.10014">
        <ele>985</ele>
        <time>2016-07-24T10:28:24Z</time>
      </trkpt>
      <trkpt lat="45.05504" lon="4.09998">
        <ele>985</ele>
        <time>2016-07-24T10:28:39Z</time>
      </trkpt>
      <trkpt lat="45.05498" lon="4.09978">
        <ele>981</ele>
        <time>2016-07-24T10:28:59Z</time>
      </trkpt>
      <trkpt lat="45.05495" lon="4.09969">
        <ele>981</ele>
        <time>2016-07-24T10:29:18Z</time>
      </trkpt>
      <trkpt lat="45.05492" lon="4.09946">
        <ele>983</ele>
        <time>2016-07-24T10:29:35Z</time>
      </trkpt>
      <trkpt lat="45.05492" lon="4.09925">
        <ele>987</ele>
        <time>2016-07-24T10:29:56Z</time>
      </trkpt>
      <trkpt lat="45.05491" lon="4.09919">
        <ele>987</ele>
        <time>2016-07-24T10:30:18Z</time>
      </trkpt>
      <trkpt lat="45.05487" lon="4.09895">
        <ele>989</ele>
        <time>2016-07-24T10:30:36Z</time>
      </trkpt>
      <trkpt lat="45.05484" lon="4.09886">
        <ele>990</ele>
        <time>2016-07-24T10:30:56Z</time>
      </trkpt>
      <trkpt lat="45.05477" lon="4.09873">
        <ele>990</ele>
        <time>2016-07-24T10:31:16Z</time>
      </trkpt>
      <trkpt lat="45.05477" lon="4.09864">
        <ele>992</ele>
        <time>2016-07-24T10:31:36Z</time>
      </trkpt>
      <trkpt lat="45.05483" lon="4.09858">
        <ele>994</ele>
        <time>2016-07-24T10:31:58Z</time>
      </trkpt>
      <trkpt lat="45.0549" lon="4.09856">
        <ele>996</ele>
        <time>2016-07-24T10:32:14Z</time>
      </trkpt>
      <trkpt lat="45.05492" lon="4.09853">
        <ele>997</ele>
        <time>2016-07-24T10:32:28Z</time>
      </trkpt>
      <trkpt lat="45.05494" lon="4.09845">
        <ele>1001</ele>
        <time>2016-07-24T10:32:48Z</time>
      </trkpt>
      <trkpt lat="45.05496" lon="4.09842">
        <ele>1003</ele>
        <time>2016-07-24T10:33:09Z</time>
      </trkpt>
      <trkpt lat="45.05497" lon="4.09842">
        <ele>1003</ele>
        <time>2016-07-24T10:33:29Z</time>
      </trkpt>
      <trkpt lat="45.05499" lon="4.09843">
        <ele>1003</ele>
        <time>2016-07-24T10:33:47Z</time>
      </trkpt>
      <trkpt lat="45.05498" lon="4.09844">
        <ele>1003</ele>
        <time>2016-07-24T10:34:06Z</time>
      </trkpt>
      <trkpt lat="45.05498" lon="4.09842">
        <ele>1003</ele>
        <time>2016-07-24T10:38:20Z</time>
      </trkpt>
      <trkpt lat="45.05501" lon="4.09844">
        <ele>1012</ele>
        <time>2016-07-24T10:38:20Z</time>
      </trkpt>
      <trkpt lat="45.05505" lon="4.09847">
        <ele>1013</ele>
        <time>2016-07-24T10:38:34Z</time>
      </trkpt>
      <trkpt lat="45.05508" lon="4.0985">
        <ele>1013</ele>
      </trkpt>
      <trkpt lat="45.05504" lon="4.09851">
        <ele>1013</ele>
      </trkpt>
      <trkpt lat="45.05502" lon="4.09849">
        <ele>1012</ele>
      </trkpt>
      <trkpt lat="45.05506" lon="4.09852">
        <ele>1013</ele>
      </trkpt>
      <trkpt lat="45.05516" lon="4.09854">
        <ele>1014</ele>
      </trkpt>
      <trkpt lat="45.05526" lon="4.09858">
        <ele>1015</ele>
      </trkpt>
      <trkpt lat="45.05532" lon="4.09869">
        <ele>1015</ele>
      </trkpt>
      <trkpt lat="45.05533" lon="4.09875">
        <ele>1014</ele>
      </trkpt>
      <trkpt lat="45.05531" lon="4.09875">
        <ele>1014</ele>
      </trkpt>
      <trkpt lat="45.05531" lon="4.09874">
        <ele>1014</ele>
      </trkpt>
      <trkpt lat="45.05531" lon="4.09873">
        <ele>1014</ele>
      </trkpt>
      <trkpt lat="45.05532" lon="4.09873">
        <ele>1014</ele>
      </trkpt>
      <trkpt lat="45.05536" lon="4.09877">
        <ele>1014</ele>
      </trkpt>
      <trkpt lat="45.05543" lon="4.09882">
        <ele>1015</ele>
      </trkpt>
      <trkpt lat="45.05555" lon="4.09888">
        <ele>1016</ele>
      </trkpt>
      <trkpt lat="45.05564" lon="4.09891">
        <ele>1017</ele>
      </trkpt>
      <trkpt lat="45.05572" lon="4.09895">
        <ele>1017</ele>
      </trkpt>
      <trkpt lat="45.05581" lon="4.09894">
        <ele>1018</ele>
      </trkpt>
      <trkpt lat="45.05587" lon="4.09894">
        <ele>1028</ele>
      </trkpt>
      <trkpt lat="45.05597" lon="4.09894">
        <ele>1029</ele>
      </trkpt>
      <trkpt lat="45.05608" lon="4.09891">
        <ele>1030</ele>
      </trkpt>
      <trkpt lat="45.05615" lon="4.09891">
        <ele>1031</ele>
      </trkpt>
      <trkpt lat="45.05619" lon="4.09891">
        <ele>1031</ele>
      </trkpt>
      <trkpt lat="45.05621" lon="4.09889">
        <ele>1031</ele>
      </trkpt>
      <trkpt lat="45.05634" lon="4.09887">
        <ele>1032</ele>
      </trkpt>
      <trkpt lat="45.05644" lon="4.09888">
        <ele>1032</ele>
      </trkpt>
      <trkpt lat="45.05661" lon="4.09882">
        <ele>1033</ele>
      </trkpt>
      <trkpt lat="45.05668" lon="4.09881">
        <ele>1036</ele>
      </trkpt>
      <trkpt lat="45.05682" lon="4.09876">
        <ele>1037</ele>
      </trkpt>
      <trkpt lat="45.0569" lon="4.09873">
        <ele>1037</ele>
      </trkpt>
      <trkpt lat="45.05702" lon="4.09869">
        <ele>1037</ele>
      </trkpt>
      <trkpt lat="45.05706" lon="4.09868">
        <ele>1038</ele>
      </trkpt>
      <trkpt lat="45.05708" lon="4.09867">
        <ele>1038</ele>
      </trkpt>
      <trkpt lat="45.05714" lon="4.09861">
        <ele>1038</ele>
      </trkpt>
      <trkpt lat="45.05727" lon="4.09847">
        <ele>1039</ele>
      </trkpt>
      <trkpt lat="45.05736" lon="4.0984">
        <ele>1040</ele>
      </trkpt>
      <trkpt lat="45.05749" lon="4.09833">
        <ele>1044</ele>
      </trkpt>
      <trkpt lat="45.05753" lon="4.0982">
        <ele>1046</ele>
      </trkpt>
      <trkpt lat="45.05746" lon="4.09811">
        <ele>1055</ele>
      </trkpt>
      <trkpt lat="45.05736" lon="4.09812">
        <ele>1056</ele>
      </trkpt>
      <trkpt lat="45.05726" lon="4.09814">
        <ele>1057</ele>
      </trkpt>
      <trkpt lat="45.05717" lon="4.09816">
        <ele>1058</ele>
      </trkpt>
      <trkpt lat="45.05716" lon="4.09815">
        <ele>1058</ele>
      </trkpt>
      <trkpt lat="45.05706" lon="4.09812">
        <ele>1059</ele>
      </trkpt>
      <trkpt lat="45.05703" lon="4.0981">
        <ele>1060</ele>
      </trkpt>
      <trkpt lat="45.05696" lon="4.09805">
        <ele>1061</ele>
      </trkpt>
      <trkpt lat="45.05695" lon="4.09799">
        <ele>1062</ele>
      </trkpt>
      <trkpt lat="45.057" lon="4.09792">
        <ele>1064</ele>
      </trkpt>
      <trkpt lat="45.05708" lon="4.0978">
        <ele>1066</ele>
      </trkpt>
      <trkpt lat="45.05715" lon="4.09771">
        <ele>1066</ele>
      </trkpt>
      <trkpt lat="45.05715" lon="4.09767">
        <ele>1067</ele>
      </trkpt>
      <trkpt lat="45.05711" lon="4.09769">
        <ele>1067</ele>
      </trkpt>
      <trkpt lat="45.05701" lon="4.09775">
        <ele>1068</ele>
      </trkpt>
      <trkpt lat="45.05692" lon="4.09775">
        <ele>1069</ele>
      </trkpt>
      <trkpt lat="45.05691" lon="4.09769">
        <ele>1071</ele>
      </trkpt>
      <trkpt lat="45.05698" lon="4.09765">
        <ele>1070</ele>
      </trkpt>
      <trkpt lat="45.05706" lon="4.09754">
        <ele>1070</ele>
      </trkpt>
      <trkpt lat="45.05715" lon="4.09745">
        <ele>1090</ele>
      </trkpt>
      <trkpt lat="45.05719" lon="4.09738">
        <ele>1090</ele>
      </trkpt>
      <trkpt lat="45.05721" lon="4.09734">
        <ele>1090</ele>
      </trkpt>
      <trkpt lat="45.05727" lon="4.09726">
        <ele>1090</ele>
      </trkpt>
      <trkpt lat="45.05738" lon="4.09711">
        <ele>1093</ele>
      </trkpt>
      <trkpt lat="45.05747" lon="4.09701">
        <ele>1094</ele>
      </trkpt>
      <trkpt lat="45.05759" lon="4.09688">
        <ele>1081</ele>
      </trkpt>
      <trkpt lat="45.05769" lon="4.09677">
        <ele>1081</ele>
      </trkpt>
      <trkpt lat="45.05775" lon="4.09665">
        <ele>1091</ele>
      </trkpt>
      <trkpt lat="45.0578" lon="4.09646">
        <ele>1090</ele>
      </trkpt>
      <trkpt lat="45.05784" lon="4.09636">
        <ele>1089</ele>
      </trkpt>
      <trkpt lat="45.05786" lon="4.09624">
        <ele>1090</ele>
      </trkpt>
      <trkpt lat="45.05789" lon="4.09603">
        <ele>1091</ele>
      </trkpt>
      <trkpt lat="45.05788" lon="4.09588">
        <ele>1092</ele>
      </trkpt>
      <trkpt lat="45.05786" lon="4.09574">
        <ele>1098</ele>
      </trkpt>
      <trkpt lat="45.05786" lon="4.09555">
        <ele>1098</ele>
      </trkpt>
      <trkpt lat="45.05782" lon="4.09547">
        <ele>1099</ele>
      </trkpt>
      <trkpt lat="45.05785" lon="4.09549">
        <ele>1098</ele>
      </trkpt>
      <trkpt lat="45.05781" lon="4.0956">
        <ele>1099</ele>
      </trkpt>
      <trkpt lat="45.05775" lon="4.09575">
        <ele>1102</ele>
      </trkpt>
      <trkpt lat="45.05765" lon="4.09583">
        <ele>1105</ele>
      </trkpt>
      <trkpt lat="45.05756" lon="4.09585">
        <ele>1107</ele>
      </trkpt>
      <trkpt lat="45.05749" lon="4.09593">
        <ele>1115</ele>
      </trkpt>
      <trkpt lat="45.05742" lon="4.096">
        <ele>1116</ele>
      </trkpt>
      <trkpt lat="45.05733" lon="4.09613">
        <ele>1117</ele>
      </trkpt>
      <trkpt lat="45.05724" lon="4.09621">
        <ele>1118</ele>
      </trkpt>
      <trkpt lat="45.05716" lon="4.09629">
        <ele>1118</ele>
      </trkpt>
      <trkpt lat="45.05711" lon="4.0962">
        <ele>1120</ele>
      </trkpt>
      <trkpt lat="45.05709" lon="4.09611">
        <ele>1120</ele>
      </trkpt>
      <trkpt lat="45.05705" lon="4.09602">
        <ele>1122</ele>
      </trkpt>
      <trkpt lat="45.05701" lon="4.09596">
        <ele>1123</ele>
      </trkpt>
      <trkpt lat="45.05702" lon="4.09581">
        <ele>1121</ele>
      </trkpt>
      <trkpt lat="45.05701" lon="4.09571">
        <ele>1121</ele>
      </trkpt>
      <trkpt lat="45.05698" lon="4.09573">
        <ele>1122</ele>
      </trkpt>
      <trkpt lat="45.05697" lon="4.09572">
        <ele>1122</ele>
      </trkpt>
      <trkpt lat="45.05696" lon="4.09575">
        <ele>1122</ele>
      </trkpt>
      <trkpt lat="45.05692" lon="4.09586">
        <ele>1125</ele>
      </trkpt>
      <trkpt lat="45.05687" lon="4.09587">
        <ele>1127</ele>
      </trkpt>
      <trkpt lat="45.05684" lon="4.09581">
        <ele>1126</ele>
      </trkpt>
      <trkpt lat="45.05677" lon="4.09573">
        <ele>1127</ele>
      </trkpt>
      <trkpt lat="45.05675" lon="4.09579">
        <ele>1130</ele>
      </trkpt>
      <trkpt lat="45.05673" lon="4.09589">
        <ele>1131</ele>
      </trkpt>
      <trkpt lat="45.0567" lon="4.09602">
        <ele>1128</ele>
      </trkpt>
      <trkpt lat="45.05667" lon="4.09599">
        <ele>1129</ele>
      </trkpt>
      <trkpt lat="45.0566" lon="4.09591">
        <ele>1130</ele>
      </trkpt>
      <trkpt lat="45.05655" lon="4.09592">
        <ele>1128</ele>
      </trkpt>
      <trkpt lat="45.05655" lon="4.09601">
        <ele>1126</ele>
      </trkpt>
      <trkpt lat="45.05655" lon="4.09608">
        <ele>1125</ele>
      </trkpt>
      <trkpt lat="45.05652" lon="4.0963">
        <ele>1123</ele>
      </trkpt>
      <trkpt lat="45.05646" lon="4.09624">
        <ele>1122</ele>
      </trkpt>
      <trkpt lat="45.05645" lon="4.09621">
        <ele>1122</ele>
      </trkpt>
      <trkpt lat="45.05641" lon="4.0961">
        <ele>1122</ele>
      </trkpt>
      <trkpt lat="45.05635" lon="4.09604">
        <ele>1121</ele>
      </trkpt>
      <trkpt lat="45.05631" lon="4.0961">
        <ele>1120</ele>
      </trkpt>
      <trkpt lat="45.05632" lon="4.0961">
        <ele>1120</ele>
      </trkpt>
      <trkpt lat="45.05632" lon="4.0961">
        <ele>1120</ele>
      </trkpt>
      <trkpt lat="45.05633" lon="4.09612">
        <ele>1121</ele>
      </trkpt>
      <trkpt lat="45.05636" lon="4.09611">
        <ele>1121</ele>
      </trkpt>
      <trkpt lat="45.05636" lon="4.09613">
        <ele>1121</ele>
      </trkpt>
      <trkpt lat="45.05635" lon="4.09612">
        <ele>1121</ele>
      </trkpt>
      <trkpt lat="45.05633" lon="4.09611">
        <ele>1121</ele>
      </trkpt>
      <trkpt lat="45.05634" lon="4.09612">
        <ele>1121</ele>
      </trkpt>
      <trkpt lat="45.05634" lon="4.09612">
        <ele>1121</ele>
      </trkpt>
      <trkpt lat="45.05634" lon="4.09613">
        <ele>1121</ele>
      </trkpt>
      <trkpt lat="45.05634" lon="4.09614">
        <ele>1121</ele>
      </trkpt>
      <trkpt lat="45.05634" lon="4.09614">
        <ele>1121</ele>
      </trkpt>
      <trkpt lat="45.05634" lon="4.09614">
        <ele>1121</ele>
      </trkpt>
      <trkpt lat="45.05634" lon="4.09614">
        <ele>1121</ele>
      </trkpt>
      <trkpt lat="45.05634" lon="4.09613">
        <ele>1121</ele>
      </trkpt>
      <trkpt lat="45.05634" lon="4.09613">
        <ele>1121</ele>
      </trkpt>
      <trkpt lat="45.05634" lon="4.09613">
        <ele>1121</ele>
      </trkpt>
      <trkpt lat="45.05634" lon="4.09613">
        <ele>1121</ele>
      </trkpt>
      <trkpt lat="45.05634" lon="4.09613">
        <ele>1121</ele>
      </trkpt>
      <trkpt lat="45.05633" lon="4.09609">
        <ele>1121</ele>
      </trkpt>
      <trkpt lat="45.05633" lon="4.09607">
        <ele>1121</ele>
      </trkpt>
      <trkpt lat="45.05632" lon="4.09597">
        <ele>1121</ele>
      </trkpt>
      <trkpt lat="45.05631" lon="4.09588">
        <ele>1121</ele>
      </trkpt>
      <trkpt lat="45.05632" lon="4.09585">
        <ele>1121</ele>
      </trkpt>
      <trkpt lat="45.05633" lon="4.09584">
        <ele>1122</ele>
      </trkpt>
      <trkpt lat="45.05635" lon="4.09583">
        <ele>1117</ele>
      </trkpt>
      <trkpt lat="45.05643" lon="4.09588">
        <ele>1125</ele>
      </trkpt>
      <trkpt lat="45.05645" lon="4.09584">
        <ele>1125</ele>
      </trkpt>
      <trkpt lat="45.05648" lon="4.09582">
        <ele>1122</ele>
      </trkpt>
      <trkpt lat="45.05648" lon="4.09581">
        <ele>1122</ele>
      </trkpt>
      <trkpt lat="45.05654" lon="4.09575">
        <ele>1124</ele>
      </trkpt>
      <trkpt lat="45.05657" lon="4.09571">
        <ele>1123</ele>
      </trkpt>
      <trkpt lat="45.05659" lon="4.09557">
        <ele>1119</ele>
      </trkpt>
      <trkpt lat="45.05656" lon="4.0955">
        <ele>1116</ele>
      </trkpt>
      <trkpt lat="45.05659" lon="4.0954">
        <ele>1114</ele>
      </trkpt>
      <trkpt lat="45.05658" lon="4.09532">
        <ele>1113</ele>
      </trkpt>
      <trkpt lat="45.05659" lon="4.09523">
        <ele>1112</ele>
      </trkpt>
      <trkpt lat="45.05656" lon="4.09515">
        <ele>1111</ele>
      </trkpt>
      <trkpt lat="45.05655" lon="4.09511">
        <ele>1111</ele>
      </trkpt>
      <trkpt lat="45.05653" lon="4.09499">
        <ele>1102</ele>
      </trkpt>
      <trkpt lat="45.0565" lon="4.0949">
        <ele>1099</ele>
      </trkpt>
      <trkpt lat="45.05644" lon="4.09469">
        <ele>1093</ele>
      </trkpt>
      <trkpt lat="45.05646" lon="4.09456">
        <ele>1091</ele>
      </trkpt>
      <trkpt lat="45.05649" lon="4.09444">
        <ele>1090</ele>
      </trkpt>
      <trkpt lat="45.05653" lon="4.0944">
        <ele>1090</ele>
      </trkpt>
      <trkpt lat="45.05654" lon="4.09432">
        <ele>1089</ele>
      </trkpt>
      <trkpt lat="45.05659" lon="4.09426">
        <ele>1089</ele>
      </trkpt>
      <trkpt lat="45.05663" lon="4.09416">
        <ele>1088</ele>
      </trkpt>
      <trkpt lat="45.05667" lon="4.09411">
        <ele>1090</ele>
      </trkpt>
      <trkpt lat="45.05669" lon="4.09393">
        <ele>1090</ele>
      </trkpt>
      <trkpt lat="45.05672" lon="4.09384">
        <ele>1090</ele>
      </trkpt>
      <trkpt lat="45.05679" lon="4.09366">
        <ele>1090</ele>
      </trkpt>
      <trkpt lat="45.05684" lon="4.09345">
        <ele>1088</ele>
      </trkpt>
      <trkpt lat="45.05685" lon="4.09339">
        <ele>1088</ele>
      </trkpt>
      <trkpt lat="45.05687" lon="4.09338">
        <ele>1088</ele>
      </trkpt>
      <trkpt lat="45.05705" lon="4.09354">
        <ele>1091</ele>
      </trkpt>
      <trkpt lat="45.05706" lon="4.09355">
        <ele>1091</ele>
      </trkpt>
      <trkpt lat="45.05711" lon="4.0936">
        <ele>1092</ele>
      </trkpt>
      <trkpt lat="45.05727" lon="4.09373">
        <ele>1093</ele>
      </trkpt>
      <trkpt lat="45.05743" lon="4.09387">
        <ele>1094</ele>
      </trkpt>
      <trkpt lat="45.05757" lon="4.09397">
        <ele>1098</ele>
      </trkpt>
      <trkpt lat="45.05777" lon="4.0941">
        <ele>1099</ele>
      </trkpt>
      <trkpt lat="45.05785" lon="4.09415">
        <ele>1099</ele>
      </trkpt>
      <trkpt lat="45.05788" lon="4.09415">
        <ele>1099</ele>
      </trkpt>
      <trkpt lat="45.05797" lon="4.09412">
        <ele>1099</ele>
      </trkpt>
      <trkpt lat="45.05811" lon="4.09407">
        <ele>1099</ele>
      </trkpt>
      <trkpt lat="45.05816" lon="4.09406">
        <ele>1099</ele>
      </trkpt>
      <trkpt lat="45.05826" lon="4.094">
        <ele>1099</ele>
      </trkpt>
      <trkpt lat="45.0583" lon="4.09397">
        <ele>1100</ele>
      </trkpt>
      <trkpt lat="45.05841" lon="4.09401">
        <ele>1100</ele>
      </trkpt>
      <trkpt lat="45.05852" lon="4.09401">
        <ele>1100</ele>
      </trkpt>
      <trkpt lat="45.05857" lon="4.094">
        <ele>1101</ele>
      </trkpt>
      <trkpt lat="45.05865" lon="4.09404">
        <ele>1100</ele>
      </trkpt>
      <trkpt lat="45.05885" lon="4.09413">
        <ele>1100</ele>
      </trkpt>
      <trkpt lat="45.05911" lon="4.09421">
        <ele>1097</ele>
      </trkpt>
      <trkpt lat="45.05933" lon="4.0943">
        <ele>1094</ele>
      </trkpt>
      <trkpt lat="45.05951" lon="4.09439">
        <ele>1093</ele>
      </trkpt>
      <trkpt lat="45.05953" lon="4.09439">
        <ele>1093</ele>
      </trkpt>
      <trkpt lat="45.05972" lon="4.09447">
        <ele>1092</ele>
      </trkpt>
      <trkpt lat="45.05979" lon="4.0945">
        <ele>1092</ele>
      </trkpt>
      <trkpt lat="45.05994" lon="4.09456">
        <ele>1092</ele>
      </trkpt>
      <trkpt lat="45.06015" lon="4.0946">
        <ele>1089</ele>
      </trkpt>
      <trkpt lat="45.06027" lon="4.09459">
        <ele>1089</ele>
      </trkpt>
      <trkpt lat="45.06038" lon="4.09459">
        <ele>1089</ele>
      </trkpt>
      <trkpt lat="45.06056" lon="4.0946">
        <ele>1088</ele>
      </trkpt>
      <trkpt lat="45.06066" lon="4.09463">
        <ele>1088</ele>
      </trkpt>
      <trkpt lat="45.06082" lon="4.09472">
        <ele>1087</ele>
      </trkpt>
      <trkpt lat="45.06085" lon="4.09474">
        <ele>1085</ele>
      </trkpt>
      <trkpt lat="45.06104" lon="4.09482">
        <ele>1085</ele>
      </trkpt>
      <trkpt lat="45.0612" lon="4.09498">
        <ele>1085</ele>
      </trkpt>
      <trkpt lat="45.06135" lon="4.0951">
        <ele>1080</ele>
      </trkpt>
      <trkpt lat="45.06138" lon="4.0951">
        <ele>1080</ele>
      </trkpt>
      <trkpt lat="45.06144" lon="4.0951">
        <ele>1081</ele>
      </trkpt>
      <trkpt lat="45.06153" lon="4.09508">
        <ele>1081</ele>
      </trkpt>
      <trkpt lat="45.06162" lon="4.09503">
        <ele>1082</ele>
      </trkpt>
      <trkpt lat="45.06164" lon="4.09501">
        <ele>1083</ele>
      </trkpt>
      <trkpt lat="45.06164" lon="4.09499">
        <ele>1083</ele>
      </trkpt>
      <trkpt lat="45.06171" lon="4.09489">
        <ele>1084</ele>
      </trkpt>
      <trkpt lat="45.06172" lon="4.09489">
        <ele>1084</ele>
      </trkpt>
      <trkpt lat="45.06175" lon="4.09482">
        <ele>1085</ele>
      </trkpt>
      <trkpt lat="45.06185" lon="4.09467">
        <ele>1086</ele>
      </trkpt>
      <trkpt lat="45.06188" lon="4.09462">
        <ele>1086</ele>
      </trkpt>
      <trkpt lat="45.06196" lon="4.09444">
        <ele>1087</ele>
      </trkpt>
      <trkpt lat="45.06202" lon="4.09437">
        <ele>1087</ele>
      </trkpt>
      <trkpt lat="45.06205" lon="4.09435">
        <ele>1087</ele>
      </trkpt>
      <trkpt lat="45.06213" lon="4.09413">
        <ele>1090</ele>
      </trkpt>
      <trkpt lat="45.06214" lon="4.09383">
        <ele>1091</ele>
      </trkpt>
      <trkpt lat="45.06218" lon="4.09352">
        <ele>1091</ele>
      </trkpt>
      <trkpt lat="45.06223" lon="4.09322">
        <ele>1093</ele>
      </trkpt>
      <trkpt lat="45.06229" lon="4.09292">
        <ele>1093</ele>
      </trkpt>
      <trkpt lat="45.06235" lon="4.09262">
        <ele>1093</ele>
      </trkpt>
      <trkpt lat="45.06245" lon="4.09239">
        <ele>1093</ele>
      </trkpt>
      <trkpt lat="45.06247" lon="4.09236">
        <ele>1093</ele>
      </trkpt>
      <trkpt lat="45.06252" lon="4.09236">
        <ele>1091</ele>
      </trkpt>
      <trkpt lat="45.06262" lon="4.09244">
        <ele>1092</ele>
      </trkpt>
      <trkpt lat="45.06269" lon="4.09246">
        <ele>1091</ele>
      </trkpt>
      <trkpt lat="45.06272" lon="4.09245">
        <ele>1091</ele>
      </trkpt>
      <trkpt lat="45.06282" lon="4.09244">
        <ele>1090</ele>
      </trkpt>
      <trkpt lat="45.06287" lon="4.09244">
        <ele>1090</ele>
      </trkpt>
      <trkpt lat="45.06311" lon="4.09252">
        <ele>1092</ele>
      </trkpt>
      <trkpt lat="45.06314" lon="4.09254">
        <ele>1092</ele>
      </trkpt>
      <trkpt lat="45.06334" lon="4.09264">
        <ele>1091</ele>
      </trkpt>
      <trkpt lat="45.06335" lon="4.09264">
        <ele>1091</ele>
      </trkpt>
      <trkpt lat="45.06336" lon="4.09266">
        <ele>1091</ele>
      </trkpt>
      <trkpt lat="45.06337" lon="4.09266">
        <ele>1091</ele>
      </trkpt>
      <trkpt lat="45.0634" lon="4.09267">
        <ele>1091</ele>
      </trkpt>
      <trkpt lat="45.06341" lon="4.09267">
        <ele>1091</ele>
      </trkpt>
      <trkpt lat="45.0636" lon="4.09268">
        <ele>1091</ele>
      </trkpt>
      <trkpt lat="45.06378" lon="4.09272">
        <ele>1090</ele>
      </trkpt>
      <trkpt lat="45.06394" lon="4.09276">
        <ele>1089</ele>
      </trkpt>
      <trkpt lat="45.0641" lon="4.0928">
        <ele>1089</ele>
      </trkpt>
      <trkpt lat="45.06418" lon="4.09283">
        <ele>1083</ele>
      </trkpt>
      <trkpt lat="45.0643" lon="4.09276">
        <ele>1082</ele>
      </trkpt>
      <trkpt lat="45.06441" lon="4.09265">
        <ele>1081</ele>
      </trkpt>
      <trkpt lat="45.06447" lon="4.09259">
        <ele>1081</ele>
      </trkpt>
      <trkpt lat="45.06462" lon="4.09245">
        <ele>1074</ele>
      </trkpt>
      <trkpt lat="45.06463" lon="4.09245">
        <ele>1074</ele>
      </trkpt>
      <trkpt lat="45.06467" lon="4.09248">
        <ele>1073</ele>
      </trkpt>
      <trkpt lat="45.06477" lon="4.09255">
        <ele>1077</ele>
      </trkpt>
      <trkpt lat="45.06482" lon="4.0926">
        <ele>1077</ele>
      </trkpt>
      <trkpt lat="45.06486" lon="4.09262">
        <ele>1076</ele>
      </trkpt>
      <trkpt lat="45.06489" lon="4.09264">
        <ele>1076</ele>
      </trkpt>
      <trkpt lat="45.06493" lon="4.09267">
        <ele>1076</ele>
      </trkpt>
      <trkpt lat="45.06509" lon="4.09258">
        <ele>1070</ele>
      </trkpt>
      <trkpt lat="45.06523" lon="4.09247">
        <ele>1066</ele>
      </trkpt>
      <trkpt lat="45.06533" lon="4.09237">
        <ele>1065</ele>
      </trkpt>
      <trkpt lat="45.06538" lon="4.0923">
        <ele>1064</ele>
      </trkpt>
      <trkpt lat="45.06547" lon="4.09223">
        <ele>1063</ele>
      </trkpt>
      <trkpt lat="45.0656" lon="4.0921">
        <ele>1062</ele>
      </trkpt>
      <trkpt lat="45.06569" lon="4.09205">
        <ele>1061</ele>
      </trkpt>
      <trkpt lat="45.06571" lon="4.09201">
        <ele>1061</ele>
      </trkpt>
      <trkpt lat="45.06573" lon="4.09195">
        <ele>1061</ele>
      </trkpt>
      <trkpt lat="45.06572" lon="4.09183">
        <ele>1060</ele>
      </trkpt>
      <trkpt lat="45.06573" lon="4.0918">
        <ele>1059</ele>
      </trkpt>
      <trkpt lat="45.06578" lon="4.0918">
        <ele>1059</ele>
      </trkpt>
      <trkpt lat="45.06582" lon="4.09182">
        <ele>1059</ele>
      </trkpt>
      <trkpt lat="45.06591" lon="4.09186">
        <ele>1055</ele>
      </trkpt>
      <trkpt lat="45.06616" lon="4.09181">
        <ele>1054</ele>
      </trkpt>
      <trkpt lat="45.06635" lon="4.09164">
        <ele>1050</ele>
      </trkpt>
      <trkpt lat="45.06656" lon="4.09144">
        <ele>1049</ele>
      </trkpt>
      <trkpt lat="45.06679" lon="4.09121">
        <ele>1046</ele>
      </trkpt>
      <trkpt lat="45.06702" lon="4.09102">
        <ele>1046</ele>
      </trkpt>
      <trkpt lat="45.0671" lon="4.09099">
        <ele>1045</ele>
      </trkpt>
      <trkpt lat="45.06731" lon="4.09097">
        <ele>1045</ele>
      </trkpt>
      <trkpt lat="45.06756" lon="4.091">
        <ele>1045</ele>
      </trkpt>
      <trkpt lat="45.06783" lon="4.09107">
        <ele>1047</ele>
      </trkpt>
      <trkpt lat="45.068" lon="4.0908">
        <ele>1045</ele>
      </trkpt>
      <trkpt lat="45.06803" lon="4.09072">
        <ele>1045</ele>
      </trkpt>
      <trkpt lat="45.06804" lon="4.0907">
        <ele>1045</ele>
      </trkpt>
      <trkpt lat="45.06807" lon="4.09065">
        <ele>1045</ele>
      </trkpt>
      <trkpt lat="45.06809" lon="4.09059">
        <ele>1045</ele>
      </trkpt>
      <trkpt lat="45.06814" lon="4.09042">
        <ele>1045</ele>
      </trkpt>
      <trkpt lat="45.0682" lon="4.09034">
        <ele>1046</ele>
      </trkpt>
      <trkpt lat="45.06834" lon="4.09008">
        <ele>1049</ele>
      </trkpt>
      <trkpt lat="45.06848" lon="4.08992">
        <ele>1051</ele>
      </trkpt>
      <trkpt lat="45.06865" lon="4.08984">
        <ele>1053</ele>
      </trkpt>
      <trkpt lat="45.06877" lon="4.08978">
        <ele>1054</ele>
      </trkpt>
      <trkpt lat="45.06879" lon="4.08978">
        <ele>1054</ele>
      </trkpt>
      <trkpt lat="45.06896" lon="4.08972">
        <ele>1055</ele>
      </trkpt>
      <trkpt lat="45.06898" lon="4.08969">
        <ele>1055</ele>
      </trkpt>
      <trkpt lat="45.06901" lon="4.08968">
        <ele>1055</ele>
      </trkpt>
      <trkpt lat="45.06922" lon="4.08961">
        <ele>1060</ele>
      </trkpt>
      <trkpt lat="45.06942" lon="4.08954">
        <ele>1061</ele>
      </trkpt>
      <trkpt lat="45.06964" lon="4.08949">
        <ele>1062</ele>
      </trkpt>
      <trkpt lat="45.0698" lon="4.08962">
        <ele>1062</ele>
      </trkpt>
      <trkpt lat="45.06999" lon="4.08967">
        <ele>1062</ele>
      </trkpt>
      <trkpt lat="45.07023" lon="4.08971">
        <ele>1067</ele>
      </trkpt>
      <trkpt lat="45.07051" lon="4.08969">
        <ele>1068</ele>
      </trkpt>
      <trkpt lat="45.07072" lon="4.08968">
        <ele>1069</ele>
      </trkpt>
      <trkpt lat="45.07099" lon="4.08961">
        <ele>1074</ele>
      </trkpt>
      <trkpt lat="45.07114" lon="4.08958">
        <ele>1075</ele>
      </trkpt>
      <trkpt lat="45.07131" lon="4.08947">
        <ele>1076</ele>
      </trkpt>
      <trkpt lat="45.07139" lon="4.08942">
        <ele>1076</ele>
      </trkpt>
      <trkpt lat="45.07153" lon="4.0892">
        <ele>1078</ele>
      </trkpt>
      <trkpt lat="45.07161" lon="4.08903">
        <ele>1079</ele>
      </trkpt>
      <trkpt lat="45.07175" lon="4.08886">
        <ele>1084</ele>
      </trkpt>
      <trkpt lat="45.07178" lon="4.08884">
        <ele>1084</ele>
      </trkpt>
      <trkpt lat="45.07194" lon="4.08868">
        <ele>1085</ele>
      </trkpt>
      <trkpt lat="45.07213" lon="4.08854">
        <ele>1087</ele>
      </trkpt>
      <trkpt lat="45.07235" lon="4.0884">
        <ele>1089</ele>
      </trkpt>
      <trkpt lat="45.07238" lon="4.0884">
        <ele>1090</ele>
      </trkpt>
      <trkpt lat="45.07247" lon="4.08836">
        <ele>1091</ele>
      </trkpt>
      <trkpt lat="45.07268" lon="4.08851">
        <ele>1093</ele>
      </trkpt>
      <trkpt lat="45.07272" lon="4.08852">
        <ele>1094</ele>
      </trkpt>
      <trkpt lat="45.07296" lon="4.08845">
        <ele>1095</ele>
      </trkpt>
      <trkpt lat="45.07316" lon="4.08835">
        <ele>1096</ele>
      </trkpt>
      <trkpt lat="45.07336" lon="4.08824">
        <ele>1099</ele>
      </trkpt>
      <trkpt lat="45.07356" lon="4.0882">
        <ele>1100</ele>
      </trkpt>
      <trkpt lat="45.07359" lon="4.0882">
        <ele>1101</ele>
      </trkpt>
      <trkpt lat="45.0738" lon="4.08818">
        <ele>1102</ele>
      </trkpt>
      <trkpt lat="45.07406" lon="4.08815">
        <ele>1103</ele>
      </trkpt>
      <trkpt lat="45.07427" lon="4.08807">
        <ele>1107</ele>
      </trkpt>
      <trkpt lat="45.07446" lon="4.08798">
        <ele>1107</ele>
      </trkpt>
      <trkpt lat="45.07452" lon="4.08796">
        <ele>1108</ele>
      </trkpt>
      <trkpt lat="45.07472" lon="4.0878">
        <ele>1109</ele>
      </trkpt>
      <trkpt lat="45.07483" lon="4.08768">
        <ele>1109</ele>
      </trkpt>
      <trkpt lat="45.07493" lon="4.08754">
        <ele>1111</ele>
      </trkpt>
      <trkpt lat="45.07503" lon="4.08746">
        <ele>1113</ele>
      </trkpt>
      <trkpt lat="45.07516" lon="4.08769">
        <ele>1113</ele>
      </trkpt>
      <trkpt lat="45.07531" lon="4.08802">
        <ele>1114</ele>
      </trkpt>
      <trkpt lat="45.07538" lon="4.08837">
        <ele>1113</ele>
      </trkpt>
      <trkpt lat="45.07543" lon="4.08873">
        <ele>1113</ele>
      </trkpt>
      <trkpt lat="45.07548" lon="4.08913">
        <ele>1113</ele>
      </trkpt>
      <trkpt lat="45.0756" lon="4.08953">
        <ele>1113</ele>
      </trkpt>
      <trkpt lat="45.07563" lon="4.08987">
        <ele>1113</ele>
      </trkpt>
      <trkpt lat="45.07569" lon="4.09026">
        <ele>1113</ele>
      </trkpt>
      <trkpt lat="45.07578" lon="4.09064">
        <ele>1113</ele>
      </trkpt>
      <trkpt lat="45.0757" lon="4.09103">
        <ele>1112</ele>
      </trkpt>
      <trkpt lat="45.0756" lon="4.09144">
        <ele>1111</ele>
      </trkpt>
      <trkpt lat="45.07559" lon="4.09174">
        <ele>1112</ele>
      </trkpt>
      <trkpt lat="45.07566" lon="4.09203">
        <ele>1111</ele>
      </trkpt>
      <trkpt lat="45.07576" lon="4.09241">
        <ele>1113</ele>
      </trkpt>
      <trkpt lat="45.07588" lon="4.09281">
        <ele>1117</ele>
      </trkpt>
      <trkpt lat="45.07595" lon="4.09321">
        <ele>1116</ele>
      </trkpt>
      <trkpt lat="45.07592" lon="4.09358">
        <ele>1116</ele>
      </trkpt>
      <trkpt lat="45.07583" lon="4.09385">
        <ele>1112.5</ele>
      </trkpt>
      <trkpt lat="45.07584" lon="4.09392">
        <ele>1116.8</ele>
      </trkpt>
      <trkpt lat="45.07583" lon="4.09394">
        <ele>1113</ele>
      </trkpt>
      <trkpt lat="45.07583" lon="4.09394">
        <ele>1113</ele>
      </trkpt>
      <trkpt lat="45.07599" lon="4.09379">
        <ele>1117</ele>
      </trkpt>
    </trkseg>
  </trk>
</gpx>